[[{"header":{"parameterUnit":"m.s-1","parameterCategory":1,"la1":30.6,"la2":28.766,"lo1":-90.7593,"lo2":-88.6598,"dy":0.0162,"dx":0.0183,"nx":116,"ny":114,"refTime":"2023-04-07T18:00:00:Z","depth":0,"parameterNumber":2,"parameterNumberName":"U-component_of_WINDS"},"data":[0.0,0.0,0.0,0.0,0.0,0.0,0.0,0.0,0.0,0.0,0.0,0.0,0.0,0.0,0.0,0.0,0.0,0.0,0.0,0.0,0.0,0.0,0.0,0.0,0.0,0.0,0.0,0.0,0.0,0.0,0.0,0.0,0.0,0.0,0.0,0.0,0.0,0.0,0.0,0.0,0.0,0.0,0.0,0.0,0.0,0.0,0.0,0.0,0.0,0.0,0.0,0.0,0.0,0.0,0.0,0.0,0.0,0.0,0.0,0.0,0.0,0.0,0.0,0.0,0.0,0.0,0.0,0.0,0.0,0.0,0.0,0.0,0.0,0.0,0.0,0.0,0.0,0.0,0.0,0.0,0.0,0.0,0.0,0.0,0.0,0.0,0.0,0.0,0.0,0.0,0.0,0.0,0.0,0.0,0.0,0.0,0.0,0.0,0.0,0.0,0.0,0.0,0.0,0.0,0.0,0.0,0.0,0.0,0.0,0.0,0.0,0.0,0.0,0.0,0.0,0.0,0.0,0.0,0.0,0.0,0.0,0.0,0.0,0.0,0.0,0.0,0.0,0.0,0.0,0.0,0.0,0.0,0.0,0.0,0.0,0.0,0.0,0.0,0.0,0.0,0.0,0.0,0.0,0.0,0.0,0.0,0.0,0.0,0.0,0.0,0.0,0.0,0.0,0.0,0.0,0.0,0.0,0.0,0.0,0.0,0.0,0.0,0.0,0.0,0.0,0.0,0.0,0.0,0.0,0.0,0.0,0.0,0.0,0.0,0.0,0.0,0.0,0.0,0.0,0.0,0.0,0.0,0.0,0.0,0.0,0.0,0.0,0.0,0.0,0.0,0.0,0.0,0.0,0.0,0.0,0.0,0.0,0.0,0.0,0.0,0.0,0.0,0.0,0.0,0.0,0.0,0.0,0.0,0.0,0.0,0.0,0.0,0.0,0.0,0.0,0.0,0.0,0.0,0.0,0.0,0.0,0.0,0.0,0.0,0.0,0.0,0.0,0.0,0.0,0.0,0.0,0.0,0.0,0.0,0.0,0.0,0.0,0.0,0.0,0.0,0.0,0.0,0.0,0.0,0.0,0.0,0.0,0.0,0.0,0.0,0.0,0.0,0.0,0.0,0.0,0.0,0.0,0.0,0.0,0.0,0.0,0.0,0.0,0.0,0.0,0.0,0.0,0.0,0.0,0.0,0.0,0.0,0.0,0.0,0.0,0.0,0.0,0.0,0.0,0.0,0.0,0.0,0.0,0.0,0.0,0.0,0.0,0.0,0.0,0.0,0.0,0.0,0.0,0.0,0.0,0.0,0.0,0.0,0.0,0.0,0.0,0.0,0.0,0.0,0.0,0.0,0.0,0.0,0.0,0.0,0.0,0.0,0.0,0.0,0.0,0.0,0.0,0.0,0.0,0.0,0.0,0.0,0.0,0.0,0.0,0.0,0.0,0.0,0.0,0.0,0.0,0.0,0.0,0.0,0.0,0.0,0.0,0.0,0.0,0.0,0.0,0.0,0.0,0.0,0.0,0.0,0.0,0.0,0.0,0.0,0.0,0.0,0.0,0.0,0.0,0.0,0.0,0.0,0.0,0.0,0.0,0.0,0.0,0.0,0.0,0.0,0.0,0.0,0.0,0.0,0.0,0.0,0.0,0.0,0.0,0.0,0.0,0.0,0.0,0.0,0.0,0.0,0.0,0.0,0.0,0.0,0.0,0.0,0.0,0.0,0.0,0.0,0.0,0.0,0.0,0.0,0.0,0.0,0.0,0.0,0.0,0.0,0.0,0.0,0.0,0.0,0.0,0.0,0.0,0.0,0.0,0.0,0.0,0.0,0.0,0.0,0.0,0.0,0.0,0.0,0.0,0.0,0.0,0.0,0.0,0.0,0.0,0.0,0.0,0.0,0.0,0.0,0.0,0.0,0.0,0.0,0.0,0.0,0.0,0.0,0.0,0.0,0.0,0.0,0.0,0.0,0.0,0.0,0.0,0.0,0.0,0.0,0.0,0.0,0.0,0.0,0.0,0.0,0.0,0.0,0.0,0.0,0.0,0.0,0.0,0.0,0.0,0.0,0.0,0.0,0.0,0.0,0.0,0.0,0.0,0.0,0.0,0.0,0.0,0.0,0.0,0.0,0.0,0.0,0.0,0.0,0.0,0.0,0.0,0.0,0.0,0.0,0.0,0.0,0.0,0.0,0.0,0.0,0.0,0.0,0.0,0.0,0.0,0.0,0.0,0.0,0.0,0.0,0.0,0.0,0.0,0.0,0.0,0.0,0.0,0.0,0.0,0.0,0.0,0.0,0.0,0.0,0.0,0.0,0.0,0.0,0.0,0.0,0.0,0.0,0.0,0.0,0.0,0.0,0.0,0.0,0.0,0.0,0.0,0.0,0.0,0.0,0.0,0.0,0.0,0.0,0.0,0.0,0.0,0.0,0.0,0.0,0.0,0.0,0.0,0.0,0.0,0.0,0.0,0.0,0.0,0.0,0.0,0.0,0.0,0.0,0.0,0.0,0.0,0.0,0.0,0.0,0.0,0.0,0.0,0.0,0.0,0.0,0.0,0.0,0.0,0.0,0.0,0.0,0.0,0.0,0.0,0.0,0.0,0.0,0.0,0.0,0.0,0.0,0.0,0.0,0.0,0.0,0.0,0.0,0.0,0.0,0.0,0.0,0.0,0.0,0.0,0.0,0.0,0.0,0.0,0.0,0.0,0.0,0.0,0.0,0.0,0.0,0.0,0.0,0.0,0.0,0.0,0.0,0.0,0.0,0.0,0.0,0.0,0.0,0.0,0.0,0.0,0.0,0.0,0.0,0.0,0.0,0.0,0.0,0.0,0.0,0.0,0.0,0.0,0.0,0.0,0.0,0.0,0.0,0.0,0.0,0.0,0.0,0.0,0.0,0.0,0.0,0.0,0.0,0.0,0.0,0.0,0.0,0.0,0.0,0.0,0.0,0.0,0.0,0.0,0.0,0.0,0.0,0.0,0.0,0.0,0.0,0.0,0.0,0.0,0.0,0.0,0.0,0.0,0.0,0.0,0.0,0.0,0.0,0.0,0.0,0.0,0.0,0.0,0.0,0.0,0.0,0.0,0.0,0.0,0.0,0.0,0.0,0.0,0.0,0.0,0.0,0.0,0.0,0.0,0.0,0.0,0.0,0.0,0.0,0.0,0.0,0.0,0.0,0.0,0.0,0.0,0.0,0.0,0.0,0.0,0.0,0.0,0.0,0.0,0.0,0.0,0.0,0.0,0.0,0.0,0.0,0.0,0.0,0.0,0.0,0.0,0.0,0.0,0.0,0.0,0.0,0.0,0.0,0.0,0.0,0.0,0.0,0.0,0.0,0.0,0.0,0.0,0.0,0.0,0.0,0.0,0.0,0.0,0.0,0.0,0.0,0.0,0.0,0.0,0.0,0.0,0.0,0.0,0.0,0.0,0.0,0.0,0.0,0.0,0.0,0.0,0.0,0.0,0.0,0.0,0.0,0.0,0.0,0.0,0.0,0.0,0.0,0.0,0.0,0.0,0.0,0.0,0.0,0.0,0.0,0.0,0.0,0.0,0.0,0.0,0.0,0.0,0.0,0.0,0.0,0.0,0.0,0.0,0.0,0.0,0.0,0.0,0.0,0.0,0.0,0.0,0.0,0.0,0.0,0.0,0.0,0.0,0.0,0.0,0.0,0.0,0.0,0.0,0.0,0.0,0.0,0.0,0.0,0.0,0.0,0.0,0.0,0.0,0.0,0.0,0.0,0.0,0.0,0.0,0.0,0.0,0.0,0.0,0.0,0.0,0.0,0.0,0.0,0.0,0.0,0.0,0.0,0.0,0.0,0.0,0.0,0.0,0.0,0.0,0.0,0.0,0.0,0.0,0.0,0.0,0.0,0.0,0.0,0.0,0.0,0.0,0.0,0.0,0.0,0.0,0.0,0.0,0.0,0.0,0.0,0.0,0.0,0.0,0.0,0.0,0.0,0.0,0.0,0.0,0.0,0.0,0.0,0.0,0.0,0.0,0.0,0.0,0.0,0.0,0.0,0.0,0.0,0.0,0.0,0.0,0.0,0.0,0.0,0.0,0.0,0.0,0.0,0.0,0.0,0.0,0.0,0.0,0.0,0.0,0.0,0.0,0.0,0.0,0.0,0.0,0.0,0.0,0.0,0.0,0.0,0.0,0.0,0.0,0.0,0.0,0.0,0.0,0.0,0.0,0.0,0.0,0.0,0.0,0.0,0.0,0.0,0.0,0.0,0.0,0.0,0.0,0.0,0.0,0.0,0.0,0.0,0.0,0.0,0.0,0.0,0.0,0.0,0.0,0.0,0.0,0.0,0.0,0.0,0.0,0.0,0.0,0.0,0.0,0.0,0.0,0.0,0.0,0.0,0.0,0.0,0.0,0.0,0.0,0.0,0.0,0.0,0.0,0.0,0.0,0.0,0.0,0.0,0.0,0.0,0.0,0.0,0.0,0.0,0.0,0.0,0.0,0.0,0.0,0.0,0.0,0.0,0.0,0.0,0.0,0.0,0.0,0.0,0.0,0.0,0.0,0.0,0.0,0.0,0.0,0.0,0.0,0.0,0.0,0.0,0.0,0.0,0.0,0.0,0.0,0.0,0.0,0.0,0.0,0.0,0.0,0.0,0.0,0.0,0.0,0.0,0.0,0.0,0.0,0.0,0.0,0.0,0.0,0.0,0.0,0.0,0.0,0.0,0.0,0.0,0.0,0.0,0.0,0.0,0.0,0.0,0.0,0.0,0.0,0.0,0.0,0.0,0.0,0.0,0.0,0.0,0.0,0.0,0.0,0.0,0.0,0.0,0.0,0.0,0.0,0.0,0.0,0.0,0.0,0.0,0.0,0.0,0.0,0.0,0.0,0.0,0.0,0.0,0.0,0.0,0.0,0.0,0.0,0.0,0.0,0.0,0.0,0.0,0.0,0.0,0.0,0.0,0.0,0.0,0.0,0.0,0.0,0.0,0.0,0.0,0.0,0.0,0.0,0.0,0.0,0.0,0.0,0.0,0.0,0.0,0.0,0.0,0.0,0.0,0.0,0.0,0.0,0.0,0.0,0.0,0.0,0.0,0.0,0.0,0.0,0.0,0.0,0.0,0.0,0.0,0.0,0.0,0.0,0.0,0.0,0.0,0.0,0.0,0.0,0.0,0.0,0.0,0.0,0.0,0.0,0.0,0.0,0.0,0.0,0.0,0.0,0.0,0.0,0.0,0.0,0.0,0.0,0.0,0.0,0.0,0.0,0.0,0.0,0.0,0.0,0.0,0.0,0.0,0.0,0.0,0.0,0.0,0.0,0.0,0.0,0.0,0.0,0.0,0.0,0.0,0.0,0.0,0.0,0.0,0.0,0.0,0.0,0.0,0.0,0.0,0.0,0.0,0.0,0.0,0.0,0.0,0.0,0.0,0.0,0.0,0.0,0.0,0.0,0.0,0.0,0.0,0.0,0.0,0.0,0.0,0.0,0.0,0.0,0.0,0.0,0.0,0.0,0.0,0.0,0.0,0.0,0.0,0.0,0.0,0.0,0.0,0.0,0.0,0.0,0.0,0.0,0.0,0.0,0.0,0.0,0.0,0.0,0.0,0.0,0.0,0.0,0.0,0.0,0.0,0.0,0.0,0.0,0.0,0.0,0.0,0.0,0.0,0.0,0.0,0.0,0.0,0.0,0.0,0.0,0.0,0.0,0.0,0.0,0.0,0.0,0.0,0.0,0.0,0.0,0.0,0.0,0.0,0.0,0.0,0.0,0.0,0.0,0.0,0.0,0.0,0.0,0.0,0.0,0.0,0.0,0.0,0.0,0.0,0.0,0.0,0.0,0.0,0.0,0.0,0.0,0.0,0.0,0.0,0.0,0.0,0.0,0.0,0.0,0.0,0.0,0.0,0.0,0.0,0.0,0.0,0.0,0.0,0.0,0.0,0.0,0.0,0.0,0.0,0.0,0.0,0.0,0.0,0.0,0.0,0.0,0.0,0.0,0.0,0.0,0.0,0.0,0.0,0.0,0.0,0.0,0.0,0.0,0.0,0.0,0.0,0.0,0.0,0.0,0.0,0.0,0.0,0.0,0.0,0.0,0.0,0.0,0.0,0.0,0.0,4.253,4.1196,0.0,0.0,0.0,0.0,0.0,0.0,0.0,0.0,0.0,0.0,0.0,0.0,0.0,0.0,0.0,0.0,0.0,0.0,0.0,0.0,0.0,0.0,0.0,4.2287,4.2287,4.2287,4.2644,4.2995,4.338,4.3815,4.4349,4.5,4.4901,4.5032,4.5386,4.5153,4.5268,4.5703,4.5642,4.5852,4.6154,4.5817,4.5656,4.5736,0.0,0.0,0.0,0.0,0.0,0.0,0.0,0.0,0.0,0.0,0.0,0.0,0.0,0.0,0.0,0.0,0.0,0.0,0.0,0.0,0.0,0.0,0.0,0.0,0.0,0.0,0.0,0.0,0.0,0.0,0.0,0.0,0.0,0.0,0.0,0.0,0.0,0.0,0.0,0.0,0.0,0.0,0.0,0.0,0.0,0.0,0.0,0.0,0.0,0.0,0.0,0.0,0.0,0.0,0.0,0.0,0.0,0.0,0.0,0.0,0.0,0.0,0.0,0.0,0.0,0.0,0.0,0.0,0.0,0.0,4.3947,4.2556,0.0,0.0,0.0,0.0,0.0,0.0,0.0,0.0,0.0,0.0,0.0,0.0,0.0,0.0,0.0,0.0,0.0,0.0,0.0,0.0,0.0,4.2287,4.2287,4.2287,4.2358,4.2501,4.3108,4.3565,4.385,4.4456,4.5089,4.5737,4.568,4.5917,4.6554,4.6337,4.6253,4.635,4.6253,4.6189,4.6189,4.6189,4.606,4.584,4.5892,0.0,0.0,0.0,0.0,0.0,0.0,0.0,0.0,0.0,0.0,0.0,0.0,0.0,0.0,0.0,0.0,0.0,0.0,0.0,0.0,0.0,0.0,0.0,0.0,0.0,0.0,0.0,0.0,0.0,0.0,0.0,0.0,0.0,0.0,0.0,0.0,0.0,0.0,0.0,0.0,0.0,0.0,0.0,0.0,0.0,0.0,0.0,0.0,0.0,0.0,0.0,0.0,0.0,0.0,0.0,0.0,0.0,0.0,0.0,0.0,0.0,0.0,0.0,4.7061,4.7352,4.7381,4.7724,4.7615,4.7052,4.5367,4.4265,4.3726,4.3822,0.0,0.0,0.0,0.0,0.0,0.0,0.0,0.0,0.0,0.0,0.0,0.0,0.0,0.0,0.0,0.0,0.0,0.0,0.0,4.2287,4.2287,4.2287,4.2573,4.3286,4.3465,4.4028,4.5214,4.5526,4.5909,4.646,4.6448,4.6436,4.6447,4.6253,4.6239,4.6239,4.6239,4.614,4.604,4.604,4.6288,4.6813,4.6916,4.6847,4.6653,0.0,0.0,0.0,0.0,0.0,0.0,0.0,0.0,0.0,0.0,0.0,0.0,0.0,0.0,0.0,0.0,0.0,0.0,0.0,0.0,0.0,0.0,0.0,0.0,0.0,0.0,0.0,0.0,0.0,0.0,0.0,0.0,0.0,0.0,0.0,0.0,0.0,0.0,0.0,0.0,0.0,4.8413,4.6582,0.0,0.0,0.0,0.0,0.0,0.0,0.0,0.0,0.0,0.0,0.0,0.0,0.0,4.5895,4.6625,4.8131,4.8933,4.9022,5.0139,5.053,5.053,5.0054,4.9538,4.9104,4.819,0.0,4.5901,4.6356,0.0,0.0,0.0,0.0,0.0,0.0,0.0,0.0,0.0,0.0,0.0,0.0,0.0,0.0,0.0,0.0,0.0,0.0,0.0,0.0,0.0,4.268,4.3108,4.3465,4.4285,4.5027,4.5659,4.6167,4.6514,4.659,4.659,4.6495,4.6301,4.661,4.6755,4.6755,4.64,4.64,4.677,4.677,4.7191,4.7875,4.8382,4.819,4.7576,4.8176,0.0,0.0,0.0,0.0,0.0,0.0,0.0,0.0,0.0,0.0,0.0,0.0,0.0,0.0,0.0,0.0,0.0,0.0,0.0,0.0,0.0,0.0,0.0,0.0,0.0,0.0,0.0,0.0,0.0,0.0,0.0,0.0,0.0,0.0,0.0,0.0,0.0,0.0,0.0,4.7585,4.7553,4.582,4.5495,4.4978,0.0,0.0,0.0,0.0,0.0,0.0,0.0,0.0,0.0,4.634,4.6991,4.7753,4.8706,4.9482,5.005,5.05,5.1374,5.1768,5.1768,5.1667,5.1506,5.1283,5.0346,4.9776,4.9392,4.7663,4.6583,4.5902,0.0,0.0,0.0,0.0,4.4811,4.4691,0.0,0.0,0.0,0.0,0.0,0.0,0.0,0.0,0.0,0.0,0.0,0.0,4.2287,4.3036,4.3607,4.3786,4.4991,4.5847,4.6105,4.6595,4.6824,4.6637,4.659,4.6447,4.6253,4.67,4.7019,4.728,4.675,4.6835,4.7397,4.7573,4.8099,4.8837,4.9381,4.9151,4.8394,4.8882,4.9057,4.8918,0.0,0.0,0.0,0.0,0.0,0.0,0.0,0.0,0.0,0.0,0.0,0.0,0.0,0.0,0.0,0.0,0.0,0.0,0.0,0.0,0.0,0.0,0.0,0.0,0.0,0.0,0.0,0.0,0.0,0.0,0.0,0.0,0.0,0.0,0.0,0.0,0.0,4.7236,4.753,4.5978,4.622,4.6063,0.0,0.0,0.0,0.0,0.0,0.0,4.6079,4.6519,4.711,4.7733,4.8504,4.9426,5.0481,5.0661,5.099,5.1468,5.2127,5.2456,5.2486,5.277,5.2881,5.2783,5.1788,5.1648,5.1842,4.9057,4.7698,4.7349,4.7349,4.725,4.7051,4.6851,4.6523,4.6459,0.0,0.0,0.0,0.0,0.0,0.0,0.0,0.0,0.0,0.0,0.0,4.253,4.2328,4.3036,4.3786,4.45,4.5187,4.597,4.689,4.6731,4.6684,4.6778,4.6542,4.6398,4.6398,4.6288,4.661,4.7397,4.7362,4.7362,4.7397,4.8135,4.8872,4.9644,4.9412,4.9194,4.9028,4.979,4.9756,4.9161,4.9229,0.0,0.0,0.0,0.0,0.0,0.0,0.0,0.0,0.0,0.0,0.0,0.0,0.0,0.0,0.0,0.0,0.0,0.0,0.0,0.0,0.0,0.0,0.0,0.0,0.0,0.0,0.0,0.0,0.0,0.0,0.0,0.0,0.0,0.0,0.0,0.0,0.0,0.0,4.9251,4.8844,0.0,0.0,0.0,0.0,4.6954,4.7016,4.7553,4.9193,4.9194,4.9704,5.0936,5.0396,5.0418,5.1169,5.1798,5.2127,5.2157,5.2815,5.3144,5.3144,5.3174,5.3077,5.2812,5.2487,5.2188,5.1929,5.093,5.0788,5.1309,5.1309,5.1309,5.1208,5.0463,4.9945,4.9631,0.0,0.0,0.0,4.252,4.2078,4.1965,4.2334,4.1923,4.1837,4.2418,4.245,4.2583,4.3001,4.375,4.4535,4.532,4.606,4.6631,4.6962,4.6906,4.6778,4.6684,4.659,4.6645,4.6926,4.6926,4.7312,4.7945,4.8083,4.838,4.8872,4.9153,4.9626,5.0309,5.02,4.9924,4.962,4.978,4.9923,5.0032,4.9433,4.8984,0.0,0.0,0.0,0.0,0.0,0.0,0.0,0.0,0.0,0.0,0.0,0.0,0.0,0.0,0.0,0.0,0.0,0.0,0.0,0.0,0.0,0.0,0.0,0.0,0.0,0.0,0.0,0.0,0.0,0.0,0.0,0.0,0.0,0.0,0.0,0.0,0.0,5.0003,4.9846,0.0,4.9294,4.8171,4.7865,4.8944,4.9035,4.9159,4.9374,5.0124,5.0723,5.121,5.1772,5.2247,5.2486,5.2725,5.2815,5.2845,5.3503,5.3832,5.3862,5.4281,5.4391,5.406,5.3343,5.3069,5.3187,5.2238,5.1788,5.1614,5.1614,5.1512,5.1308,5.0972,5.0766,5.054,4.2734,4.2918,0.0,4.2631,4.2266,4.2119,4.2448,4.2039,4.192,4.2537,4.2705,4.2977,4.3465,4.4428,4.5213,4.5749,4.6488,4.6952,4.6998,4.687,4.6731,4.6684,4.659,4.6892,4.763,4.7487,4.7838,4.875,4.8855,4.9188,4.9679,5.0187,5.0624,5.1004,5.1172,5.1188,5.0986,5.0626,5.0343,5.0066,4.9433,4.8984,4.8707,0.0,0.0,0.0,0.0,0.0,0.0,0.0,0.0,0.0,0.0,0.0,0.0,0.0,0.0,0.0,0.0,0.0,0.0,0.0,0.0,0.0,0.0,0.0,0.0,0.0,0.0,0.0,0.0,0.0,0.0,0.0,0.0,0.0,0.0,4.9645,5.0596,5.0724,5.0982,5.1171,5.1056,5.0119,4.9804,5.0388,5.0454,5.0427,5.0333,5.1289,5.1887,5.1887,5.2725,5.3174,5.3174,5.3414,5.3533,5.3533,5.4221,5.4551,5.4551,5.4999,5.5078,5.4773,5.3993,5.3818,5.386,5.3065,5.2555,5.2075,5.2075,5.1943,5.1736,5.1736,5.1528,5.1165,4.3178,4.3214,4.2959,4.2157,4.2667,4.2887,4.1905,4.2411,4.2842,4.2685,4.3328,4.375,4.3572,4.4928,4.582,4.582,4.6443,4.686,4.6998,4.6673,4.6578,4.6813,4.6613,4.7125,4.8451,4.7819,4.8205,4.9679,4.9714,4.9714,4.975,5.1129,5.1717,5.1752,5.223,5.2684,5.3218,5.231,5.0933,4.9297,4.9263,4.8956,4.8547,0.0,0.0,0.0,0.0,0.0,0.0,0.0,0.0,0.0,0.0,0.0,0.0,0.0,0.0,0.0,0.0,0.0,0.0,0.0,0.0,0.0,0.0,0.0,0.0,0.0,0.0,0.0,0.0,0.0,0.0,0.0,0.0,0.0,4.9627,5.0961,5.1933,5.1623,5.2377,5.262,5.1769,5.1126,5.0887,5.1208,5.1241,5.1528,5.2187,5.2845,5.3204,5.3204,5.3234,5.3234,5.3234,5.3892,5.4251,5.4251,5.488,5.5179,5.5179,5.5179,5.5108,5.4803,5.4436,5.4097,5.3815,5.3319,5.3107,5.3107,5.3107,5.2894,5.268,5.268,5.2465,5.1896,4.3214,4.3322,4.332,4.2959,4.3069,4.3105,4.285,4.2736,4.2829,4.3324,4.3524,4.3929,4.4769,4.5356,4.5944,4.6605,4.6763,4.6824,4.6824,4.7299,4.7523,4.7378,4.7658,4.7768,4.7713,4.8591,4.9258,4.9679,5.0134,5.0325,5.036,5.0649,5.0745,5.0632,5.0783,5.1187,5.1701,5.1434,5.1313,5.1199,5.0407,4.9616,4.8861,0.0,0.0,0.0,0.0,0.0,0.0,0.0,0.0,0.0,0.0,0.0,0.0,0.0,0.0,0.0,0.0,0.0,0.0,0.0,0.0,0.0,0.0,0.0,0.0,0.0,0.0,0.0,0.0,0.0,0.0,0.0,5.2013,5.3054,5.2316,5.2797,5.3616,5.4487,5.3808,5.3301,5.364,5.2082,5.1485,5.2612,5.2205,5.2217,5.2875,5.3563,5.3922,5.3922,5.4401,5.464,5.464,5.482,5.491,5.491,5.5089,5.5179,5.5179,5.5179,5.4976,5.4436,5.4304,5.3919,5.3319,5.3107,5.2787,5.2465,5.268,5.2573,5.2358,5.2358,5.1759,5.0628,4.3358,4.3428,4.3463,4.325,4.3322,4.3322,4.325,4.2994,4.3123,4.4043,4.4056,4.4528,4.574,4.6056,4.6407,4.6962,4.6952,4.6824,4.6778,4.7145,4.7391,4.7548,4.7768,4.8032,4.8345,4.9205,4.9748,5.0117,5.069,5.0788,5.0509,5.1059,5.1257,5.1142,5.1083,5.1381,5.208,5.1985,5.1932,5.1974,5.1498,5.0532,4.9492,4.9641,4.9413,4.8986,4.9287,4.9155,4.8759,4.8628,0.0,0.0,0.0,0.0,0.0,0.0,0.0,0.0,0.0,0.0,0.0,0.0,0.0,0.0,0.0,0.0,0.0,0.0,0.0,0.0,0.0,0.0,0.0,0.0,5.3407,5.4503,5.4244,5.4261,5.468,5.5539,5.4549,5.3876,5.4364,5.2977,5.2453,5.3213,5.3164,5.3204,5.3593,5.4251,5.461,5.461,5.4999,5.5179,5.5179,5.5179,5.5179,5.5179,5.5179,5.5179,5.5179,5.5179,5.4773,5.4097,5.4097,5.371,5.2894,5.2787,5.2573,5.2221,0.0,0.0,0.0,0.0,5.0628,4.9274,4.3463,4.3497,4.3463,4.3356,4.3426,4.3426,4.3321,4.3251,4.3607,4.4647,4.4892,4.5364,4.6448,4.6813,4.6998,4.6998,4.6998,4.6941,4.6873,4.6707,4.6864,4.7503,4.7608,4.831,4.9644,4.9625,4.999,5.0724,5.115,5.1037,5.0515,5.1755,5.2354,5.2354,5.2244,5.2666,5.3329,5.3169,5.2763,5.2221,5.2588,5.1749,5.0304,5.0851,5.0488,4.9854,5.0424,5.019,4.9653,4.9358,0.0,0.0,0.0,0.0,0.0,0.0,0.0,0.0,0.0,0.0,0.0,0.0,0.0,0.0,0.0,0.0,0.0,0.0,0.0,0.0,0.0,0.0,0.0,0.0,5.4374,5.5409,5.5409,5.5474,5.5539,5.5539,5.4845,5.4419,5.4407,5.3775,5.3338,5.3331,5.3862,5.4251,5.4311,5.488,0.0,0.0,0.0,5.5299,5.5299,5.5299,5.5299,5.5299,5.5239,5.5179,5.5179,5.5179,5.4743,5.3919,5.3919,5.3395,5.2573,5.2329,5.2221,5.2113,5.2113,5.1896,5.1568,5.0656,4.9274,4.8029,4.3497,4.3497,4.3497,4.3497,4.3497,4.3463,4.3251,4.3761,4.4263,4.4628,4.5394,4.6096,4.6531,4.6731,4.6906,4.6998,4.6778,4.6921,4.7413,4.7646,4.7963,4.8275,4.8837,4.924,4.9555,5.0095,5.0704,5.1302,5.0736,5.0679,5.1165,5.1302,5.1381,5.1415,5.1942,5.2571,5.3169,5.3107,5.3318,5.3635,5.3511,5.2595,5.1206,5.1183,5.1051,5.0818,5.0409,5.0139,4.9873,4.9173,4.8807,4.8644,4.8227,4.8497,0.0,0.0,0.0,0.0,0.0,0.0,0.0,0.0,0.0,0.0,0.0,0.0,0.0,0.0,0.0,0.0,0.0,0.0,0.0,5.3454,5.4615,5.5409,5.5409,5.5928,5.6284,5.6284,5.5121,5.4496,5.5124,5.3985,5.3458,5.3952,5.4132,5.4431,5.497,5.5119,5.5179,5.5179,5.5718,5.5987,5.5987,5.5987,5.5987,5.5987,5.5448,0.0,5.5179,5.5179,5.4743,5.3919,5.3919,5.329,5.2329,5.2221,5.2113,5.1896,5.1896,5.143,5.0517,4.9643,4.8726,4.7677,4.3497,4.3497,4.3532,4.3566,4.3532,4.3463,4.3286,4.3944,4.4629,4.5078,4.5796,4.647,4.7062,4.7026,4.6906,4.6906,4.6731,4.6719,4.6963,4.7538,4.8032,4.8382,4.9135,4.9622,4.9951,5.0628,5.0898,5.0841,5.1083,5.1025,5.0679,5.1321,5.1666,5.1701,5.2046,5.2509,5.3072,5.3009,5.3058,5.3338,5.3515,5.3177,5.2499,5.2367,5.2097,5.1758,5.1792,5.1319,5.0608,5.0173,4.9738,4.9434,4.9211,4.9521,4.9859,0.0,0.0,0.0,0.0,0.0,0.0,0.0,0.0,0.0,0.0,0.0,0.0,0.0,0.0,5.238,5.2892,0.0,5.3648,5.4437,5.531,5.596,5.596,5.6575,5.6815,5.6007,5.5279,5.4943,5.5286,5.4334,5.3982,5.464,5.47,5.485,5.5179,5.5508,5.5688,5.5688,5.6286,5.6645,5.6645,5.6645,5.6466,5.6166,5.5837,5.5508,5.5209,5.5078,5.4568,5.3919,5.3605,5.2972,5.2221,5.2004,5.1896,5.1787,5.132,5.0656,4.9843,4.8957,4.8029,4.7138,4.3497,4.3497,4.3532,4.36,4.3566,4.3499,4.3541,4.4272,4.5035,4.553,4.6169,4.678,4.7393,4.7155,4.6952,4.6778,4.6779,4.6684,4.6398,4.7231,4.7889,4.8277,4.9081,4.9742,5.0341,5.0957,5.1072,5.0564,5.1553,5.1459,5.0459,5.1666,5.2218,5.2218,5.2528,5.2888,5.3312,5.3151,5.2994,5.2901,5.3381,5.3484,5.3518,5.3518,5.301,5.2367,5.3044,5.2401,5.1217,5.1217,5.0811,5.0304,5.0304,5.0618,5.0927,5.0358,5.0819,0.0,0.0,0.0,0.0,0.0,0.0,0.0,0.0,5.2941,5.3096,5.2876,5.305,5.3568,5.447,5.4487,5.4665,5.5507,5.6122,5.6543,5.6672,5.732,5.7206,5.5732,5.561,5.5565,5.5616,5.4865,5.461,5.5149,5.5299,5.5388,5.5388,5.5987,5.6346,5.6346,5.6974,5.7304,5.7304,5.7304,5.7034,5.6555,5.6406,5.5914,5.5257,5.4981,5.448,5.371,5.3193,5.2715,5.2311,5.2205,5.2042,5.1932,5.0874,5.0195,4.948,4.8458,4.7468,4.6686,4.3497,4.3497,4.3532,4.36,4.3566,4.3648,4.42,4.5114,4.5588,4.5219,4.6524,4.7289,4.6542,4.6784,4.6906,4.6637,4.7192,4.7152,4.6274,4.7471,4.826,4.8312,4.9081,4.9742,5.0228,5.0934,5.1533,5.1977,5.1459,5.1494,5.1977,5.2149,5.2218,5.2287,5.3632,5.4161,5.4102,5.4038,5.3844,5.3581,5.3683,5.3618,5.3518,5.3518,5.301,5.23,5.2401,5.1928,5.1217,5.1217,5.1183,5.1082,5.1082,5.1589,5.1931,5.0727,5.1254,5.19,5.0602,5.1557,5.2688,5.1876,5.2425,5.3066,0.0,5.3324,5.3978,5.4567,5.5096,5.549,5.5636,5.5393,5.5539,5.6251,5.6446,5.6737,5.7352,5.8065,5.7932,5.6492,5.6279,5.6498,5.7057,5.5925,5.5119,5.5179,5.5718,5.6077,5.6077,5.6645,5.7004,5.7004,5.7663,5.8022,5.8022,5.8022,5.7962,5.7902,5.7017,5.6258,5.5605,5.5426,5.4475,5.3213,5.2897,5.2712,5.2658,5.322,5.3106,5.2536,5.1584,5.0617,4.9651,4.8302,4.7112,4.6301,4.3497,4.3532,4.3566,4.36,4.3899,4.4234,4.4382,4.5663,4.6285,4.5345,4.6767,4.7497,4.6535,4.6852,4.7098,4.6824,4.7676,4.7689,4.6517,4.8417,4.9132,4.8242,4.9338,5.0028,5.0092,5.0818,5.1312,5.1563,5.1701,5.1701,5.1597,5.2494,5.2666,5.2287,5.3839,5.4367,5.4239,5.4239,5.411,5.3849,5.3849,5.3849,5.3817,5.3651,5.3109,5.2533,5.2841,5.247,0.0,5.1794,5.1794,5.1763,5.1794,5.2301,5.264,5.1896,5.2424,5.3356,5.385,5.3897,5.4047,5.4725,5.5165,5.5322,5.5051,5.505,5.5267,5.5562,5.5618,5.5702,5.6287,5.6222,5.6284,5.6996,5.7482,5.7838,5.8162,5.881,5.9,5.8435,5.7493,5.6743,5.6183,5.5551,5.5359,5.5718,5.6017,5.6316,5.6705,5.7334,5.7693,5.7693,5.8351,5.871,5.871,5.871,5.8393,5.7898,5.7446,5.6865,5.6001,5.576,5.4973,5.3875,5.3803,5.3583,5.3276,5.3557,5.3329,5.2641,5.1422,5.0446,4.9672,4.848,4.7719,4.723,0.0,4.3566,4.3674,4.386,4.4524,4.5003,4.4858,4.6103,4.6798,4.5867,4.7074,4.7692,4.6902,4.7168,4.7276,4.7098,4.7644,4.764,4.6908,4.8813,4.9498,4.8483,4.9701,5.032,5.0034,5.0735,5.1218,5.1425,5.1942,5.2046,5.177,5.2873,5.308,5.2597,5.3908,5.4431,5.4303,5.4303,5.4175,5.4045,5.4045,5.4045,5.398,5.3849,5.3443,5.2938,5.3281,5.2876,5.2168,5.2437,5.2438,5.2404,5.2438,5.2741,5.3075,5.2927,5.3494,5.4367,5.5542,5.5429,5.5247,5.6571,5.6972,5.6987,5.6525,5.6323,5.6086,5.6006,5.5815,5.5945,5.6629,5.6723,5.7029,5.7741,5.8292,5.8713,5.8907,5.9393,5.9628,5.9419,5.8554,5.7428,5.5922,5.555,5.5718,5.6376,5.6585,5.6915,5.7363,5.8022,5.8411,5.8411,5.886,5.9099,5.9099,5.8991,5.8644,5.7981,5.7764,5.7301,5.6466,5.5829,5.5169,5.4537,5.4597,5.4346,5.3922,5.4119,5.3717,5.2904,5.1669,5.0801,4.9975,4.8985,4.8434,4.7908,0.0,4.3497,4.3754,4.4525,4.5333,4.5883,4.5847,4.6544,4.7094,4.698,4.7557,4.7911,4.7663,4.7536,4.745,4.732,4.687,4.6861,4.7456,4.8166,4.8802,4.9214,4.998,5.0341,5.0206,5.0759,5.1459,5.2183,5.2218,5.2597,5.3322,5.3391,5.3391,5.3391,5.4184,5.4529,5.4494,5.4494,5.4367,5.4175,5.4175,5.411,5.398,5.398,5.3849,5.3617,5.3315,5.2809,5.2335,5.2773,5.3008,5.3145,5.2939,5.287,5.3037,5.3528,5.4044,5.446,5.427,5.5173,5.6151,5.5962,5.6604,5.7214,5.6757,5.6402,5.6006,5.5879,5.6157,5.6478,5.6478,5.7061,5.7773,5.8486,5.8615,5.8874,5.9587,5.9716,5.9419,5.8701,5.9182,5.8908,5.7389,5.6617,5.6406,5.7034,5.7693,5.8082,5.8082,5.871,5.9069,5.9069,5.9099,5.9099,5.9099,5.8882,5.8664,5.8664,5.8085,5.743,5.6757,5.5597,5.4869,5.4566,5.4828,5.4884,5.4597,5.5187,5.4734,5.3537,5.278,5.1793,5.0537,4.9797,4.8862,4.7908,0.0,0.0,4.3823,4.4562,4.5441,4.6176,4.6654,4.7388,4.7681,4.7129,4.7276,0.0,0.0,0.0,0.0,0.0,4.829,4.8483,4.7807,4.9522,5.0291,4.9608,5.0015,5.0341,5.0418,5.0391,5.0735,5.1494,5.1977,5.2356,5.2632,5.3667,5.3873,5.3425,5.4184,5.4494,5.4494,5.4494,5.4431,5.4367,5.4367,5.4367,5.4303,5.4045,5.398,5.3917,0.0,5.3379,5.2706,5.2803,5.3168,5.3469,5.3071,5.3502,5.4195,5.4356,5.4549,5.4815,5.5536,5.587,5.627,5.7348,5.723,5.689,5.6995,5.6573,5.6137,5.6222,5.6233,5.6518,5.7485,5.7872,5.8259,5.8968,5.924,5.9425,5.9684,5.9716,5.979,6.0007,5.9283,5.8998,5.9377,5.8338,5.7686,5.7723,5.7992,5.8321,5.874,5.8979,5.9099,5.9099,5.9099,5.8991,5.8803,5.8803,5.8445,5.8114,5.7445,5.7104,5.6901,5.622,5.5908,5.5794,5.568,5.5534,5.5215,5.4679,5.4047,5.32,5.2068,5.1094,5.0232,4.9719,4.9364,4.9038,0.0,0.0,0.0,4.4929,4.5626,0.0,0.0,0.0,0.0,0.0,0.0,0.0,0.0,0.0,0.0,0.0,0.0,4.8923,4.8329,4.9962,5.0783,5.0242,5.0209,5.0341,5.0585,5.0206,5.0355,5.1114,5.1597,5.2114,5.2666,5.3632,5.4011,5.3804,5.4287,5.4494,5.4494,5.4494,5.4494,5.4494,5.4431,5.4367,5.4367,5.411,5.4151,0.0,5.4397,5.4085,5.3707,5.3603,5.3499,5.3465,5.3532,5.4367,5.5295,5.5188,5.5462,5.591,5.6633,5.666,5.6746,5.7758,5.763,5.721,5.7277,5.7051,5.689,5.6885,5.6892,5.7206,5.8139,5.835,5.8638,5.9145,5.9331,5.954,5.9716,5.9943,6.0267,6.072,6.0073,5.9847,6.0459,5.9664,5.8906,5.8441,5.8471,5.865,5.9069,5.9099,5.9099,5.9099,5.8991,5.8882,5.8694,5.8474,5.8114,5.7669,5.722,5.6993,5.688,5.6652,5.6423,5.6308,5.6077,5.5613,5.5116,5.4378,5.3658,5.2834,5.1695,5.0842,5.0232,4.9719,4.959,4.959,0.0,0.0,0.0,0.0,0.0,0.0,0.0,0.0,0.0,0.0,0.0,0.0,0.0,0.0,0.0,0.0,0.0,0.0,4.8891,4.9552,5.0312,5.1088,5.0544,5.0341,5.0585,5.0263,5.0355,5.1045,5.108,5.1873,5.3356,5.3391,5.3804,5.4494,5.4494,5.4494,5.4494,5.4494,5.4494,5.4494,5.4303,5.4239,5.4175,5.408,5.4326,5.4805,5.4736,5.4898,5.508,5.4862,5.4033,5.3202,5.4528,5.5536,5.6144,5.6029,5.6754,5.7588,5.7364,5.7439,5.7514,5.7398,5.7706,5.7897,5.7536,5.7821,5.81,5.7781,5.8023,5.8333,5.8365,5.8524,5.8792,5.9241,5.9152,5.9184,5.9661,6.0364,6.0818,6.0793,6.1308,6.134,6.0584,6.0363,5.9895,5.9207,5.9099,5.9099,5.9099,5.9099,5.9099,5.9099,5.8773,5.8694,5.8664,5.8114,5.7557,5.7303,5.7303,5.7078,5.688,5.688,5.6537,5.599,5.599,5.5351,5.4497,5.4497,5.3658,5.2465,5.1846,5.1094,5.0461,4.9847,4.959,4.959,0.0,0.0,0.0,0.0,0.0,0.0,0.0,0.0,0.0,0.0,0.0,0.0,0.0,0.0,0.0,0.0,0.0,0.0,4.9221,5.0165,5.0911,5.1367,5.0509,5.0285,5.091,5.0509,5.031,5.0287,5.1038,5.18,5.2528,5.3115,5.3804,5.4494,5.4494,5.4494,5.4494,5.4494,5.4494,5.4494,5.4303,5.4239,5.4244,5.4495,5.4702,5.4941,5.5888,5.5845,5.5295,5.508,5.4773,5.4812,5.6178,5.6412,5.6318,5.7003,5.7379,5.7588,5.7735,5.7588,5.7499,5.7993,5.763,5.7243,5.8129,5.7821,5.7609,5.847,5.8345,5.8197,5.8888,5.8934,5.8972,5.9241,5.9419,5.9734,6.0461,6.0688,6.0993,6.1436,6.1119,6.074,6.0424,5.9834,5.9315,5.9099,5.9099,5.9099,5.9099,5.9099,5.8991,5.8773,5.8694,5.8445,5.8003,5.764,5.7191,5.6623,5.6623,5.6537,5.6193,5.5961,5.5961,5.599,5.5729,5.5233,5.4497,5.3779,5.2807,5.1721,5.0867,5.0232,4.9847,4.9332,4.9202,4.9202,0.0,0.0,0.0,0.0,0.0,0.0,0.0,0.0,0.0,0.0,0.0,0.0,0.0,0.0,0.0,0.0,0.0,0.0,0.0,5.0545,5.1383,5.1622,5.0838,5.0564,5.091,5.0564,5.0263,5.0011,5.0564,5.1326,5.2218,5.2666,5.346,5.4494,5.4494,5.4494,5.4494,5.4494,5.4494,0.0,0.0,5.4239,5.4244,5.4667,5.5009,5.5485,5.6464,5.666,5.6487,5.627,5.6197,5.6298,5.6801,5.6976,5.7049,5.7453,5.7662,5.7803,5.8066,5.7909,5.7883,5.8464,5.8362,5.829,5.8593,5.8525,5.8521,5.8907,5.8574,5.8403,5.9088,5.8882,5.8792,5.9241,5.9588,6.0032,6.072,6.1336,6.18,6.2201,6.1787,6.1346,6.0877,6.0106,5.9499,5.9099,5.9099,5.9099,5.9099,5.8991,5.8912,5.8664,5.8445,5.8114,5.7557,5.7416,5.7078,5.6737,5.6652,5.6537,5.6423,5.5961,5.5845,5.599,5.5613,5.5026,5.4047,5.3565,5.2588,5.1346,5.0614,4.9976,4.959,4.9202,4.8942,4.8837,0.0,0.0,0.0,0.0,0.0,0.0,0.0,0.0,0.0,4.8306,4.8306,4.8267,4.8187,4.7992,0.0,0.0,0.0,0.0,0.0,0.0,5.1637,5.1858,5.1175,5.0803,5.0857,5.062,5.0376,5.0068,5.0126,5.0818,5.214,5.2183,5.2977,5.4419,5.446,5.4494,5.4529,5.4494,5.4529,5.4529,5.4303,5.4239,5.4244,0.0,5.5383,5.6097,5.6735,5.734,5.7881,5.7662,5.7662,5.756,5.692,5.7229,5.7881,5.7662,5.7735,5.7977,5.8346,5.8394,5.8518,5.886,5.9363,5.9696,5.9095,5.9349,5.9599,5.912,5.8728,5.8573,5.8972,5.8673,5.8737,5.937,5.9949,6.0463,6.0954,6.2113,6.2923,6.2927,6.2716,6.2284,6.1418,6.0628,5.9819,5.9099,5.9099,5.9099,5.9099,5.8912,5.8694,5.8555,5.8003,5.7557,5.7303,5.7303,5.7303,5.7191,5.6993,5.688,5.6766,5.6193,5.599,5.5874,5.5496,5.4671,5.3592,5.347,5.2492,5.0994,5.0614,5.0104,4.9461,4.9202,4.8837,4.8445,0.0,0.0,0.0,0.0,0.0,0.0,0.0,0.0,0.0,4.8306,4.8306,4.8267,4.8187,4.8032,0.0,0.0,0.0,0.0,0.0,0.0,0.0,5.1758,5.1123,5.0946,5.1246,5.1193,5.0838,5.032,5.0564,5.1018,5.1639,5.2027,5.2823,5.3931,5.4344,5.4592,5.4717,5.4592,5.4592,5.4717,5.4367,5.4239,5.4312,5.5484,5.5996,0.0,5.7311,5.778,5.7881,5.7881,5.7808,5.7881,5.7673,5.778,5.7881,5.7881,5.7881,5.7977,5.8496,5.8547,5.8518,5.9019,5.9159,5.9069,5.9249,5.8769,5.843,5.9073,5.8435,5.8032,5.9056,5.9543,5.996,6.0412,6.1084,6.173,6.2437,6.2728,6.293,6.2844,6.2189,6.1418,6.0628,5.9819,5.9207,5.9099,5.9099,5.9099,5.9099,5.8912,5.8445,5.8003,5.7557,5.7303,5.7303,5.7303,5.7191,5.6993,5.688,5.6652,5.6193,5.6105,5.5845,5.5496,5.4998,5.4286,5.3592,5.2738,5.1747,5.0588,5.0359,4.9719,4.9202,4.8837,4.8445,4.8026,0.0,0.0,0.0,0.0,0.0,0.0,0.0,4.8049,4.8306,4.8306,4.8306,4.8267,4.8265,4.8151,4.8068,0.0,0.0,0.0,0.0,0.0,0.0,5.1907,5.1571,5.1367,5.1298,5.1298,5.1052,5.062,0.0,5.1654,5.2138,5.2486,5.3345,5.452,5.4279,5.4426,5.4992,5.462,5.4592,5.4655,5.4431,5.4367,5.4475,5.5722,5.6507,0.0,5.7717,5.7881,5.7881,5.7881,5.8152,5.8457,5.8457,5.822,5.7983,5.8355,5.8457,5.8552,5.9026,5.9342,5.9655,6.0104,6.0141,5.9961,5.9618,5.9166,5.8874,5.8754,5.8355,5.8137,5.8818,5.9047,5.9211,5.9575,6.1069,6.2156,6.197,6.3279,6.3991,6.3517,6.2678,6.1853,6.1041,6.0211,5.9499,5.9099,5.8991,5.8882,5.8882,5.8445,5.8003,5.7528,5.7416,5.7303,5.7303,5.7303,5.7191,5.688,5.6766,5.6537,5.6193,5.5845,5.5729,5.5729,5.5261,5.4405,5.3322,5.2983,5.1872,5.0359,5.0104,4.959,4.8837,4.8445,4.805,4.7762,0.0,0.0,0.0,0.0,0.0,0.0,4.8234,4.8306,4.8306,4.8344,4.8306,4.8306,4.8306,4.819,4.8108,0.0,0.0,0.0,0.0,0.0,0.0,0.0,5.1956,5.1758,5.1402,0.0,0.0,5.0946,5.1544,0.0,0.0,0.0,0.0,0.0,5.4381,5.452,5.5199,5.4807,5.462,0.0,0.0,5.4494,5.4603,0.0,0.0,0.0,0.0,5.7881,5.7881,5.7881,5.8287,5.8795,5.889,5.8653,5.8383,5.8822,5.9059,5.9144,5.9443,5.999,6.0645,6.1003,6.1119,6.0835,5.9946,5.9555,5.9258,5.8427,5.8148,5.8177,5.8578,5.8522,5.8525,5.8832,6.0828,6.2105,6.1466,6.3447,6.4701,6.4056,6.3293,6.2481,6.152,6.0835,5.9895,5.9099,5.8664,5.8445,5.8445,5.8003,5.7669,5.7303,5.7303,5.7303,5.7303,5.7303,5.7191,5.688,5.6652,5.6423,5.6308,5.5845,5.5729,5.5845,5.5496,5.4524,5.32,5.3227,5.197,5.0232,4.9976,4.9357,4.8576,4.8158,4.7762,4.7497,0.0,0.0,0.0,0.0,0.0,0.0,4.8346,4.8381,4.8344,4.8457,4.8381,4.8306,4.8306,4.8111,4.7992,0.0,0.0,0.0,0.0,0.0,0.0,0.0,0.0,0.0,0.0,0.0,0.0,5.1246,5.1317,0.0,0.0,0.0,0.0,0.0,0.0,5.5284,5.5199,5.5018,0.0,0.0,0.0,0.0,0.0,0.0,0.0,0.0,0.0,5.7881,5.7881,5.7881,5.7949,5.8118,5.8571,5.9136,5.9506,5.89,5.905,5.9432,5.9499,5.991,6.0403,6.1003,6.1119,6.0835,5.9946,5.9166,5.8613,5.83,5.7769,5.7607,5.8483,5.8934,5.9253,5.9564,6.0678,6.163,6.2044,6.2844,6.3549,6.3929,6.3293,6.2481,6.152,6.0835,5.9925,5.8773,5.8225,5.7892,5.7892,5.7781,5.7669,5.7303,5.7303,5.7303,5.7303,5.7303,5.7191,5.688,5.688,5.6537,5.5961,5.599,5.5845,5.5496,5.488,5.4166,5.347,5.2218,5.1346,5.0461,4.959,4.8967,4.8576,4.8158,4.7762,4.7497,0.0,0.0,0.0,0.0,0.0,0.0,4.8307,4.8344,4.8306,4.8344,4.8344,4.8306,4.8306,4.819,4.8108,4.7992,0.0,0.0,0.0,0.0,0.0,0.0,0.0,0.0,0.0,0.0,5.1758,5.1556,5.2019,0.0,0.0,0.0,0.0,0.0,0.0,5.5305,5.5694,5.5472,0.0,0.0,0.0,0.0,0.0,0.0,0.0,0.0,0.0,0.0,5.7881,5.7881,5.8186,5.8552,5.8556,5.9007,5.952,5.8858,5.9084,5.9533,5.9533,6.0211,6.0968,6.1103,6.1119,6.0835,5.9946,5.9457,5.9097,5.8395,5.8053,5.7927,5.8087,5.8185,5.8311,5.8718,5.9789,6.0866,6.1567,6.2716,6.358,6.3929,6.3293,6.2481,6.152,6.0835,5.9789,5.8555,5.8003,5.7669,5.7528,5.7528,5.7416,5.7303,5.7303,5.7303,5.7303,5.7303,5.7191,5.688,5.6652,5.6423,5.599,5.5729,5.5613,5.5496,5.5261,5.4405,5.32,5.2711,5.1471,4.9976,4.9332,4.8812,4.8158,4.7762,4.763,4.7497,0.0,0.0,0.0,0.0,0.0,4.8344,4.842,4.8344,4.8306,4.8382,4.8344,4.8306,4.8306,4.8265,4.8148,4.8072,4.9487,0.0,0.0,0.0,0.0,0.0,0.0,0.0,0.0,0.0,5.1858,5.1858,5.238,5.2921,0.0,0.0,5.4652,5.5735,0.0,0.0,0.0,0.0,0.0,0.0,0.0,0.0,0.0,0.0,0.0,0.0,0.0,0.0,0.0,0.0,0.0,5.8586,5.8287,5.8504,5.883,5.8916,5.9265,5.9643,5.9522,6.0365,6.1185,6.0821,6.087,6.075,5.9859,5.9596,5.9363,5.8459,5.8274,5.8274,5.8058,5.7778,5.7651,5.7928,5.9124,6.0103,6.0515,6.2076,6.3292,6.3227,6.2875,6.2184,6.1246,6.018,5.9147,5.8225,5.7781,5.7528,5.7303,5.7303,5.7303,5.7303,5.7303,5.7303,5.7303,5.7303,5.7078,5.6766,5.6509,5.6193,5.5845,5.5613,5.5496,5.5496,5.5144,5.4286,5.3078,5.2685,5.1346,4.959,4.9072,4.8551,4.7894,4.763,4.7497,4.7497,0.0,0.0,0.0,0.0,0.0,4.842,4.8751,4.8495,4.8382,4.8569,4.842,4.8306,4.8306,4.8265,4.8187,4.8187,4.9445,0.0,0.0,0.0,0.0,0.0,0.0,0.0,0.0,0.0,5.1956,5.2102,5.1956,5.2386,5.3324,5.3928,5.4473,5.4989,0.0,0.0,0.0,0.0,0.0,0.0,0.0,0.0,5.6147,0.0,0.0,0.0,0.0,0.0,0.0,0.0,0.0,0.0,0.0,5.7439,5.7591,5.9064,5.9718,5.9908,5.9577,6.0284,6.092,6.0191,6.0357,6.0548,5.9892,5.9508,5.9152,5.8459,5.8274,5.8274,5.8274,5.8089,5.7778,5.759,5.8938,5.9724,5.8746,6.0795,6.213,6.1532,6.1775,6.1582,6.042,5.8822,5.7781,5.7781,5.7528,5.7303,5.7303,5.7303,5.7303,5.7303,5.7303,5.7303,5.7303,5.7303,5.6964,5.6394,5.6394,5.6077,5.5496,5.5496,5.5496,5.5496,5.4405,5.3658,5.2956,5.1695,5.0588,4.9461,4.8837,4.8313,4.7894,4.763,4.7497,4.7497,0.0,0.0,0.0,0.0,0.0,0.0,4.8569,4.8494,4.8457,4.8532,4.8382,4.8306,4.8306,4.8267,4.8265,4.8187,4.9528,0.0,0.0,0.0,0.0,0.0,0.0,0.0,0.0,5.2198,5.215,5.2102,5.2054,5.2449,5.3324,5.3993,5.4733,5.5418,5.6188,5.6492,0.0,0.0,0.0,0.0,5.5174,5.5506,5.6519,0.0,0.0,0.0,0.0,0.0,0.0,0.0,0.0,0.0,0.0,0.0,0.0,5.8461,5.8906,5.8937,5.8495,5.9481,6.0468,5.9745,6.0022,6.0292,5.9596,5.9331,5.9152,5.8459,5.8274,5.8274,5.8089,5.7965,5.8185,5.9032,5.9253,5.9726,6.1019,6.2362,6.3357,6.3516,6.3545,6.2757,6.1072,5.9652,5.8605,5.7892,5.7528,5.7303,5.7303,5.7303,5.7303,5.7303,5.7303,5.7303,5.7303,5.7107,5.6993,5.6766,5.6308,5.6077,5.5845,5.5613,5.5496,5.5496,5.4405,5.3658,5.2956,5.1695,5.0334,4.9202,4.8706,4.8182,4.763,4.7497,4.7497,4.7497,0.0,0.0,0.0,0.0,0.0,0.0,4.8606,4.8532,4.8494,4.8494,4.8344,4.8306,4.8306,4.8306,4.8414,4.8705,4.9793,0.0,0.0,0.0,0.0,0.0,0.0,0.0,5.234,5.2329,5.2293,5.2246,5.2198,5.2498,5.3062,5.376,5.4553,5.5346,5.5969,5.6366,0.0,0.0,0.0,0.0,5.5531,5.5574,5.6245,0.0,0.0,0.0,0.0,0.0,0.0,0.0,0.0,0.0,0.0,0.0,0.0,0.0,5.803,5.7968,5.7827,5.907,6.0148,5.9133,5.9572,6.012,5.9419,5.9241,5.8972,5.8459,5.8274,5.8274,5.8058,5.8058,5.8248,5.8938,5.9412,6.0171,6.1306,6.294,6.3999,6.4026,6.3762,6.2777,6.0586,5.9546,5.8714,5.764,5.7416,5.7303,5.7303,5.7303,5.7303,5.7303,5.7303,5.7303,5.7303,5.6993,5.688,5.6766,5.6193,5.599,5.5845,5.5613,5.5496,5.5379,5.4047,5.3322,0.0,5.1194,4.9822,4.8837,4.8706,4.8182,4.7497,4.7497,4.7497,4.7497,0.0,0.0,0.0,0.0,0.0,0.0,0.0,4.8642,4.8494,4.8494,4.8382,4.8306,4.8306,4.8306,4.8636,4.9517,5.0208,0.0,0.0,0.0,0.0,0.0,0.0,0.0,5.248,5.2387,5.2387,5.248,5.2387,5.2434,5.2627,5.3406,5.411,5.487,5.544,5.6025,0.0,0.0,0.0,0.0,5.5764,5.5531,0.0,0.0,0.0,0.0,0.0,0.0,0.0,0.0,0.0,0.0,0.0,0.0,0.0,0.0,0.0,0.0,0.0,5.9004,5.9984,5.846,5.9128,5.9979,5.9419,5.9152,0.0,5.8367,5.8274,5.8274,5.8274,5.8274,5.8182,5.7746,5.96,6.0897,6.0327,6.2779,6.435,6.3262,6.2927,6.1857,5.9482,5.8961,5.8276,5.7416,5.7303,5.7303,5.7303,5.7303,5.7303,5.7303,5.7303,5.7303,5.7303,5.6993,5.6652,5.6394,5.6077,5.5845,5.5496,5.5496,5.5496,5.5379,5.3443,5.2588,5.2465,5.0334,4.9227,4.86,4.86,4.8182,4.7497,4.7497,4.7497,4.7497,0.0,0.0,0.0,0.0,0.0,0.0,0.0,0.0,0.0,0.0,4.8532,4.8419,4.8306,4.8306,4.8636,0.0,0.0,0.0,0.0,0.0,0.0,0.0,0.0,0.0,5.248,5.249,5.2536,5.2581,5.2627,5.2717,5.2798,5.4173,5.4937,5.5156,5.6183,5.658,0.0,0.0,0.0,0.0,5.5993,5.5706,0.0,0.0,0.0,0.0,5.5787,5.6542,0.0,0.0,0.0,0.0,0.0,0.0,0.0,0.0,5.7099,5.7003,5.6639,0.0,5.8852,5.7943,5.8734,5.9716,0.0,5.8972,5.8914,5.8367,5.8274,5.8274,5.8274,5.8274,5.8432,5.8844,6.0104,6.1342,6.2011,6.4191,6.5514,6.4964,6.4578,6.3376,6.0555,6.0075,5.9225,5.7416,5.7303,5.7303,5.7303,5.7303,5.7303,5.7303,5.7303,5.7191,5.6993,5.6652,5.6423,5.6077,5.5729,5.5613,5.5496,5.5496,5.5496,5.5379,5.3443,5.2588,5.2465,5.0206,4.8967,4.86,4.8313,4.7894,4.7497,4.7497,4.7497,4.7497,0.0,0.0,0.0,0.0,0.0,0.0,0.0,0.0,0.0,0.0,4.8569,4.8457,4.8419,4.8344,4.882,0.0,0.0,0.0,0.0,0.0,0.0,0.0,0.0,5.2761,5.2663,5.2672,5.2635,5.259,5.2761,5.2806,5.2842,5.3726,5.4574,5.5332,5.65,5.6776,0.0,0.0,5.6217,5.6383,5.6217,0.0,0.0,0.0,0.0,0.0,5.5613,5.6235,0.0,5.5209,5.5852,5.7273,0.0,0.0,0.0,0.0,5.6945,5.6704,5.6184,5.733,5.8453,5.7741,5.8648,5.954,5.9094,5.9004,5.8914,5.8367,5.8274,5.8274,5.8274,5.8434,5.8656,5.8908,6.0678,6.2715,6.4417,6.5481,6.5805,6.5125,6.4932,6.3704,6.0659,6.018,5.9332,5.7416,5.7303,5.7303,5.7303,5.7303,5.7303,5.7303,5.7303,5.7191,5.7078,5.6623,5.6394,5.6423,5.5845,5.5613,5.5729,5.5613,5.5496,5.5379,5.3926,5.2956,5.2465,5.0588,4.9332,4.86,4.8182,4.7762,4.7497,4.7497,4.7497,4.7497,0.0,0.0,0.0,0.0,0.0,0.0,0.0,0.0,0.0,0.0,0.0,0.0,0.0,0.0,0.0,0.0,0.0,0.0,0.0,0.0,0.0,0.0,5.298,5.2893,5.2806,5.2806,5.2761,5.2635,5.2806,5.285,5.2886,5.3127,5.3968,5.5377,5.655,5.6845,5.6421,5.6456,5.6383,5.6383,5.6383,0.0,0.0,0.0,0.0,0.0,0.0,0.0,0.0,5.5277,5.575,5.6833,5.6052,0.0,0.0,0.0,0.0,0.0,5.6165,5.7412,5.8539,5.7773,5.8648,5.954,5.9094,5.9004,5.8914,5.8367,5.8274,5.8274,5.8274,5.8625,5.8812,5.859,6.1217,6.3998,6.6184,6.6159,6.5643,6.4675,6.4513,6.3313,6.0241,5.9895,5.9147,5.7416,5.7303,5.7303,5.7303,5.7303,5.7303,5.7303,5.7303,5.7303,5.7303,5.6737,5.6509,5.6766,5.5845,5.5613,5.599,5.5613,5.5496,5.5496,5.4405,5.3416,5.2465,5.1094,4.9719,4.8445,4.805,4.7762,4.7497,4.7497,4.7497,4.7497,0.0,0.0,0.0,0.0,0.0,0.0,0.0,0.0,0.0,0.0,0.0,0.0,0.0,0.0,0.0,0.0,0.0,0.0,0.0,0.0,0.0,5.3146,5.2974,5.2806,5.2806,5.2893,5.2937,5.2937,5.306,5.3103,5.3182,5.3842,5.4517,5.5145,5.6697,5.6675,5.5632,5.6313,5.6492,5.6383,5.6383,0.0,0.0,0.0,0.0,0.0,0.0,0.0,0.0,5.6055,5.6528,5.7577,5.6651,0.0,0.0,0.0,0.0,0.0,5.6165,5.7577,5.8965,5.7826,5.8648,5.954,5.9094,5.9004,5.8914,5.8367,5.8274,5.8274,5.7965,5.8436,5.8907,5.8876,6.1472,6.374,6.4377,6.5023,6.5121,6.3933,6.3581,6.2608,6.0494,5.997,5.9147,5.7416,5.7303,5.7303,5.7303,5.7303,5.7303,5.7303,5.7303,5.7303,5.7303,5.6737,5.6308,5.6077,5.5729,5.5613,5.599,5.5613,5.5496,5.5496,5.4405,5.3268,5.2041,5.0664,4.9282,4.8026,4.7762,4.7497,4.7497,4.7497,4.7497,4.7497,0.0,0.0,0.0,0.0,0.0,0.0,0.0,0.0,0.0,0.0,0.0,0.0,0.0,0.0,0.0,0.0,0.0,0.0,0.0,0.0,5.3225,5.3225,5.306,5.3017,5.3017,5.306,5.306,5.298,5.3146,5.3146,5.314,5.4429,5.533,5.5905,5.6928,5.7007,5.6273,5.6474,5.6546,5.6383,0.0,0.0,0.0,0.0,0.0,0.0,0.0,0.0,0.0,0.0,5.6731,5.7239,5.6684,0.0,0.0,0.0,0.0,0.0,5.6165,5.7282,5.8391,5.7897,5.9491,6.1117,6.085,6.076,6.0451,5.9462,5.9306,5.8995,5.8059,5.8845,6.0202,6.1695,6.2588,6.3389,6.4604,6.4287,6.3838,6.3453,6.3099,6.2184,6.0285,6.0,5.9147,5.7416,5.7303,5.7303,5.7303,5.7303,5.7303,5.7303,5.7303,5.7191,5.7107,5.6623,5.6423,5.6423,5.5961,5.5845,5.599,5.5613,5.5496,5.5496,5.4998,5.4047,5.2807,5.1393,5.0028,4.8812,4.7894,4.7497,4.7497,4.7497,4.7497,4.7497,0.0,0.0,0.0,0.0,0.0,0.0,0.0,0.0,0.0,0.0,0.0,0.0,0.0,0.0,0.0,0.0,0.0,0.0,0.0,5.3225,5.3225,5.3225,5.3225,5.3225,5.3225,5.3225,5.3146,5.306,5.3146,5.3256,5.3353,5.4869,5.5786,5.609,5.7024,5.7107,5.653,5.6632,5.66,5.6492,0.0,0.0,0.0,0.0,0.0,0.0,0.0,0.0,0.0,0.0,0.0,0.0,0.0,0.0,0.0,5.7063,5.668,5.6402,5.6165,5.7053,5.8032,5.8195,6.0108,6.196,6.1751,6.1662,6.1264,6.0174,6.0024,5.9745,5.8277,5.9255,6.1217,6.3644,6.3321,6.3259,6.4893,6.3838,6.3002,6.3228,6.2905,6.2085,6.042,6.0,5.9255,5.7751,5.7416,5.7303,5.7303,5.7303,5.7303,5.7303,5.7303,5.7191,5.6993,5.6652,5.6652,5.6766,5.6193,5.599,5.599,5.5613,5.5496,5.5496,5.5496,5.479,5.3443,5.2015,5.079,4.9436,4.8026,4.7497,4.7497,4.7497,4.7497,4.7497,0.0,0.0,0.0,0.0,0.0,0.0,0.0,0.0,0.0,0.0,0.0,0.0,0.0,0.0,0.0,0.0,0.0,0.0,0.0,5.3225,5.3225,5.3225,5.3225,5.3225,5.3225,5.3225,5.3225,5.3182,5.3225,5.3592,5.4326,5.517,5.5163,5.4481,5.6609,5.6685,5.5232,5.6472,5.6881,5.676,5.6653,0.0,0.0,0.0,0.0,0.0,0.0,0.0,0.0,0.0,0.0,0.0,0.0,0.0,5.7289,5.7063,5.668,5.6402,5.6165,5.7134,5.8445,5.91,5.9749,6.0283,6.0163,6.0022,5.9758,5.9427,5.9942,5.9896,5.843,5.9536,6.1059,6.2323,6.3325,6.3929,6.4088,6.374,6.3517,6.3228,6.2905,6.2383,6.1175,6.0316,5.9469,5.8634,5.7751,5.7303,5.7303,5.7303,5.7303,5.7303,5.7303,5.7303,5.7303,5.6993,5.6766,5.6394,5.5845,5.5729,5.599,5.5613,5.5496,5.5496,5.5496,5.4762,5.3389,5.1989,5.0764,4.9386,4.8002,4.7497,4.7497,4.7497,4.7497,4.7497,0.0,0.0,0.0,0.0,0.0,0.0,0.0,0.0,0.0,0.0,0.0,0.0,0.0,0.0,0.0,0.0,0.0,0.0,0.0,5.3225,5.3225,5.3225,5.3225,5.3225,5.3225,5.3225,5.3225,5.3225,5.3225,5.3628,5.4436,5.5207,5.564,5.5761,5.701,5.7158,5.6405,5.6834,5.6881,5.6707,5.66,5.6492,0.0,0.0,0.0,0.0,0.0,0.0,0.0,0.0,5.7287,5.7205,5.6988,5.707,5.7289,5.7063,5.6603,5.6165,5.6086,5.738,5.8703,5.874,5.9971,6.1337,6.1883,6.1982,6.1677,6.0606,6.0615,6.0477,5.9309,6.0578,6.1884,6.2237,6.3227,6.4024,6.4024,6.3612,6.3325,6.3228,6.2839,6.2216,6.1277,6.0866,6.0106,5.8743,5.8305,5.7863,5.7303,5.7303,5.7303,5.7303,5.7303,5.7191,5.7107,5.6737,5.6423,5.6193,5.5961,5.5729,5.5613,5.5496,5.5496,5.5496,5.5496,5.5116,5.4259,5.2508,5.1268,5.0283,4.8264,4.7497,4.7497,4.7497,4.7497,4.7497,0.0,0.0,0.0,0.0,0.0,0.0,0.0,0.0,0.0,0.0,0.0,0.0,0.0,0.0,0.0,0.0,0.0,0.0,5.3272,5.3267,5.3225,5.3225,5.3225,5.3225,5.3225,5.3225,5.3225,5.3225,5.3225,5.3628,5.4436,5.5207,5.5823,5.6319,5.724,5.7425,5.7061,5.708,5.6984,5.6776,5.6707,5.66,0.0,0.0,0.0,0.0,0.0,0.0,0.0,0.0,5.6814,5.6799,5.6727,5.6908,5.7289,5.7063,5.668,5.6402,5.6323,5.7215,5.8231,5.8708,5.9778,6.1113,6.2557,6.2742,6.2154,6.1197,6.0837,6.0526,6.0252,6.1302,6.2134,6.2171,6.3224,6.4024,6.3897,6.3517,6.3131,6.3099,6.2612,6.2216,6.1582,6.1379,6.0763,5.9469,5.8931,5.8305,5.7751,5.7416,5.7303,5.7303,5.7303,5.7191,5.6993,5.6737,5.6423,5.6077,5.6077,5.5845,5.5496,5.5496,5.5496,5.5496,5.5496,5.5379,5.5026,5.3146,5.1518,5.0155,4.8264,4.7497,4.7497,4.7497,4.7497,4.7497,0.0,0.0,0.0,0.0,0.0,0.0,0.0,0.0,0.0,0.0,0.0,0.0,0.0,0.0,0.0,0.0,0.0,0.0,5.3481,5.3314,5.3225,5.3225,5.3225,5.3225,5.3225,5.3225,5.3225,5.3225,5.3225,5.3628,5.4436,5.5207,5.5611,5.5684,5.7125,5.7371,5.6629,5.7158,5.7289,5.7188,5.6881,5.6707,5.66,0.0,0.0,0.0,0.0,0.0,0.0,0.0,5.6267,5.6799,5.6944,5.7094,5.7289,5.7063,5.6987,5.6911,5.6757,5.6525,5.6863,5.9348,5.9136,5.9037,6.1598,6.1414,6.0717,6.0717,6.012,6.0049,6.1133,6.1423,6.1588,6.198,6.3129,6.3897,6.3612,6.3421,6.3131,6.2808,6.2513,6.2414,6.2414,6.1683,6.1175,6.1175,5.9576,5.8634,5.8634,5.7751,5.7303,5.7303,5.7303,5.7303,5.7303,5.6993,5.6766,5.6394,5.6077,5.5845,5.5496,5.5496,5.5496,5.5496,5.5496,5.5496,5.5379,5.3631,5.1393,4.8893,4.787,4.7497,4.7497,4.7497,4.7497,4.7497,0.0,0.0,0.0,0.0,0.0,0.0,0.0,0.0,0.0,0.0,0.0,0.0,0.0,0.0,0.0,0.0,0.0,0.0,5.3481,5.344,5.3355,5.3225,5.3225,5.3225,5.3225,5.3225,5.3225,5.3225,5.3775,5.4179,5.4436,5.5794,5.641,5.6356,5.7334,5.7569,5.7158,5.7328,5.7239,5.7036,5.6984,5.6776,5.66,0.0,0.0,0.0,0.0,0.0,0.0,0.0,0.0,0.0,5.6267,5.6689,5.7289,5.7063,5.668,5.6402,5.6323,5.7,5.792,5.8577,5.9531,6.0456,6.1285,6.1168,6.0919,6.0548,6.0717,6.0694,5.9884,6.0961,6.1886,6.1434,6.2575,6.3627,6.3832,6.3802,6.3675,6.3389,6.3002,6.271,6.271,6.2315,6.1815,6.1277,6.0106,5.9255,5.8634,5.7751,5.7303,5.7303,5.7303,5.7191,5.6993,5.6993,5.6652,5.6077,5.6077,5.5845,5.5496,5.5496,5.5496,5.5496,5.5496,5.5496,5.5379,5.3992,5.2412,5.0689,4.9386,4.8763,4.8526,4.7762,4.7497,4.7497,0.0,0.0,0.0,0.0,0.0,0.0,0.0,0.0,0.0,0.0,5.0692,5.1297,0.0,0.0,0.0,0.0,0.0,0.0,5.3756,5.36,5.3477,5.3314,5.323,5.3225,5.3225,5.3518,5.3518,5.3225,5.3995,5.4546,5.4913,5.6198,5.6777,5.6685,5.7537,5.7726,5.7486,5.7534,5.7388,5.7138,5.7087,5.6933,5.6795,0.0,0.0,0.0,0.0,0.0,0.0,0.0,0.0,0.0,5.6336,5.6877,5.7514,5.7514,5.7181,5.6877,5.6911,5.7465,5.8283,5.9098,5.9712,6.0308,6.0986,6.1119,6.1002,6.0548,6.0909,6.0815,5.9781,6.089,6.176,6.1278,6.2516,6.3421,6.3505,6.3797,6.377,6.3293,6.3002,6.2808,6.2612,6.2513,6.2216,6.1683,6.0835,6.0,5.9147,5.8276,5.764,5.7303,5.7303,5.7191,5.7107,5.6993,5.6652,5.6193,5.6077,5.5845,5.5496,5.5496,5.5496,5.5496,5.5496,5.5379,5.5261,5.3992,5.2903,5.1846,5.0537,4.99,4.9565,4.8526,4.8133,4.8002,0.0,0.0,4.9879,4.9879,0.0,0.0,0.0,0.0,0.0,0.0,5.1424,5.2214,0.0,0.0,0.0,0.0,0.0,0.0,0.0,5.3756,5.3521,5.3481,5.3314,5.3225,5.3225,5.3922,5.3959,5.3335,5.4106,5.4876,5.5611,5.6492,5.6932,5.6932,5.7666,5.7857,5.7583,5.7726,5.7631,5.7388,5.7311,5.7195,5.7149,5.7676,0.0,0.0,0.0,0.0,0.0,0.0,0.0,0.0,5.7036,5.7501,5.7954,5.8099,5.8137,5.8065,5.8099,5.792,5.8174,6.0135,5.9718,5.9119,6.0705,6.1119,6.1002,6.0717,6.0717,6.0633,6.0463,6.0935,6.1393,6.1459,6.2573,6.3277,6.3015,6.3473,6.3611,6.3002,6.2808,6.271,6.2414,6.2414,6.2446,6.2446,6.1683,6.0866,6.0106,5.9147,5.8195,5.7416,5.7303,5.7303,5.7303,5.6993,5.6766,5.6394,5.6077,5.5845,5.5496,5.5496,5.5496,5.5496,5.5496,5.5379,5.5026,5.4019,5.3295,5.2711,5.1544,5.1068,5.0588,4.9411,4.9023,4.8893,0.0,0.0,4.9879,4.9879,0.0,0.0,0.0,0.0,0.0,0.0,0.0,0.0,0.0,0.0,0.0,0.0,0.0,0.0,0.0,5.4018,5.3832,5.3481,5.3314,5.3225,5.3225,5.3371,5.3702,5.4142,5.495,5.5427,5.5611,5.7079,5.774,5.774,5.7923,5.7857,5.7583,5.7631,5.7486,5.7311,5.7876,5.7975,5.7872,5.861,5.9215,0.0,0.0,0.0,0.0,0.0,0.0,0.0,5.769,5.7912,5.7954,5.8065,5.7741,5.7446,5.7662,5.7554,5.7566,5.8441,5.9159,5.9911,6.092,6.1119,6.1002,6.0717,6.0717,6.0633,6.0463,6.0509,6.0803,6.1393,6.1721,6.2255,6.3036,6.3145,6.325,6.342,6.3099,6.2808,6.271,6.2513,6.2446,6.2446,6.1683,6.1175,6.0969,5.9469,5.8525,5.8305,5.764,5.7303,5.7303,5.6993,5.6766,5.6394,5.6077,5.5845,5.5496,5.5496,5.5496,5.5496,5.5496,5.5496,5.5379,5.5144,5.4671,5.4101,5.3052,5.2289,5.157,4.9668,4.9023,4.8893,0.0,0.0,0.0,0.0,0.0,0.0,0.0,0.0,0.0,0.0,0.0,0.0,0.0,0.0,0.0,0.0,0.0,0.0,0.0,5.4163,5.3981,5.3639,5.3723,5.3634,5.3355,5.4002,5.4363,5.4399,5.5574,5.6161,5.6198,5.7042,5.7629,5.7997,5.7997,5.7857,5.7583,5.7631,5.7753,5.7905,5.8341,5.8585,5.8754,5.9492,5.9593,5.918,5.8071,0.0,0.0,0.0,0.0,0.0,0.0,0.0,5.8137,5.828,5.7741,5.7297,5.7881,5.7628,5.7415,5.8274,5.951,6.0622,6.102,6.1119,6.1035,6.0919,6.0919,6.0835,6.075,6.075,6.0797,6.1074,6.1521,6.1928,6.224,6.2541,6.2847,6.2874,6.2684,6.2523,6.258,6.2513,6.2446,6.2446,6.2016,6.1582,6.1175,6.0316,5.9469,5.8634,5.8195,5.7751,5.7303,5.6851,5.6537,5.6394,5.5961,5.5729,5.5729,5.5613,5.5496,5.5496,5.5496,5.5496,5.5496,5.5496,5.5172,5.4607,5.3954,5.3322,5.2588,5.1068,5.041,5.0308,0.0,0.0,0.0,0.0,0.0,0.0,0.0,0.0,0.0,0.0,0.0,0.0,0.0,0.0,0.0,0.0,0.0,0.0,0.0,0.0,0.0,5.4055,5.433,5.4312,5.3924,5.5049,5.5287,5.462,5.5941,5.6675,5.6822,5.6932,5.7373,5.7997,5.7997,5.7857,5.7583,5.7715,5.8057,5.8623,5.8718,5.9108,5.9691,6.0356,5.9916,5.8859,5.8662,5.8438,5.8202,5.7374,0.0,0.0,0.0,0.0,5.8422,5.8526,5.792,5.7446,5.8171,5.7876,5.7682,5.8615,5.9926,6.0953,6.1086,6.1119,6.1119,6.1119,6.1119,6.1119,6.1119,6.1119,6.1002,6.0802,6.1414,6.1758,6.1284,6.1807,6.2191,6.1947,6.1948,6.195,6.2193,6.2256,6.2319,6.2414,6.2446,6.2116,6.1481,6.1277,6.042,5.8822,5.8743,5.8195,5.7303,5.6737,5.6394,5.6394,5.5845,5.5729,5.6077,5.5729,5.5613,5.5613,5.5613,5.5613,5.5496,5.5496,5.5172,5.4607,5.4607,5.4221,5.347,5.2465,5.2068,5.1695,0.0,0.0,0.0,0.0,0.0,0.0,0.0,0.0,0.0,0.0,5.4125,5.4623,0.0,0.0,0.0,0.0,0.0,0.0,0.0,0.0,0.0,5.5063,5.4947,5.5121,5.5549,5.5771,5.5718,5.5427,5.5647,5.6124,5.6822,5.7519,5.7886,5.7997,5.7997,5.7857,5.7583,5.7583,5.8008,5.866,5.9196,5.9888,6.0521,6.1184,6.0741,5.9679,5.9597,5.9076,5.852,5.891,5.9046,0.0,0.0,0.0,5.8492,5.8806,5.828,5.7588,5.7881,5.8133,5.8385,5.8747,5.9529,6.0324,6.0953,6.1119,6.1119,6.1119,6.1119,6.1119,6.1119,6.1119,6.1119,6.1002,6.0985,6.0995,6.1393,6.1173,6.1051,6.1242,6.1025,6.1027,6.1466,6.1529,6.1782,6.2383,6.2446,6.2315,6.2216,6.1582,6.0763,5.9789,5.8931,5.8195,5.7303,5.6737,5.6394,5.6394,5.6077,5.6077,5.6308,5.6279,5.6193,5.599,5.6193,5.5961,5.5496,5.5845,5.5407,5.4607,5.4607,5.4221,5.347,5.2465,5.1944,5.1596,0.0,0.0,0.0,0.0,0.0,0.0,0.0,0.0,0.0,0.0,0.0,5.4767,0.0,0.0,0.0,0.0,0.0,0.0,0.0,0.0,0.0,5.5432,5.5659,5.5835,5.6047,5.6409,5.6504,5.6455,5.6801,5.7206,5.7626,5.7859,5.7997,5.7997,5.7997,5.7904,5.7679,5.7679,5.8349,5.9314,5.9574,6.0392,6.1389,6.1564,6.1034,6.0146,5.9799,5.9467,5.9218,5.9359,5.9602,5.9902,6.0065,0.0,0.0,0.0,5.8099,5.7439,5.7289,5.7825,5.8518,5.8781,5.9463,6.0191,6.0953,6.1119,6.1119,6.1119,6.1119,6.1119,6.1119,6.1119,6.1002,6.0919,6.0802,6.0732,6.075,6.0346,6.0251,6.0412,6.0323,6.0328,6.0708,6.0771,6.1087,6.1782,6.1845,6.2003,6.2414,6.2016,6.1481,6.0628,5.9789,5.8931,5.8085,5.7078,5.6652,5.6394,5.6308,5.6423,5.6652,5.6652,5.6537,5.6193,5.6394,5.6279,5.5961,5.5961,5.5641,5.5054,5.4699,5.4341,5.3833,5.2956,5.2738,5.2588,0.0,0.0,0.0,0.0,0.0,0.0,0.0,0.0,0.0,0.0,0.0,0.0,0.0,0.0,0.0,0.0,0.0,0.0,0.0,0.0,0.0,5.561,5.6145,5.6515,5.6623,5.7241,5.7566,5.7481,5.7892,5.8142,5.8319,5.8051,5.7997,5.7997,5.7997,5.806,5.8103,5.8055,5.8908,6.0216,6.0114,6.1006,6.2368,6.1856,0.0,6.0696,6.0259,0.0,0.0,5.9834,6.0114,6.0325,5.9826,5.9238,0.0,0.0,0.0,5.7139,5.6834,5.7443,5.8241,5.8933,5.9514,6.0175,6.1185,6.1218,6.1119,6.1119,6.1119,6.1119,6.1119,6.1119,6.1002,6.0802,6.0717,6.0548,6.0239,5.9979,5.9822,5.9799,5.9681,5.9784,6.0076,6.0139,6.0456,6.1055,6.1277,6.1529,6.1877,6.2067,6.1671,6.0648,6.0187,5.9516,5.8692,5.7664,5.6964,5.6509,5.6509,5.6652,5.6993,5.6993,5.688,5.6623,5.6623,5.6509,5.6394,5.6193,5.5845,5.5379,5.4817,5.4341,5.4074,5.347,5.3349,5.3227,0.0,0.0,0.0,0.0,0.0,0.0,0.0,0.0,0.0,0.0,0.0,0.0,0.0,0.0,5.4767,5.4673,5.4736,5.4767,5.4673,5.4711,5.499,5.5573,5.6401,0.0,5.7676,5.846,5.8828,5.8619,5.8406,5.8319,5.8319,5.8051,5.7997,5.7997,5.7997,5.8344,5.8944,5.8799,5.9761,6.1272,6.1017,6.2,6.3401,0.0,0.0,0.0,0.0,0.0,0.0,0.0,0.0,6.0406,5.9663,5.8794,5.7943,0.0,0.0,0.0,5.6987,5.7165,5.769,5.9268,5.9663,6.0142,6.1781,6.1583,6.1119,6.1119,6.1119,6.1119,6.1119,6.1119,6.1119,6.1119,6.0919,6.0633,6.0378,6.0239,5.9892,5.9395,5.9274,5.9415,5.9691,5.9755,5.9947,6.0297,6.0992,6.1119,6.0423,6.1055,6.0729,5.9253,5.9742,5.9645,5.8789,5.8416,5.764,5.688,5.688,5.6993,5.7303,5.7303,5.7303,5.7303,5.7303,5.6964,5.6394,5.6394,5.6077,5.5379,5.4817,5.4341,5.4074,5.3713,5.3349,5.3132,0.0,0.0,0.0,0.0,0.0,0.0,0.0,0.0,0.0,0.0,0.0,0.0,0.0,5.4736,5.4705,5.4705,5.4705,5.4899,5.54,5.589,5.65,5.7187,5.8014,5.8503,5.8574,5.8835,5.8945,5.8865,5.8492,5.8406,5.8572,5.8179,5.829,5.8767,5.8217,5.8344,5.9018,5.8969,5.9784,6.1215,6.1725,6.2563,0.0,0.0,0.0,0.0,0.0,0.0,0.0,0.0,0.0,0.0,6.0132,5.965,5.9199,5.8734,5.8287,5.7775,5.7364,5.7033,5.7107,5.7854,5.8889,5.9828,6.0406,6.1234,6.1649,6.1218,6.1119,6.1119,6.1119,6.1119,6.1119,6.1119,6.075,6.0463,6.0378,5.9946,5.9508,5.9331,5.9152,5.9191,5.9266,5.9298,5.9402,5.9916,6.0107,6.0329,6.0297,6.055,6.0454,5.9912,5.9545,5.8981,5.8052,5.7892,5.7563,5.7191,5.7191,5.7191,5.7303,5.7303,5.7303,5.7303,5.7303,5.7191,5.6964,5.6766,5.6423,5.5961,5.5144,5.4699,5.4341,5.3592,5.3349,5.3349,0.0,0.0,0.0,5.184,0.0,5.3596,5.386,5.439,5.4799,5.4767,0.0,0.0,0.0,0.0,5.4736,5.4736,5.5001,5.5314,5.5785,5.6538,5.7218,5.7676,5.8464,5.8803,5.8689,5.8951,5.9101,5.9101,5.8661,5.8529,5.8698,5.8223,5.8437,5.9208,5.8657,5.8941,5.9871,5.9774,6.0441,6.1652,6.2453,0.0,6.3965,0.0,0.0,0.0,0.0,0.0,0.0,0.0,0.0,0.0,0.0,0.0,5.9558,5.897,5.8565,5.828,5.7775,5.7181,5.6834,5.7588,5.8297,5.9054,5.9894,6.0754,6.13,6.1152,6.1119,6.1119,6.1119,6.1119,6.1119,6.1119,6.075,6.0378,6.0378,5.9859,5.9419,5.9419,5.9363,5.9184,5.9062,5.9062,5.9196,5.9309,5.9564,5.9693,5.9602,5.9823,5.9949,5.9949,5.9471,5.8924,5.8475,5.8369,5.8077,5.7731,5.7651,5.743,5.7319,5.7319,5.7324,5.7303,5.7303,5.7303,5.7303,5.6851,5.6652,5.6279,5.5261,5.4817,5.4488,5.3619,5.3349,5.347,0.0,5.1831,5.2635,5.3526,5.3581,5.3815,5.4739,5.4829,5.4767,5.4742,0.0,0.0,0.0,0.0,0.0,5.4874,5.5555,5.595,5.586,5.6613,5.703,5.6962,5.7713,5.8164,5.8164,5.8915,5.929,5.929,5.8902,5.8735,5.8735,5.826,5.8474,5.9281,5.9281,6.0162,6.163,6.1295,6.1719,6.2676,0.0,6.4074,6.4694,0.0,0.0,0.0,6.2529,6.2382,0.0,0.0,0.0,0.0,0.0,0.0,0.0,5.8567,5.8426,5.8422,0.0,0.0,0.0,5.8403,5.7983,5.7838,6.0223,6.019,6.001,6.087,6.1119,6.1119,6.1119,6.1119,6.1119,6.1119,6.0666,6.0378,6.0378,5.9979,5.9716,5.9716,5.9716,5.9628,5.9331,5.9331,5.9152,5.8701,5.9278,5.9281,5.8398,5.8906,5.9286,5.9286,5.9286,5.9536,6.009,5.9787,5.9307,5.8475,5.8218,5.7791,5.7222,5.7222,5.7218,5.7274,5.7274,5.7274,5.7191,5.6623,5.6394,5.6279,5.5054,5.4607,5.4488,5.3833,5.3592,5.3592,5.2077,5.2731,5.3345,5.3543,5.4042,5.4503,5.473,5.4736,5.4931,0.0,0.0,0.0,0.0,5.5044,5.5195,5.6267,5.5973,5.6203,5.7441,5.771,5.805,5.8614,5.884,5.899,5.899,5.9178,5.929,5.929,5.9024,5.916,5.9589,5.9287,5.9799,6.0933,6.0933,6.152,6.2438,6.1551,6.1615,6.2437,6.3892,6.431,0.0,0.0,0.0,0.0,0.0,6.3064,6.3366,0.0,6.2329,6.1982,0.0,0.0,0.0,0.0,0.0,5.9149,5.8562,0.0,0.0,0.0,0.0,0.0,5.9086,6.0076,6.0937,6.0853,6.0919,6.1119,6.1119,6.1119,6.1002,6.0802,6.0548,6.0378,6.0378,5.9979,5.9716,5.9716,5.9716,5.9716,5.9628,5.9628,5.9419,5.9152,5.9164,5.9015,5.8518,5.8525,5.8559,5.8559,5.8559,5.8813,5.9377,5.9109,5.8848,5.8475,5.8218,5.7553,5.6437,5.6437,5.6573,5.6665,5.6665,5.6814,5.6993,5.688,5.6423,5.5729,5.5144,5.4552,5.4221,5.3713,5.3592,5.3592,5.2949,5.3602,5.4141,5.4073,5.4458,5.485,5.5189,5.5227,5.5497,0.0,0.0,0.0,0.0,5.5993,5.6003,5.6983,5.6804,5.7108,5.8086,5.8463,5.8802,5.929,5.929,5.929,5.929,5.929,5.929,5.929,5.9321,5.9566,5.9924,5.9907,6.0525,6.1594,6.1594,6.2034,6.2718,6.1989,6.1995,0.0,6.4201,0.0,0.0,6.5,6.5161,0.0,0.0,0.0,6.3474,6.3106,6.2586,0.0,0.0,0.0,0.0,0.0,0.0,0.0,0.0,0.0,5.8031,5.7701,0.0,0.0,5.9464,6.0211,6.0959,6.1781,6.2014,6.1832,6.1401,6.1434,6.145,6.0952,6.0548,6.0378,6.0325,5.9979,5.9716,5.9716,5.9716,5.9716,5.9716,5.9716,5.9628,5.9331,5.9152,5.8972,5.861,5.8518,5.8367,5.8274,5.8182,5.8499,5.9183,5.8727,5.8516,5.8512,5.8104,5.751,5.6497,5.6765,5.6847,5.6735,5.6887,5.6872,5.6652,5.6423,5.5961,5.5379,5.4908,5.4433,5.4074,5.3713,5.3592,5.3592,0.0,5.4368,5.4867,5.5004,5.495,5.512,5.5977,5.6128,5.6361,0.0,5.7239,5.7276,5.7389,5.7171,5.7099,5.7356,5.789,5.8198,5.8239,5.899,5.944,5.944,5.944,5.944,5.944,5.944,5.9403,5.9253,5.9797,6.0035,6.003,6.0397,6.1018,6.1741,6.1741,6.2144,6.2755,6.2552,6.25,6.2801,6.4323,6.4433,0.0,0.0,6.464,6.3804,6.3099,6.3115,6.3493,6.3596,6.3312,0.0,0.0,0.0,0.0,0.0,6.0078,0.0,0.0,0.0,0.0,5.8492,5.792,0.0,6.0342,6.0232,6.0367,6.2775,6.2965,6.2508,6.1628,6.18,6.1848,6.1135,6.075,6.0378,6.0152,5.9892,5.9716,5.9716,5.9716,5.9716,5.9716,5.9716,5.9628,5.9331,5.9331,5.9152,5.861,5.861,5.8518,5.8274,5.8089,5.8436,5.9318,5.8556,5.8363,5.8681,5.8102,5.748,5.688,5.7588,5.7633,5.7281,5.7651,5.7358,5.6623,5.5961,5.5496,5.5261,5.4433,5.4074,5.3954,5.3713,5.3592,5.3592,5.4655,5.4746,5.5025,5.57,5.5718,5.5956,5.6748,5.6866,5.7133,5.7997,5.8144,5.8408,0.0,5.7849,5.7554,5.8907,5.8461,5.8425,5.9174,5.9928,6.0342,6.0342,6.0342,6.0342,6.0342,6.0342,5.9928,5.9063,6.0516,6.1013,6.0654,6.1338,6.2008,6.2585,6.2585,6.2658,6.2805,6.2755,6.2805,6.2978,6.3768,0.0,6.3284,6.4339,6.4609,6.4302,6.3537,6.3615,6.3855,6.2871,6.2822,6.298,0.0,0.0,0.0,0.0,0.0,0.0,0.0,0.0,0.0,0.0,5.8456,0.0,5.8908,5.9001,5.905,5.9698,6.0398,6.0765,6.0388,6.0904,6.1168,6.0581,6.0886,6.0969,6.0378,5.9979,5.9716,5.9716,5.9716,5.9716,5.9716,5.9716,5.9716,5.9628,5.9419,5.9152,5.861,5.861,5.8518,5.8274,5.8274,5.8688,5.9724,5.8871,5.8612,5.9073,5.8221,5.748,5.698,5.7102,5.7493,5.7975,5.7988,5.8129,5.8085,5.6936,5.5817,5.4699,5.4314,5.3954,5.3713,5.3592,5.3592,5.3592,5.4799,5.4767,5.4887,5.5265,5.5654,5.6116,5.6945,5.7435,5.8,5.8829,5.8942,5.9093,0.0,0.0,5.8685,5.9963,5.9665,5.9553,6.0041,6.0417,6.0604,6.0604,6.0191,6.0342,6.1168,6.083,6.0452,6.0255,6.1487,6.1831,6.1422,6.2234,6.273,6.3002,6.2855,6.2855,6.2953,6.2805,6.3062,6.3566,6.387,0.0,6.3268,6.4261,6.4382,6.3975,6.353,6.3453,6.3429,6.2964,6.2694,0.0,0.0,6.2761,6.2845,0.0,6.1396,6.1502,0.0,0.0,0.0,5.9319,0.0,0.0,0.0,5.9604,5.9559,6.0342,6.065,6.0583,5.9977,6.0303,6.0473,6.0107,6.049,6.0787,6.0736,6.0685,6.0685,6.0685,6.06,6.0515,6.0515,6.0206,5.9979,5.9716,5.9628,5.9331,5.8792,5.8792,5.861,5.8274,5.8058,5.8217,5.8907,5.8086,5.7797,5.8138,5.7603,5.734,5.7381,5.7717,5.8085,5.8505,5.873,5.874,5.8525,5.7499,5.6394,5.5116,5.4433,5.3954,5.3592,5.3592,5.3592,5.3592,5.5126,5.5163,5.5201,5.5319,5.5856,5.6504,5.7294,5.8079,5.8792,5.9399,5.9512,0.0,0.0,0.0,0.0,0.0,6.0789,6.0716,6.068,6.0792,6.083,6.0604,5.9929,6.0266,6.1768,6.1168,6.1052,6.1487,6.2459,6.2612,6.2013,6.2825,6.3147,6.3099,6.3149,6.3149,6.3136,6.3051,6.3492,6.4254,0.0,6.4021,6.3807,6.4372,6.415,6.3558,6.341,6.321,6.3085,6.3182,6.284,6.2566,6.3257,6.3321,0.0,0.0,0.0,0.0,0.0,0.0,0.0,0.0,0.0,5.9184,0.0,0.0,0.0,6.1135,6.1034,6.0435,5.9598,5.9664,5.9646,5.9235,5.9628,6.017,6.049,6.0998,6.1341,6.1642,6.148,6.1317,6.1317,6.0853,6.0292,5.9892,5.9804,5.9628,5.9094,5.9004,5.8824,5.8274,5.7778,5.7652,5.7966,5.7208,5.6985,5.7205,5.692,5.7192,5.7993,5.8516,5.8991,5.924,5.9577,5.9469,5.8961,5.8085,5.7162,5.6337,5.488,5.3954,5.3592,5.3592,5.3592,5.3592,5.6643,5.6794,5.6952,5.7667,5.7822,5.8089,5.8915,5.9139,5.9289,5.9474,5.9545,0.0,0.0,0.0,0.0,0.0,0.0,0.0,6.1001,0.0,6.1615,6.0642,6.0529,6.0867,6.1768,6.1693,6.1616,6.1528,6.3019,6.3177,6.2013,6.2825,6.3051,6.2892,6.4002,6.3881,6.2892,6.4039,6.4605,0.0,6.4376,6.4535,0.0,6.472,6.4472,6.4192,6.3453,6.353,6.3709,0.0,6.313,6.3832,0.0,6.3387,6.4671,6.1807,0.0,0.0,0.0,0.0,0.0,0.0,5.9218,0.0,5.9081,0.0,5.859,5.8439,0.0,5.8858,5.8374,0.0,0.0,5.7609,5.8488,5.9239,5.8789,5.9352,6.0248,6.1508,6.148,6.1317,6.1317,6.1069,6.0769,6.0378,6.0292,6.0033,5.9331,5.9062,5.8792,5.8211,5.7965,5.7966,5.808,5.7394,5.7329,5.7752,5.7038,5.7438,5.867,5.8762,5.947,6.0567,6.0659,6.0586,6.0481,5.9315,5.8634,5.8136,5.5761,5.4405,5.3592,5.3592,5.3592,5.3592,5.6917,5.6544,5.6434,5.7334,5.7824,5.8239,5.8539,5.899,5.9365,5.9474,5.9926,0.0,0.0,0.0,0.0,0.0,0.0,6.1164,0.0,0.0,0.0,6.1432,6.0905,6.143,6.3195,6.2782,6.2703,6.2869,6.3705,6.3723,6.2946,6.3234,6.3373,6.3279,6.4253,6.4233,6.3437,6.4308,6.5031,0.0,0.0,6.494,0.0,6.4942,6.4214,6.3675,6.321,6.3369,6.3612,6.2636,6.2894,0.0,0.0,0.0,0.0,0.0,0.0,0.0,0.0,0.0,0.0,0.0,0.0,0.0,5.9013,0.0,5.8561,5.8171,0.0,0.0,0.0,0.0,0.0,0.0,5.8117,5.873,5.8927,5.9354,5.999,6.0985,6.0398,6.0303,6.1217,6.2044,6.2115,6.148,6.0778,6.012,5.9331,5.9062,5.8792,5.8211,5.784,5.762,5.7518,5.7174,5.6981,5.7192,5.6884,5.7254,5.8208,5.8608,5.9316,6.024,6.064,6.0794,6.0794,6.0167,5.9392,5.8466,5.7245,5.5905,5.4405,5.3833,5.3592,5.3592,5.7525,5.7037,5.6812,5.745,5.8051,5.8427,5.8427,5.8915,5.944,5.9776,0.0,0.0,6.1018,6.0938,0.0,0.0,0.0,6.1431,0.0,0.0,6.1713,6.248,6.1507,0.0,6.4367,6.3535,6.3378,6.4,6.4203,6.4079,6.3691,6.3691,6.3602,6.3548,6.448,6.4569,6.4091,6.4955,6.5752,6.6319,6.5264,6.546,6.6334,6.5064,6.4029,6.3242,6.3099,6.3319,6.3596,6.2688,6.2784,6.322,6.2911,6.2872,6.2731,0.0,0.0,0.0,6.0599,0.0,0.0,0.0,0.0,0.0,0.0,0.0,0.0,0.0,5.8099,0.0,0.0,0.0,5.701,5.6987,0.0,5.7953,5.8329,5.8552,5.912,6.0214,5.9531,5.9392,6.0536,6.1542,6.1829,6.145,6.0685,5.9977,5.9476,5.9331,5.8882,5.8211,5.7746,5.7401,5.7084,5.6923,5.6761,5.6761,5.6761,5.7131,5.7808,5.8485,5.9162,5.9839,6.0517,6.0794,6.0794,6.0481,5.9819,5.8931,5.8415,5.7162,5.5556,5.4405,5.3926,5.3954,5.9065,5.9215,5.9178,5.9215,5.9253,5.9253,5.9253,5.929,5.9591,6.0454,0.0,0.0,0.0,0.0,0.0,0.0,0.0,6.2337,6.2919,0.0,6.3009,0.0,0.0,6.2824,0.0,6.3615,6.3496,6.4284,6.4284,6.4125,6.3878,6.3878,6.3654,6.3279,6.4818,6.516,6.477,6.6281,6.7051,6.7127,6.665,6.6343,6.6118,6.489,6.3992,6.3382,6.3242,6.3518,6.3819,6.2793,6.2838,6.3221,6.2314,6.2549,6.2964,6.1831,0.0,0.0,6.1116,6.0574,6.0297,5.9879,0.0,0.0,0.0,0.0,5.8875,0.0,0.0,5.8027,5.7662,5.7289,5.6678,5.5828,5.6095,0.0,0.0,5.6072,5.6882,5.953,5.9276,5.8833,5.869,5.8527,5.8708,5.9564,5.963,5.976,5.9968,5.9739,5.9209,5.8211,5.7746,5.7401,5.7084,5.6923,5.6761,5.6761,5.6761,5.7131,5.7808,5.8485,5.9162,5.9839,6.0517,6.0794,6.0794,6.0481,6.0167,5.988,5.8664,5.7974,5.7387,5.5673,5.497,5.488,5.914,5.929,5.9327,0.0,0.0,5.929,5.929,5.9778,6.0341,0.0,0.0,0.0,0.0,0.0,6.268,0.0,0.0,6.2247,6.3012,6.2815,0.0,0.0,0.0,6.3464,0.0,6.4219,6.4063,6.4284,6.4284,6.4244,6.4125,6.4,6.3742,6.3548,6.5464,6.5895,6.5282,6.7043,6.7959,6.8148,6.7642,6.6924,6.6118,6.5977,6.5509,6.4905,6.4659,6.4971,6.5327,6.4453,6.4602,6.484,6.3385,6.3002,6.2851,6.1795,6.1588,6.1533,6.1105,6.1807,6.222,6.0445,6.0844,6.1235,5.9424,0.0,0.0,0.0,0.0,0.0,5.8137,5.7628,5.7039,5.6578,5.6591,5.6525,0.0,5.6244,5.625,5.7028,5.8237,5.88,5.8396,6.0658,6.2076,6.1877,6.2784,6.2662,6.1291,6.0913,5.9984,5.8058,5.7684,5.7306,5.6954,5.6858,5.6761,5.6761,5.6761,5.7131,5.7808,5.8485,5.9162,5.9839,6.0517,6.0794,6.0794,6.069,6.0407,6.0016,5.956,5.9099,5.8415,5.6594,5.5933,5.5817,5.9215,5.929,5.9327,0.0,0.0,5.9403,5.9703,6.0341,0.0,0.0,6.2845,0.0,6.3758,0.0,6.335,0.0,6.2885,6.2695,6.3552,6.336,0.0,6.4985,6.4343,0.0,0.0,6.5238,6.4857,6.4817,6.4738,6.4585,6.4284,6.4125,6.4102,6.422,6.5619,6.6357,6.6513,6.8107,6.883,6.8821,6.8258,6.7551,6.6874,6.7172,6.6542,6.552,6.5404,6.5579,6.5803,6.5327,6.5421,6.5442,6.4366,6.3821,6.3434,6.2779,6.2227,6.1875,6.1817,6.2377,6.2605,6.0883,6.1317,6.1714,5.9892,5.9485,5.9485,0.0,0.0,0.0,0.0,5.7848,5.7289,5.7139,5.6911,5.668,0.0,5.6244,5.6006,5.5685,5.6759,5.7723,5.833,5.9804,6.1006,6.1776,6.2797,6.2757,6.148,6.1541,6.0837,5.9111,5.8059,5.7401,5.7019,5.6858,5.6761,5.6761,5.7008,5.7346,5.7808,5.8731,5.9378,5.9839,6.0517,6.0794,6.0794,6.0794,6.0512,6.0016,6.0016,5.9667,5.8882,5.7416,5.6623,5.6164,5.929,5.929,0.0,0.0,5.9328,0.0,0.0,0.0,6.164,0.0,6.366,6.3899,6.3899,6.4114,6.3886,6.3121,6.3233,0.0,6.4526,6.4392,0.0,0.0,6.5639,6.5851,6.7616,6.6406,6.5766,6.5804,6.557,6.5073,6.4359,6.4322,6.4612,6.5185,6.5478,6.6548,6.8256,6.9398,6.9621,6.9108,6.8641,6.8371,6.8161,6.8381,6.7136,6.5338,6.5529,6.5515,6.5411,6.5411,6.5307,6.5201,6.5164,6.4931,6.462,6.4584,6.3928,6.3237,6.3104,6.2356,6.1537,6.1152,6.0974,6.0793,6.0388,6.0325,6.0199,5.9908,5.9418,5.9047,0.0,5.8027,5.7398,5.7289,5.6987,5.6525,5.6165,5.6053,5.5894,5.5491,5.5246,5.5977,5.8214,5.6136,5.6034,5.9416,5.9942,6.0306,6.0986,6.1733,6.1811,6.1088,5.8804,5.7621,5.759,5.705,5.6889,5.6823,5.7469,5.7808,5.79,5.9193,5.9809,5.987,6.0517,6.0794,6.0794,6.0794,6.0512,6.0016,6.0016,5.9667,5.8991,5.8055,5.7049,5.6049,5.929,5.929,5.9515,0.0,5.9852,5.9585,0.0,0.0,0.0,0.0,6.4169,6.512,6.5329,6.4833,6.4667,6.509,6.4603,0.0,0.0,0.0,0.0,6.5915,6.5436,6.5384,6.5862,6.541,6.535,6.5804,6.5045,6.4853,6.5185,6.4585,6.4612,6.5223,6.6078,6.703,6.8053,6.9124,6.9625,6.9624,6.9436,6.9162,6.8871,6.8959,6.8278,6.7303,6.7169,6.7116,6.7063,6.7063,6.7063,6.69,6.6206,6.5825,6.5514,6.4821,6.4327,6.407,6.4049,6.3868,6.3372,6.2354,6.2093,6.1771,6.0706,6.0352,6.0388,6.0477,6.0621,6.0377,5.9488,5.908,5.8569,5.7506,5.6987,5.6603,5.6402,5.5673,5.5418,5.562,5.5069,5.494,5.573,5.6644,5.8314,6.0993,6.0932,6.2058,6.4948,6.3329,6.2082,6.1521,6.0485,5.9298,5.8026,5.737,5.717,5.7531,5.7685,5.83,5.9285,5.9624,6.0055,6.0547,6.0732,6.0794,6.0794,6.0794,6.0586,6.0302,6.0092,5.9667,5.8991,5.8555,5.8085,5.7528,5.94,0.0,0.0,6.0454,0.0,0.0,6.1125,6.2205,0.0,6.3795,6.492,0.0,6.5256,6.5193,6.5154,6.5244,6.5102,0.0,6.5635,0.0,0.0,6.5494,6.5383,6.5442,6.5848,6.566,0.0,6.5918,6.5312,6.5007,6.496,6.4885,6.522,6.5956,6.6908,6.7823,6.8659,6.985,7.0384,7.0384,7.046,7.008,0.0,6.9378,6.9034,6.8442,6.8084,6.781,6.7687,6.7687,6.7687,6.7614,6.7083,6.672,6.6445,6.5859,6.5327,6.4903,6.4903,6.4649,6.423,6.3531,6.3365,6.3105,6.2284,6.1996,6.1768,6.1568,6.1388,6.1014,6.0048,5.9561,5.8866,5.7621,5.6987,5.6603,5.6447,5.6161,5.5907,5.5814,5.5567,5.523,5.4915,5.6007,5.756,5.9794,5.9696,6.0357,6.2278,6.1932,6.1534,6.1315,6.0663,5.9887,5.8818,5.824,5.8248,5.8781,5.8709,5.9259,6.0284,6.029,6.0424,6.0794,6.0794,6.0794,6.0794,6.0794,6.0586,6.0377,5.9955,5.9529,5.9207,5.8664,5.8335,5.8085,5.9616,0.0,0.0,0.0,0.0,0.0,0.0,6.3702,0.0,6.5146,0.0,6.5498,6.4676,6.5279,6.546,6.4611,0.0,6.558,6.5494,6.5609,6.558,6.5413,6.5528,6.5872,6.6522,6.6363,6.6197,0.0,6.5804,6.5272,6.4622,6.5223,6.6011,6.6988,6.7701,6.8617,6.973,7.0726,7.1142,7.1143,7.1327,7.0796,6.9891,6.9622,6.9419,6.9122,6.849,6.8033,6.7741,6.7741,6.7687,6.7687,6.7687,6.7433,6.721,6.721,6.651,6.5772,6.5772,6.5156,6.4541,6.4541,6.4468,6.4339,6.426,6.405,6.3621,6.2821,6.2302,6.1687,6.0783,5.9927,5.9081,5.8128,5.7607,5.7372,5.7143,5.7532,5.7499,5.6422,5.6713,0.0,5.5621,5.5095,5.5693,5.7836,5.7604,5.7586,5.8092,5.9843,6.092,6.1103,6.0633,6.0087,5.9762,5.9411,5.9531,6.0092,6.0012,6.0352,6.1137,6.0927,6.0794,6.0794,6.0794,6.0794,6.0794,6.0794,6.0586,6.0272,5.9743,5.9529,5.9315,5.8555,5.8195,5.8195,5.9581,0.0,0.0,0.0,0.0,6.3554,6.4704,6.4535,6.4364,6.4545,6.5279,6.5755,6.5575,6.5624,6.5569,6.5416,6.5531,0.0,0.0,0.0,0.0,6.5413,6.6101,6.6216,6.5643,6.555,6.566,6.6101,6.5311,6.5426,6.6349,6.5786,6.6312,6.7814,6.7926,6.8955,7.052,7.0035,7.0306,7.1029,7.0497,7.0118,6.9891,6.9891,6.9661,6.9214,6.8817,6.8431,6.8004,6.7794,6.7687,6.7687,6.7687,6.7433,6.721,6.721,6.691,6.6605,6.6605,6.5989,6.5374,6.5374,6.4867,6.4339,6.413,6.4014,6.3801,6.3574,6.3954,6.3921,6.2534,6.1831,6.1115,6.0013,6.0531,6.105,6.0981,6.1183,6.0736,5.9208,5.9356,5.9145,5.806,5.6027,5.6302,5.9785,5.7608,5.8643,6.4239,6.2674,6.2119,6.343,6.2838,6.1883,6.045,5.9849,5.9967,6.0796,6.0234,6.0603,6.1828,6.1144,6.0794,6.0794,6.0794,6.0794,6.0794,6.0794,6.0512,6.0092,5.9986,5.956,5.9099,5.8773,5.8445,5.8085,0.0,0.0,0.0,0.0,0.0,0.0,6.5192,6.5245,6.5087,6.5033,6.5405,6.5674,6.559,6.559,6.5523,6.5494,6.5494,6.5465,6.5435,6.6277,6.6552,6.6101,6.6865,6.7133,6.6713,6.6681,6.6712,6.6818,6.5912,6.5918,6.6808,6.6391,6.6838,6.8039,6.9031,6.9721,7.0183,7.0837,7.0953,7.0573,7.0791,7.0566,7.0041,7.0114,6.9854,6.946,6.9171,6.8817,6.848,6.7863,6.7794,6.7899,6.7899,6.781,6.7684,6.756,6.7286,6.7097,6.6961,6.6555,6.6207,6.6207,6.5917,6.5627,6.5706,6.5591,6.5424,6.5048,6.5032,6.471,6.3431,6.2514,6.211,6.2528,6.2305,6.2481,6.3577,6.4064,6.3654,6.1873,6.2099,6.1387,5.8829,5.7476,5.7516,5.9372,5.733,5.7706,6.1501,6.1127,6.1127,6.1929,6.2493,6.2253,6.1317,6.0903,6.1041,6.1741,6.1322,6.1596,6.262,6.2193,6.1784,6.141,6.141,6.1206,6.0794,6.0794,6.0586,6.0407,6.0092,5.9773,5.9452,5.8912,5.8445,5.8085,0.0,6.2538,0.0,0.0,6.4045,6.4611,6.5379,6.5646,6.5701,6.5674,6.5608,6.5523,6.5405,6.5435,6.5512,6.5643,6.5681,6.5757,6.591,6.6751,6.7171,6.698,6.7744,6.8088,6.7897,6.7897,6.7769,6.7531,6.6777,6.656,6.693,6.7033,6.7518,6.8387,6.9834,7.03,7.0001,7.1521,7.1477,7.0484,7.1154,7.093,7.0185,7.0185,7.0004,6.9699,6.9382,6.9171,6.8945,6.8134,6.8018,6.8171,6.8171,6.8185,6.8148,6.7945,6.7684,6.7506,6.7266,6.7154,6.704,6.704,6.704,6.704,6.7266,6.721,6.6972,6.65,6.6022,6.5344,6.4291,6.3502,6.3466,6.4627,6.3974,6.3886,6.5525,6.6342,6.6102,6.451,6.4572,6.3577,6.0699,5.9287,5.8824,5.9464,5.779,5.7362,5.856,5.9794,6.0484,6.0484,6.1728,6.2268,6.1997,6.1837,6.1996,6.2516,6.2235,6.2509,6.3166,6.3099,6.2744,6.2184,6.2116,6.1512,6.0794,6.0794,6.0794,6.069,6.0197,5.9986,5.9773,5.9129,5.8664,5.8335,0.0,0.0,0.0,6.4016,6.4756,6.5417,6.5494,6.5552,6.5674,6.5767,6.5618,6.5494,6.5494,6.5435,6.5719,6.6522,6.6598,6.6904,6.763,6.847,6.8623,6.7821,6.8623,6.8699,6.7897,6.7897,6.7801,6.7597,6.7455,6.7276,6.7086,6.7758,6.8512,6.9347,6.9539,7.0231,7.1178,7.0604,7.0823,7.1455,7.0801,7.0396,7.0185,7.0185,7.0077,6.9853,6.946,6.9251,6.9122,6.8633,6.848,6.8468,6.8468,6.8334,6.8198,6.8198,6.8047,6.7945,6.7893,6.7893,6.7893,6.7893,6.7789,6.7684,6.7614,6.7451,6.7305,6.7084,6.6935,6.6604,6.5518,6.6203,6.6515,6.5416,6.6235,6.7028,6.7024,6.7664,6.783,6.714,6.6306,6.5976,6.655,6.1919,5.9933,6.2535,6.0225,5.9731,6.2353,6.229,6.2201,6.2201,6.2347,6.2268,6.1997,6.1997,6.2125,6.2516,6.2377,6.2656,6.3166,6.3099,6.3004,6.2939,6.2284,6.1512,6.0794,6.0794,6.069,6.0481,6.0377,6.0061,5.9529,5.9422,5.9099,5.8664,6.4245,6.4596,6.4787,6.4938,6.5206,6.5465,6.5552,6.5552,6.5743,6.6308,6.6327,6.623,6.6238,6.6629,6.7018,6.74,6.74,6.7553,6.7859,6.8699,6.9043,6.8699,6.9464,6.9769,6.9425,6.9387,6.9322,6.9188,6.8593,6.8412,6.8677,6.8977,6.9584,7.0457,7.0574,7.0649,7.0642,7.0934,7.1002,7.0877,7.0533,7.0319,7.0185,7.0185,7.0041,6.9777,6.9699,6.9539,6.9289,6.9246,6.8945,6.867,6.867,6.8717,6.8763,6.8586,6.8442,6.8346,6.8148,6.8047,6.7996,6.7893,6.7841,6.7826,6.7878,6.7863,6.7863,6.793,6.793,6.7663,6.6792,6.672,6.6809,6.6938,6.6919,6.73,6.852,6.8941,6.8636,6.736,6.6858,6.6306,6.5484,6.1639,6.0134,6.2465,5.9388,5.8198,5.9998,6.13,6.1682,6.0959,6.255,6.3057,6.2268,6.2076,6.2206,6.2682,6.296,6.3429,6.3923,6.4342,6.4268,6.38,6.3036,6.245,6.2153,6.2085,6.1714,6.1308,6.0969,6.0481,5.9773,5.9529,5.9207,5.8694,6.5291,6.5413,6.5413,6.5494,6.5465,6.5435,6.5552,6.5523,6.5771,6.6651,6.6995,6.7118,6.7056,6.7553,6.8012,6.8241,6.8279,6.8394,6.8623,6.9196,6.954,6.954,7.0113,7.0419,7.0419,7.0419,7.0386,7.0319,6.9611,6.9319,6.9475,6.9398,6.9891,7.0839,7.095,7.0715,7.0217,7.1002,7.0954,7.0419,7.0386,7.0286,7.0185,7.0149,6.9966,6.9777,6.9891,6.9699,6.9498,6.9577,6.9332,6.899,6.8945,6.9072,6.916,6.8945,6.8855,6.8763,6.8538,6.8394,6.8346,6.8247,6.8185,6.8134,6.8272,6.8272,6.8259,6.8457,6.8506,6.8284,6.7426,6.7095,6.7037,6.7458,6.7001,6.7001,6.8416,6.8343,6.7915,6.7287,6.6676,6.6125,6.5705,6.2842,6.171,6.338,6.0317,5.8734,5.9444,6.0679,6.124,6.1207,6.2764,6.3203,6.2381,6.2189,6.2401,6.293,6.3417,6.3981,6.4486,6.5094,6.5033,6.4268,6.3705,6.3324,6.3036,6.2873,6.2513,6.2085,6.1683,6.1175,6.0512,6.0167,5.9606,5.9099,6.5494,6.5494,6.5523,6.558,6.5552,6.5494,6.5494,6.5435,6.5719,6.6598,6.74,6.7897,6.7897,6.7897,6.8241,6.912,6.9196,6.9502,7.0342,7.0381,7.0381,7.0381,7.0381,7.0419,7.0419,7.0419,7.0419,7.0419,7.0319,6.9832,6.8891,6.8713,6.9169,7.0109,7.0109,7.0213,7.0419,7.0419,7.0419,7.0419,7.0319,7.0255,7.0185,7.0039,6.9929,6.9891,6.9891,6.9777,6.9699,6.9617,6.9495,6.9374,6.9246,6.9203,6.9203,6.9203,6.9203,6.9203,6.916,6.916,6.916,6.916,6.902,6.8921,6.8921,6.8697,6.8506,6.8506,6.8506,6.8234,6.7272,6.7654,6.7709,6.6426,6.637,6.637,6.6099,6.5204,6.5277,6.7177,6.5574,6.5699,6.9063,6.6594,6.5212,6.6429,6.4218,6.2753,6.2634,6.1177,6.148,6.4025,6.2989,6.2381,6.2381,6.2381,6.2674,6.3208,6.3667,6.4152,6.4714,6.515,6.5033,6.4268,6.4268,6.3705,6.2808,6.2808,6.258,6.2383,6.2383,6.2184,6.1916,6.1379,6.0835,6.0211,6.5552,6.5523,6.5494,6.5523,6.5465,6.5405,6.5405,6.5941,6.6598,6.74,6.8241,6.9005,6.954,6.9616,6.9731,6.9999,7.0037,7.0151,7.0381,7.0419,7.0419,7.0419,7.0419,7.0419,7.0419,7.0419,7.0419,7.0419,7.0319,7.0476,7.0747,6.9959,7.0185,7.1154,7.0548,7.0315,7.0419,7.0419,7.0419,7.0419,7.0319,7.0255,7.0185,7.0039,6.9891,6.9777,6.9891,6.9737,6.9498,6.9577,6.9453,6.9246,6.9203,6.9203,6.9203,6.9203,6.9203,6.9203,6.9203,6.9203,6.916,6.9072,6.8975,6.8875,6.8744,6.8602,6.8506,6.8506,6.8506,6.8197,6.7272,6.7704,6.7714,6.5992,6.5772,6.572,6.5563,6.5238,6.5094,6.5258,6.5185,6.5836,6.7684,6.5054,6.3866,6.5533,6.1774,6.0317,6.2319,6.2605,6.2618,6.2459,6.3469,6.3512,6.2615,6.2615,6.3103,6.416,6.3985,6.4333,6.515,6.5293,6.5213,6.5033,6.5033,6.4852,6.4577,6.4207,6.3832,6.342,6.3068,6.258,6.2016,6.1582,6.0969,6.0211,6.5523,6.5494,6.5465,6.5465,6.5405,6.5413,6.5413,6.6139,6.698,6.7782,6.8661,6.9502,7.0304,7.0419,7.0419,7.0419,7.0419,7.0419,7.0419,7.0419,7.0419,7.0419,7.0419,7.0419,7.0419,7.0419,7.0419,7.0419,7.0353,7.0625,7.1121,7.0514,7.0586,7.1183,7.0648,7.0419,7.0419,7.0419,7.0419,7.0386,7.0286,7.022,7.0185,7.0003,6.9891,6.9777,6.9891,6.9699,6.9498,6.9577,6.9453,6.9246,6.9203,6.9203,6.9203,6.9203,6.9203,6.9203,6.9203,6.9203,6.916,6.9116,6.8975,6.8875,6.865,6.8554,6.8506,6.8506,6.8506,6.8234,6.7369,6.7753,6.7852,6.6321,6.5999,6.5897,6.5845,6.5485,6.5164,6.4855,6.527,6.5944,6.6935,6.5646,6.5248,6.6366,6.365,6.2606,6.4381,6.2779,6.2167,6.2809,6.3623,6.3597,6.2727,6.2965,6.3634,6.4613,6.4657,6.4967,6.5514,6.5425,6.5425,6.5425,6.5425,6.5336,6.5246,6.4885,6.4393,6.402,6.3675,6.3196,6.271,6.2184,6.1683,6.1041,6.5413,6.5413,6.5413,6.5413,6.5413,6.5413,6.549,6.6216,6.7056,6.7859,6.8738,6.9578,7.0342,7.0419,7.0419,7.0419,7.0419,7.0419,7.0419,7.0419,7.0419,7.0419,7.0419,7.0419,7.0419,7.0419,7.0419,7.0419,7.0419,7.0419,7.0419,7.0419,7.0419,7.0419,7.0419,7.0419,7.0419,7.0419,7.0419,7.0386,7.0255,7.0185,7.0185,6.9967,6.9891,6.9891,6.9891,6.9777,6.9699,6.9617,6.9495,6.9332,6.9246,6.9203,6.9203,6.9203,6.9203,6.9203,6.9203,6.9203,6.9203,6.9203,6.9065,6.8828,6.8554,6.8506,6.8506,6.8506,6.8506,6.8246,6.7465,6.7888,6.8049,6.7235,6.6888,6.6684,6.6684,6.5956,6.5474,6.575,6.5803,6.6131,6.6895,6.7907,6.855,6.8475,6.8404,6.8211,6.7838,6.2077,6.0595,6.4559,6.3604,6.2923,6.2693,6.3441,6.4109,6.4681,6.5597,6.6009,6.578,6.5514,6.5425,6.5425,6.5425,6.5246,6.5099,6.4793,6.461,6.4333,6.4085,6.4024,6.3929,6.3099,6.2678,6.2284,6.5413,6.5413,6.5413,6.5413,6.5413,6.5605,6.6292,6.7095,6.7935,6.8776,6.9616,7.019,7.0381,7.0419,7.0419,7.0419,7.0419,7.0419,7.0419,7.0419,7.0419,7.0419,7.0419,7.0419,7.0419,7.0419,7.0419,7.0419,7.0419,7.0419,7.0419,7.0419,7.0419,7.0419,7.0419,7.0419,7.0419,7.0419,7.0419,7.0419,7.0286,7.0255,7.0185,7.0003,6.9929,6.9891,6.9777,6.9659,6.9617,6.9495,6.9332,6.9246,6.9203,6.9203,6.9203,6.9203,6.9203,6.9203,6.9203,6.9203,6.9203,6.9203,6.9065,6.8828,6.8554,6.8506,6.8506,6.8506,6.8506,6.8246,6.7465,6.7937,6.8148,6.7235,6.6938,6.6837,6.6684,6.6434,6.6239,6.6279,6.6829,6.7268,6.7488,6.778,6.7689,6.7201,6.5909,6.5411,6.5966,6.2922,6.2289,6.4634,6.3905,6.3377,6.3152,6.3751,6.4381,6.521,6.5832,6.6009,6.578,6.5514,6.5425,6.5425,6.5425,6.5336,6.5336,6.4885,6.4702,6.461,6.4179,6.4024,6.3929,6.3612,6.3099,6.2612,6.5413,6.5413,6.5413,6.5413,6.5413,6.5681,6.656,6.7362,6.8203,6.9082,6.9922,7.0419,7.0419,7.0419,7.0419,7.0419,7.0419,7.0419,7.0419,7.0419,7.0419,7.0419,7.0419,7.0419,7.0419,7.0419,7.0419,7.0419,7.0419,7.0419,7.0419,7.0419,7.0419,7.0419,7.0419,7.0419,7.0419,7.0419,7.0419,7.0419,7.0319,7.0289,7.0255,7.0149,7.0077,7.0004,6.9891,6.9777,6.9697,6.9536,6.9411,6.9289,6.9203,6.9203,6.9203,6.9203,6.9203,6.9203,6.9203,6.9203,6.916,6.9109,6.8975,6.8828,6.8554,6.8506,6.8506,6.8506,6.8506,6.8394,6.7948,6.8208,6.8308,6.7814,6.7592,6.7442,6.734,6.7185,6.7026,6.7026,6.743,6.7687,6.7687,6.7687,6.7542,6.7174,6.5994,6.5438,6.5815,6.438,6.3833,6.4558,6.3954,6.3526,6.3302,6.4093,6.4992,6.607,6.6186,6.6129,6.5955,6.5692,6.5514,6.5425,6.5425,6.5425,6.5336,6.4976,6.4885,6.4826,6.4458,6.4365,6.4272,6.4053,6.3675,6.3293,6.5413,6.5413,6.5413,6.5413,6.5528,6.5872,6.6751,6.7553,6.8394,6.9273,6.9999,7.0419,7.0419,7.0419,7.0419,7.0419,7.0419,7.0419,7.0419,7.0419,7.0419,7.0419,7.0419,7.0419,7.0419,7.0419,7.0419,7.0419,7.0419,7.0419,7.0419,7.0419,7.0419,7.0419,7.0419,7.0419,7.0419,7.0419,7.0419,7.0419,7.0319,7.0286,7.0286,7.022,7.0185,7.0185,7.0039,6.9967,6.9853,6.9657,6.9495,6.9374,6.9246,6.9203,6.9203,6.9203,6.9203,6.9203,6.9203,6.9203,6.9116,6.8975,6.8921,6.8875,6.8554,6.8506,6.8506,6.8506,6.8506,6.8506,6.8506,6.8506,6.8506,6.8506,6.8148,6.7871,6.807,6.7736,6.7486,6.7687,6.7687,6.7687,6.7687,6.7687,6.7687,6.7687,6.7117,6.6736,6.6523,6.5914,6.5207,6.4671,6.4074,6.3781,6.3624,6.4478,6.5481,6.6727,6.6508,6.6287,6.6095,6.5867,6.5692,6.5425,6.5425,6.5425,6.5425,6.5189,6.5099,6.5099,6.4793,6.4702,6.4702,6.4393,6.424,6.4053,6.5413,6.5413,6.5413,6.5413,6.6025,6.6789,6.7591,6.8432,6.9273,7.0113,7.0342,7.0419,7.0419,7.0419,7.0419,7.0419,7.0419,7.0419,7.0419,7.0419,7.0419,7.0419,7.0419,7.0419,7.0419,7.0419,7.0419,7.0419,7.0419,7.0419,7.0419,7.0419,7.0419,7.0419,7.0419,7.0419,7.0419,7.0419,7.0419,7.0419,7.0386,7.0353,7.0324,7.0289,7.0255,7.0149,7.0004,6.9891,6.9853,6.9536,6.9453,6.9374,6.9246,6.9246,6.9332,6.9203,6.9289,6.9332,6.9203,6.9203,6.916,6.9027,6.8929,6.8875,6.8697,6.8554,6.8506,6.8506,6.8506,6.8506,6.8506,6.8506,6.8506,6.8506,6.7377,6.6859,6.7945,6.6919,6.65,6.756,6.7687,6.7687,6.7687,6.7687,6.7687,6.7687,6.7524,6.7266,6.7061,6.644,6.5949,6.5732,6.5043,6.4813,6.5122,6.4853,6.5293,6.6599,6.5865,6.5783,6.6095,6.5867,6.5692,6.5425,6.5425,6.5425,6.5425,6.5189,6.5099,6.5099,6.4793,6.4702,6.4702,6.4702,6.461,6.4518,6.5413,6.5413,6.5413,6.5413,6.6139,6.698,6.7782,6.8623,6.9502,7.0304,7.0419,7.0419,7.0419,7.0419,7.0419,7.0419,7.0419,7.0419,7.0419,7.0419,7.0419,7.0419,7.0419,7.0419,7.0419,7.0419,7.0419,7.0419,7.0419,7.0419,7.0419,7.0419,7.0419,7.0419,7.0419,7.0419,7.0419,7.0419,7.0419,7.0419,7.0419,7.0386,7.0353,7.0353,7.0319,7.0324,7.0114,7.0041,7.0004,6.9659,6.9579,6.9539,6.9453,6.9453,6.9495,6.9453,6.9369,6.9289,6.9203,6.9203,6.916,6.9027,6.8975,6.8875,6.8697,6.8602,6.8506,6.8506,6.8506,6.8506,6.8506,6.8506,6.8506,6.8506,6.7839,6.7524,6.8033,6.7426,6.7139,6.765,6.7687,6.7687,6.7687,6.7687,6.7687,6.7687,6.7633,6.7524,6.7359,6.6946,6.6655,6.6452,6.5474,6.516,6.5619,6.5297,6.5619,6.6745,6.6428,6.6316,6.644,6.6302,6.5955,6.5603,6.5425,6.5425,6.5425,6.5336,6.5246,6.5246,6.5156,6.5066,6.5066,6.5066,6.4976,6.4918,6.5413,6.5413,6.5413,6.5413,6.6292,6.7171,6.7821,6.8814,6.9693,7.0342,7.0419,7.0419,7.0419,7.0419,7.0419,7.0419,7.0419,7.0419,7.0419,7.0419,7.0419,7.0419,7.0419,7.0419,7.0419,7.0419,7.0419,7.0419,7.0419,7.0419,7.0419,7.0419,7.0419,7.0419,7.0419,7.0419,7.0419,7.0419,7.0419,7.0419,7.0419,7.0419,7.0419,7.0419,7.0419,7.0386,7.0289,7.022,7.0149,6.9854,6.9738,6.9699,6.9617,6.9617,6.9617,6.9577,6.9453,6.9246,6.9203,6.9203,6.916,6.9072,6.8983,6.8884,6.8744,6.865,6.8506,6.8506,6.8357,6.8283,6.8468,6.8357,6.8283,6.8468,6.8124,6.7899,6.807,6.7715,6.752,6.765,6.7687,6.7687,6.7687,6.7687,6.7687,6.7687,6.7687,6.7633,6.7506,6.7322,6.7097,6.6786,6.5732,6.5326,6.579,6.5689,6.6066,6.6976,6.6996,6.7089,6.7112,6.7029,6.6694,6.6182,6.5834,6.5658,6.5658,6.5481,6.5425,6.5425,6.5425,6.5425,6.5425,6.5425,6.5336,6.5099,6.5413,6.5413,6.5413,6.5413,6.6751,6.7821,6.7897,6.9273,7.0342,7.0381,7.0419,7.0419,7.0419,7.0419,7.0419,7.0419,7.0419,7.0419,7.0419,7.0419,7.0419,7.0419,7.0419,7.0419,7.0419,7.0419,7.0419,7.0419,7.0419,7.0419,7.0419,7.0419,7.0419,7.0419,7.0419,7.0419,7.0419,7.0419,7.0419,7.0419,7.0419,7.0419,7.0419,7.0419,7.0419,7.0386,7.0319,7.0255,7.0149,6.9967,6.9777,6.9699,6.9617,6.9657,6.9659,6.9617,6.9577,6.9536,6.9246,6.9203,6.9203,6.916,6.9072,6.8983,6.8884,6.8744,6.865,6.8506,6.7911,6.7614,6.8357,6.7911,6.7651,6.8394,6.7405,6.689,6.7959,6.699,6.65,6.7577,6.7687,6.7687,6.7687,6.7687,6.7687,6.7687,6.7687,6.7633,6.7506,6.7322,6.7097,6.6786,6.6207,6.5958,6.5967,6.599,6.6426,6.7165,6.7361,6.7718,6.8172,6.8172,6.7935,6.7501,6.6844,6.6457,6.632,6.5658,6.5425,6.5425,6.5425,6.5425,6.5425,6.5425,6.5425,6.5336,6.5413,6.5413,6.5413,6.5413,6.6789,6.7897,6.7897,6.9381,7.0483,7.0419,7.0451,7.0483,7.0419,7.0419,7.0419,7.0419,7.0419,7.0419,7.0419,7.0419,7.0419,7.0419,7.0419,7.0419,7.0419,7.0419,7.0419,7.0419,7.0419,7.0419,7.0419,7.0419,7.0419,7.0419,7.0419,7.0419,7.0419,7.0419,7.0419,7.0419,7.0419,7.0419,7.0419,7.0419,7.0419,7.0386,7.0319,7.0289,7.0255,7.0003,6.9929,6.9891,6.9815,6.9815,6.9777,6.9659,6.9659,6.962,6.9495,6.9453,6.9453,6.9332,6.9203,6.9116,6.8983,6.8838,6.8697,6.8602,6.8331,6.8134,6.8468,6.8246,6.8134,6.8468,6.8062,6.7802,6.8033,6.7657,6.739,6.765,6.7687,6.7687,6.7687,6.7687,6.7687,6.7687,6.7687,6.7687,6.7633,6.7322,6.7097,6.6786,6.6452,6.6269,6.6207,6.6582,6.6972,6.7445,6.7975,6.8425,6.8746,6.8559,6.825,6.7856,6.7501,6.7209,6.6995,6.6745,6.666,6.6576,6.6148,6.5975,6.5975,6.557,6.5425,6.5336,6.5413,6.5413,6.5413,6.5413,6.6789,6.7897,6.7967,6.9482,7.0554,7.0451,7.0554,7.0554,7.0419,7.0419,7.0419,7.0419,7.0419,7.0419,7.0419,7.0419,7.0419,7.0419,7.0419,7.0419,7.0419,7.0419,7.0419,7.0419,7.0419,7.0419,7.0419,7.0419,7.0419,7.0419,7.0419,7.0419,7.0419,7.0419,7.0419,7.0419,7.0419,7.0419,7.0419,7.0419,7.0419,7.0419,7.0353,7.0319,7.0251,7.0147,7.0039,7.0003,6.9967,6.9929,6.9891,6.9777,6.9738,6.9738,6.9697,6.9697,6.9657,6.9453,6.9332,6.9203,6.9072,6.8884,6.8744,6.8697,6.8416,6.8208,6.8468,6.832,6.8208,6.8468,6.8506,6.8408,6.8158,6.807,6.8004,6.7741,6.7687,6.7687,6.7687,6.7687,6.7687,6.7687,6.7687,6.7687,6.7633,6.7414,6.7154,6.6845,6.6668,6.6512,6.633,6.7186,6.7653,6.7824,6.8854,6.9318,6.9452,6.927,6.9013,6.8635,6.825,6.8014,6.7811,6.7488,6.7407,6.7325,6.6912,6.6745,6.666,6.5975,6.5746,6.5658,6.5413,6.5413,6.5413,6.5413,6.6789,6.7928,6.8097,6.9513,7.0623,7.0623,7.0623,7.0554,7.0419,7.0419,7.0419,7.0419,7.0419,7.0419,7.0419,7.0419,7.0419,7.0419,7.0419,7.0419,7.0419,7.0419,7.0419,7.0419,7.0419,7.0419,7.0419,7.0419,7.0419,7.0419,7.0419,7.0419,7.0419,7.0419,7.0419,7.0419,7.0419,7.0419,7.0419,7.0419,7.0419,7.0419,7.0419,7.0353,7.0286,7.0286,7.0147,7.0003,7.0003,6.9929,6.9891,6.9891,6.9891,6.9891,6.9891,6.9891,6.9815,6.9495,6.9374,6.9332,6.9072,6.8975,6.8838,6.8697,6.797,6.7577,6.8357,6.7874,6.7577,6.8394,6.8506,6.8408,6.8121,6.807,6.7967,6.7741,6.7687,6.7687,6.7687,6.7687,6.7687,6.7687,6.7687,6.7633,6.7506,6.747,6.7359,6.7019,6.6845,6.6727,6.6512,6.7725,6.8421,6.8457,6.9832,7.0514,7.0514,7.0514,7.0341,7.0132,6.9309,6.8787,6.8628,6.7731,6.7407,6.7407,6.7407,6.7407,6.7325,6.666,6.6406,6.632,6.5413,6.5413,6.5413,6.5413,6.685,6.8028,6.8097,6.9604,7.0737,7.0678,7.0737,7.0737,7.0609,7.0609,7.0609,7.0609,7.0609,7.0609,7.0609,7.0585,7.0554,7.0554,7.0451,7.0419,7.0419,7.0419,7.0419,7.0419,7.0419,7.0419,7.0419,7.0419,7.0419,7.0419,7.0419,7.0451,7.0522,7.0451,7.0483,7.0609,7.0554,7.0554,7.0554,7.0578,7.0515,7.0419,7.0522,7.049,7.0353,7.0319,7.0251,7.0217,7.0315,7.0281,7.0286,7.0407,7.0407,7.0375,7.0375,7.0381,7.0213,6.9738,6.962,6.9579,6.9453,6.9246,6.9072,6.8937,6.8567,6.8342,6.8468,6.832,6.8246,6.8468,6.8506,6.8457,6.8259,6.8259,6.8158,6.7899,6.7847,6.7794,6.7687,6.7687,6.7687,6.7687,6.7687,6.7633,6.7506,6.747,6.7414,6.7154,6.7019,6.6845,6.6727,6.7824,6.8421,6.8457,6.9832,7.0514,7.0514,7.0514,7.0341,7.0202,6.9956,6.967,6.9305,6.9048,6.8932,6.874,6.8319,6.8083,6.8004,6.7325,6.7078,6.7078,6.5465,6.5465,6.5465,6.5465,6.6978,6.8157,6.8186,6.9654,7.0787,7.0729,7.0758,7.0758,7.0737,7.0708,7.0708,7.0708,7.0708,7.0708,7.0708,7.0678,7.0616,7.0623,7.0522,7.0451,7.0419,7.0419,7.0419,7.0419,7.0419,7.0419,7.0419,7.0419,7.0419,7.0419,7.0451,7.0522,7.0623,7.0515,7.0578,7.0708,7.0647,7.0647,7.0647,7.0708,7.0616,7.0483,7.0616,7.0554,7.0419,7.0515,7.054,7.057,7.0593,7.0593,7.0563,7.071,7.071,7.0652,7.0652,7.0593,7.0439,7.0141,7.0001,6.9891,6.9815,6.9542,6.9336,6.9209,6.9027,6.8791,6.865,6.865,6.865,6.865,6.865,6.8602,6.8408,6.8408,6.8309,6.7967,6.7952,6.7899,6.7794,6.7741,6.7687,6.7687,6.7687,6.7633,6.7579,6.7579,6.7524,6.7322,6.7154,6.6983,6.6903,6.7626,6.8163,6.8421,6.9511,7.0193,7.0514,7.0514,7.041,7.0272,7.0202,7.0062,6.9813,6.967,6.9384,6.8992,6.8513,6.8363,6.8218,6.7212,6.7044,6.7284,6.5608,6.5608,6.5608,6.5608,6.6988,6.8157,6.829,6.9673,7.071,7.0815,7.0787,7.0787,7.0699,7.0737,7.0737,7.0737,7.0737,7.0737,7.0737,7.0669,7.0678,7.0585,7.0585,7.0522,7.0419,7.0419,7.0419,7.0419,7.0419,7.0419,7.0419,7.0419,7.0419,7.0419,7.0554,7.0623,7.0616,7.0678,7.0737,7.0737,7.0699,7.0737,7.0737,7.0737,7.0678,7.0616,7.0708,7.0609,7.0477,7.0815,7.0914,7.0889,7.0837,7.0837,7.0848,7.0875,7.0848,7.0766,7.0766,7.071,7.0652,7.0652,7.047,7.0243,7.0179,6.9927,6.9625,6.9584,6.9298,6.9078,6.8975,6.8929,6.8929,6.8884,6.8884,6.8791,6.8554,6.8506,6.8371,6.8121,6.8004,6.7952,6.7952,6.7794,6.7741,6.7741,6.7741,6.7741,6.7687,6.7687,6.7633,6.7524,6.7322,6.7154,6.7019,6.7234,6.7653,6.8421,6.9011,6.9729,7.0514,7.0514,7.0514,7.0514,7.02,7.0095,7.0095,6.9565,6.8998,6.8399,6.8184,6.8112,6.7934,6.6612,6.6636,6.7038,6.5608,6.5608,6.5608,6.5608,6.6546,6.7522,6.8175,6.9229,7.014,7.0794,7.0871,7.0871,7.0843,7.0843,7.0843,7.0843,7.0843,7.0815,7.0758,7.0737,7.0678,7.0585,7.0522,7.0419,7.0419,7.0419,7.0419,7.0419,7.0419,7.0419,7.0419,7.0419,7.0451,7.0554,7.0623,7.0647,7.0729,7.0737,7.0758,7.0843,7.0787,7.0758,7.0758,7.0843,7.0843,7.0843,7.0898,7.0914,7.0902,7.0953,7.0979,7.099,7.117,7.117,7.1208,7.1376,7.1376,7.1313,7.1269,7.1186,7.1116,7.1067,7.0992,7.0832,7.0563,7.0369,7.02,7.0171,6.9995,6.9739,6.9428,6.9344,6.9214,6.899,6.8884,6.8697,6.865,6.8554,6.8457,6.8259,6.8208,6.8158,6.8107,6.8018,6.8004,6.7899,6.7847,6.7794,6.7687,6.7687,6.7687,6.7633,6.7378,6.7154,6.7019,6.6692,6.724,6.8578,6.9077,6.9729,7.0514,7.0514,7.0514,7.0478,6.9768,6.9415,6.9242,6.8327,6.7869,6.7553,6.734,6.7269,6.7234,6.6915,6.6878,6.705,6.5755,6.5755,6.5755,6.5755,6.6473,6.7345,6.8229,6.9102,6.9975,7.0783,7.0898,7.0898,7.0898,7.0898,7.0898,7.0898,7.0898,7.0871,7.0843,7.0787,7.0699,7.0708,7.0585,7.0483,7.0547,7.0483,7.0451,7.0419,7.0419,7.0419,7.0419,7.0419,7.0451,7.0623,7.0616,7.0708,7.0787,7.0787,7.0843,7.0898,7.0925,7.0952,7.0952,7.1056,7.1081,7.1056,7.113,7.1163,7.1231,7.117,7.1214,7.1299,7.1417,7.1436,7.1474,7.1586,7.1568,7.1513,7.1494,7.1435,7.1334,7.1291,7.1247,7.1154,7.0887,7.0738,7.0622,7.0494,7.0362,7.0129,6.9887,6.9815,6.974,6.9544,6.946,6.9336,6.9251,6.9166,6.8928,6.8294,6.8547,6.8717,6.849,6.849,6.8442,6.8334,6.8334,6.8284,6.8235,6.8235,6.8235,6.8235,6.7878,6.7614,6.7396,6.6867,6.7125,6.813,6.8177,6.8904,7.0078,6.9685,6.9721,7.0141,6.9353,6.9143,6.9297,6.8243,6.7508,6.6949,6.6707,6.6567,6.6461,6.6461,6.681,6.7152,6.5897,6.5897,6.5897,6.5897,6.6436,6.7167,6.8052,6.8936,6.9783,7.0591,7.0821,7.0925,7.0925,7.0925,7.0925,7.0925,7.0925,7.0925,7.0898,7.0843,7.0815,7.0787,7.0708,7.0647,7.0737,7.0678,7.0616,7.0451,7.0451,7.0451,7.0451,7.0451,7.0515,7.0678,7.0729,7.0815,7.0898,7.094,7.0979,7.0979,7.1106,7.1154,7.1154,7.1269,7.1291,7.1269,7.1313,7.1396,7.1513,7.1397,7.1472,7.1598,7.1598,7.1598,7.1598,7.1598,7.1603,7.1607,7.1607,7.1513,7.1435,7.1415,7.1334,7.1269,7.1154,7.1056,7.0952,7.0821,7.0671,7.0524,7.0342,7.031,7.0243,7.0144,7.0109,6.9961,6.9626,6.9702,6.9398,6.8373,6.8895,6.9261,6.9047,6.9003,6.8915,6.8817,6.8817,6.8817,6.8772,6.8772,6.8772,6.8772,6.8442,6.8148,6.7945,6.7451,6.7461,6.7969,6.74,6.794,6.9388,6.8708,6.8873,6.9577,6.8786,6.8822,6.9297,6.8183,6.7273,6.6505,6.6171,6.5897,6.5759,6.5689,6.6283,6.6934,6.5897,6.5897,6.5897,6.5897,6.5974,6.632,6.7128,6.8013,6.8898,6.9744,7.0529,7.0979,7.0979,7.103,7.1081,7.1081,7.1081,7.103,7.0898,7.0898,7.0843,7.0787,7.0758,7.0758,7.0787,7.0898,7.0843,7.0639,7.0639,7.0639,7.0639,7.0639,7.0748,7.0953,7.0953,7.1077,7.1236,7.1236,7.1253,7.1247,7.1274,7.1274,7.1269,7.1296,7.1396,7.1455,7.1475,7.1532,7.1581,7.1581,7.1581,7.1598,7.1598,7.1598,7.1598,7.1598,7.1598,7.1581,7.1607,7.1589,7.1571,7.1435,7.1376,7.1394,7.1291,7.1247,7.1247,7.1224,7.1186,7.1091,7.0832,7.0681,7.0524,7.0243,7.0035,6.9661,6.8865,6.9323,6.9361,6.8452,6.9056,6.9544,6.9423,6.9298,6.9171,6.899,6.899,6.8945,6.8809,6.8772,6.8772,6.8772,6.8633,6.8538,6.849,6.8124,6.8328,6.9052,6.8157,6.8049,6.8722,6.8614,6.8614,6.875,6.7995,6.7743,6.7716,6.6729,6.6145,6.5882,6.5521,6.5255,6.5087,6.495,6.4953,6.5128,6.5947,6.5947,6.5972,6.5958,6.5958,6.6227,6.7075,6.7923,6.8809,6.9695,7.0529,7.1056,7.1056,7.1081,7.1106,7.1106,7.1106,7.1081,7.1005,7.1042,7.1053,7.1053,7.1023,7.107,7.1175,7.1153,7.1131,7.1085,7.0979,7.0928,7.0915,7.0915,7.1014,7.117,7.117,7.1236,7.1339,7.1339,7.1358,7.1358,7.1436,7.1454,7.1493,7.1525,7.1581,7.1603,7.1586,7.1564,7.1598,7.1598,7.1598,7.1598,7.1598,7.1598,7.1598,7.1598,7.1598,7.1598,7.162,7.1586,7.1589,7.1513,7.1455,7.1415,7.1355,7.1313,7.1291,7.1291,7.1291,7.1247,7.1106,7.0992,7.0733,7.0076,7.0264,7.0133,6.9228,6.9387,6.9431,6.9022,6.9256,6.9607,7.0033,6.9963,6.9816,6.9623,6.9582,6.9501,6.9419,6.9419,6.9193,6.87,6.8903,6.8728,6.8234,6.8325,6.8506,6.8742,6.8284,6.8373,6.895,6.8341,6.8414,6.8872,6.7796,6.7606,6.7909,6.6776,6.6207,6.6021,6.5575,6.5428,6.5441,6.4777,6.5093,6.5723]},{"header":{"parameterUnit":"m.s-1","parameterCategory":1,"la1":30.6,"la2":28.766,"lo1":-90.7593,"lo2":-88.6598,"dy":0.0162,"dx":0.0183,"nx":116,"ny":114,"refTime":"2023-04-07T18:00:00:Z","depth":0,"parameterNumber":3,"parameterNumberName":"V-component_of_WINDS"},"data":[0.0,0.0,0.0,0.0,0.0,0.0,0.0,0.0,0.0,0.0,0.0,0.0,0.0,0.0,0.0,0.0,0.0,0.0,0.0,0.0,0.0,0.0,0.0,0.0,0.0,0.0,0.0,0.0,0.0,0.0,0.0,0.0,0.0,0.0,0.0,0.0,0.0,0.0,0.0,0.0,0.0,0.0,0.0,0.0,0.0,0.0,0.0,0.0,0.0,0.0,0.0,0.0,0.0,0.0,0.0,0.0,0.0,0.0,0.0,0.0,0.0,0.0,0.0,0.0,0.0,0.0,0.0,0.0,0.0,0.0,0.0,0.0,0.0,0.0,0.0,0.0,0.0,0.0,0.0,0.0,0.0,0.0,0.0,0.0,0.0,0.0,0.0,0.0,0.0,0.0,0.0,0.0,0.0,0.0,0.0,0.0,0.0,0.0,0.0,0.0,0.0,0.0,0.0,0.0,0.0,0.0,0.0,0.0,0.0,0.0,0.0,0.0,0.0,0.0,0.0,0.0,0.0,0.0,0.0,0.0,0.0,0.0,0.0,0.0,0.0,0.0,0.0,0.0,0.0,0.0,0.0,0.0,0.0,0.0,0.0,0.0,0.0,0.0,0.0,0.0,0.0,0.0,0.0,0.0,0.0,0.0,0.0,0.0,0.0,0.0,0.0,0.0,0.0,0.0,0.0,0.0,0.0,0.0,0.0,0.0,0.0,0.0,0.0,0.0,0.0,0.0,0.0,0.0,0.0,0.0,0.0,0.0,0.0,0.0,0.0,0.0,0.0,0.0,0.0,0.0,0.0,0.0,0.0,0.0,0.0,0.0,0.0,0.0,0.0,0.0,0.0,0.0,0.0,0.0,0.0,0.0,0.0,0.0,0.0,0.0,0.0,0.0,0.0,0.0,0.0,0.0,0.0,0.0,0.0,0.0,0.0,0.0,0.0,0.0,0.0,0.0,0.0,0.0,0.0,0.0,0.0,0.0,0.0,0.0,0.0,0.0,0.0,0.0,0.0,0.0,0.0,0.0,0.0,0.0,0.0,0.0,0.0,0.0,0.0,0.0,0.0,0.0,0.0,0.0,0.0,0.0,0.0,0.0,0.0,0.0,0.0,0.0,0.0,0.0,0.0,0.0,0.0,0.0,0.0,0.0,0.0,0.0,0.0,0.0,0.0,0.0,0.0,0.0,0.0,0.0,0.0,0.0,0.0,0.0,0.0,0.0,0.0,0.0,0.0,0.0,0.0,0.0,0.0,0.0,0.0,0.0,0.0,0.0,0.0,0.0,0.0,0.0,0.0,0.0,0.0,0.0,0.0,0.0,0.0,0.0,0.0,0.0,0.0,0.0,0.0,0.0,0.0,0.0,0.0,0.0,0.0,0.0,0.0,0.0,0.0,0.0,0.0,0.0,0.0,0.0,0.0,0.0,0.0,0.0,0.0,0.0,0.0,0.0,0.0,0.0,0.0,0.0,0.0,0.0,0.0,0.0,0.0,0.0,0.0,0.0,0.0,0.0,0.0,0.0,0.0,0.0,0.0,0.0,0.0,0.0,0.0,0.0,0.0,0.0,0.0,0.0,0.0,0.0,0.0,0.0,0.0,0.0,0.0,0.0,0.0,0.0,0.0,0.0,0.0,0.0,0.0,0.0,0.0,0.0,0.0,0.0,0.0,0.0,0.0,0.0,0.0,0.0,0.0,0.0,0.0,0.0,0.0,0.0,0.0,0.0,0.0,0.0,0.0,0.0,0.0,0.0,0.0,0.0,0.0,0.0,0.0,0.0,0.0,0.0,0.0,0.0,0.0,0.0,0.0,0.0,0.0,0.0,0.0,0.0,0.0,0.0,0.0,0.0,0.0,0.0,0.0,0.0,0.0,0.0,0.0,0.0,0.0,0.0,0.0,0.0,0.0,0.0,0.0,0.0,0.0,0.0,0.0,0.0,0.0,0.0,0.0,0.0,0.0,0.0,0.0,0.0,0.0,0.0,0.0,0.0,0.0,0.0,0.0,0.0,0.0,0.0,0.0,0.0,0.0,0.0,0.0,0.0,0.0,0.0,0.0,0.0,0.0,0.0,0.0,0.0,0.0,0.0,0.0,0.0,0.0,0.0,0.0,0.0,0.0,0.0,0.0,0.0,0.0,0.0,0.0,0.0,0.0,0.0,0.0,0.0,0.0,0.0,0.0,0.0,0.0,0.0,0.0,0.0,0.0,0.0,0.0,0.0,0.0,0.0,0.0,0.0,0.0,0.0,0.0,0.0,0.0,0.0,0.0,0.0,0.0,0.0,0.0,0.0,0.0,0.0,0.0,0.0,0.0,0.0,0.0,0.0,0.0,0.0,0.0,0.0,0.0,0.0,0.0,0.0,0.0,0.0,0.0,0.0,0.0,0.0,0.0,0.0,0.0,0.0,0.0,0.0,0.0,0.0,0.0,0.0,0.0,0.0,0.0,0.0,0.0,0.0,0.0,0.0,0.0,0.0,0.0,0.0,0.0,0.0,0.0,0.0,0.0,0.0,0.0,0.0,0.0,0.0,0.0,0.0,0.0,0.0,0.0,0.0,0.0,0.0,0.0,0.0,0.0,0.0,0.0,0.0,0.0,0.0,0.0,0.0,0.0,0.0,0.0,0.0,0.0,0.0,0.0,0.0,0.0,0.0,0.0,0.0,0.0,0.0,0.0,0.0,0.0,0.0,0.0,0.0,0.0,0.0,0.0,0.0,0.0,0.0,0.0,0.0,0.0,0.0,0.0,0.0,0.0,0.0,0.0,0.0,0.0,0.0,0.0,0.0,0.0,0.0,0.0,0.0,0.0,0.0,0.0,0.0,0.0,0.0,0.0,0.0,0.0,0.0,0.0,0.0,0.0,0.0,0.0,0.0,0.0,0.0,0.0,0.0,0.0,0.0,0.0,0.0,0.0,0.0,0.0,0.0,0.0,0.0,0.0,0.0,0.0,0.0,0.0,0.0,0.0,0.0,0.0,0.0,0.0,0.0,0.0,0.0,0.0,0.0,0.0,0.0,0.0,0.0,0.0,0.0,0.0,0.0,0.0,0.0,0.0,0.0,0.0,0.0,0.0,0.0,0.0,0.0,0.0,0.0,0.0,0.0,0.0,0.0,0.0,0.0,0.0,0.0,0.0,0.0,0.0,0.0,0.0,0.0,0.0,0.0,0.0,0.0,0.0,0.0,0.0,0.0,0.0,0.0,0.0,0.0,0.0,0.0,0.0,0.0,0.0,0.0,0.0,0.0,0.0,0.0,0.0,0.0,0.0,0.0,0.0,0.0,0.0,0.0,0.0,0.0,0.0,0.0,0.0,0.0,0.0,0.0,0.0,0.0,0.0,0.0,0.0,0.0,0.0,0.0,0.0,0.0,0.0,0.0,0.0,0.0,0.0,0.0,0.0,0.0,0.0,0.0,0.0,0.0,0.0,0.0,0.0,0.0,0.0,0.0,0.0,0.0,0.0,0.0,0.0,0.0,0.0,0.0,0.0,0.0,0.0,0.0,0.0,0.0,0.0,0.0,0.0,0.0,0.0,0.0,0.0,0.0,0.0,0.0,0.0,0.0,0.0,0.0,0.0,0.0,0.0,0.0,0.0,0.0,0.0,0.0,0.0,0.0,0.0,0.0,0.0,0.0,0.0,0.0,0.0,0.0,0.0,0.0,0.0,0.0,0.0,0.0,0.0,0.0,0.0,0.0,0.0,0.0,0.0,0.0,0.0,0.0,0.0,0.0,0.0,0.0,0.0,0.0,0.0,0.0,0.0,0.0,0.0,0.0,0.0,0.0,0.0,0.0,0.0,0.0,0.0,0.0,0.0,0.0,0.0,0.0,0.0,0.0,0.0,0.0,0.0,0.0,0.0,0.0,0.0,0.0,0.0,0.0,0.0,0.0,0.0,0.0,0.0,0.0,0.0,0.0,0.0,0.0,0.0,0.0,0.0,0.0,0.0,0.0,0.0,0.0,0.0,0.0,0.0,0.0,0.0,0.0,0.0,0.0,0.0,0.0,0.0,0.0,0.0,0.0,0.0,0.0,0.0,0.0,0.0,0.0,0.0,0.0,0.0,0.0,0.0,0.0,0.0,0.0,0.0,0.0,0.0,0.0,0.0,0.0,0.0,0.0,0.0,0.0,0.0,0.0,0.0,0.0,0.0,0.0,0.0,0.0,0.0,0.0,0.0,0.0,0.0,0.0,0.0,0.0,0.0,0.0,0.0,0.0,0.0,0.0,0.0,0.0,0.0,0.0,0.0,0.0,0.0,0.0,0.0,0.0,0.0,0.0,0.0,0.0,0.0,0.0,0.0,0.0,0.0,0.0,0.0,0.0,0.0,0.0,0.0,0.0,0.0,0.0,0.0,0.0,0.0,0.0,0.0,0.0,0.0,0.0,0.0,0.0,0.0,0.0,0.0,0.0,0.0,0.0,0.0,0.0,0.0,0.0,0.0,0.0,0.0,0.0,0.0,0.0,0.0,0.0,0.0,0.0,0.0,0.0,0.0,0.0,0.0,0.0,0.0,0.0,0.0,0.0,0.0,0.0,0.0,0.0,0.0,0.0,0.0,0.0,0.0,0.0,0.0,0.0,0.0,0.0,0.0,0.0,0.0,0.0,0.0,0.0,0.0,0.0,0.0,0.0,0.0,0.0,0.0,0.0,0.0,0.0,0.0,0.0,0.0,0.0,0.0,0.0,0.0,0.0,0.0,0.0,0.0,0.0,0.0,0.0,0.0,0.0,0.0,0.0,0.0,0.0,0.0,0.0,0.0,0.0,0.0,0.0,0.0,0.0,0.0,0.0,0.0,0.0,0.0,0.0,0.0,0.0,0.0,0.0,0.0,0.0,0.0,0.0,0.0,0.0,0.0,0.0,0.0,0.0,0.0,0.0,0.0,0.0,0.0,0.0,0.0,0.0,0.0,0.0,0.0,0.0,0.0,0.0,0.0,0.0,0.0,0.0,0.0,0.0,0.0,0.0,0.0,0.0,0.0,0.0,0.0,0.0,0.0,0.0,0.0,0.0,0.0,0.0,0.0,0.0,0.0,0.0,0.0,0.0,0.0,0.0,0.0,0.0,0.0,0.0,0.0,0.0,0.0,0.0,0.0,0.0,0.0,0.0,0.0,0.0,0.0,0.0,0.0,0.0,0.0,0.0,0.0,0.0,0.0,0.0,0.0,0.0,0.0,0.0,0.0,0.0,0.0,0.0,0.0,0.0,0.0,0.0,0.0,0.0,0.0,0.0,0.0,0.0,0.0,0.0,0.0,0.0,0.0,0.0,0.0,0.0,0.0,0.0,0.0,0.0,0.0,0.0,0.0,0.0,0.0,0.0,0.0,0.0,0.0,0.0,0.0,0.0,0.0,0.0,0.0,0.0,0.0,0.0,0.0,0.0,0.0,0.0,0.0,0.0,0.0,0.0,0.0,0.0,0.0,0.0,0.0,0.0,0.0,0.0,0.0,0.0,0.0,0.0,0.0,0.0,0.0,0.0,0.0,0.0,0.0,0.0,0.0,0.0,0.0,0.0,0.0,0.0,0.0,0.0,0.0,0.0,0.0,0.0,0.0,0.0,0.0,0.0,0.0,0.0,0.0,0.0,0.0,0.0,0.0,0.0,0.0,0.0,0.0,0.0,0.0,0.0,0.0,0.0,0.0,0.0,0.0,0.0,0.0,0.0,0.0,0.0,0.0,0.0,0.0,0.0,0.0,0.0,0.0,0.0,0.0,0.0,0.0,0.0,0.0,0.0,0.0,0.0,0.0,0.0,0.0,0.0,0.0,0.0,0.0,0.0,0.0,0.0,0.0,0.0,0.0,0.0,0.0,0.0,0.0,0.0,0.0,0.0,0.0,0.0,0.0,0.0,0.0,0.0,0.0,0.0,0.0,0.0,0.0,0.0,0.0,0.0,0.0,0.0,0.0,0.0,0.0,0.0,0.0,0.0,0.0,0.0,0.0,0.0,0.0,0.0,0.0,0.0,0.0,0.0,0.0,0.0,0.0,0.0,0.0,0.0,0.0,0.0,0.0,0.0,0.0,0.0,0.0,0.0,0.0,0.0,0.0,0.0,0.0,0.0,0.0,0.0,0.0,0.0,0.0,0.0,0.0,0.0,4.1431,4.2105,0.0,0.0,0.0,0.0,0.0,0.0,0.0,0.0,0.0,0.0,0.0,0.0,0.0,0.0,0.0,0.0,0.0,0.0,0.0,0.0,0.0,0.0,0.0,1.8827,1.8827,1.8827,1.8986,1.9255,1.9541,1.9622,1.9862,2.0508,2.0818,2.0999,2.1164,2.1658,2.1957,2.2045,2.2261,2.2364,2.2636,2.2347,2.2763,2.3555,0.0,0.0,0.0,0.0,0.0,0.0,0.0,0.0,0.0,0.0,0.0,0.0,0.0,0.0,0.0,0.0,0.0,0.0,0.0,0.0,0.0,0.0,0.0,0.0,0.0,0.0,0.0,0.0,0.0,0.0,0.0,0.0,0.0,0.0,0.0,0.0,0.0,0.0,0.0,0.0,0.0,0.0,0.0,0.0,0.0,0.0,0.0,0.0,0.0,0.0,0.0,0.0,0.0,0.0,0.0,0.0,0.0,0.0,0.0,0.0,0.0,0.0,0.0,0.0,0.0,0.0,0.0,0.0,0.0,0.0,4.1705,4.2186,0.0,0.0,0.0,0.0,0.0,0.0,0.0,0.0,0.0,0.0,0.0,0.0,0.0,0.0,0.0,0.0,0.0,0.0,0.0,0.0,0.0,1.8827,1.8827,1.8827,1.8859,1.8923,1.9193,1.951,1.9638,1.991,2.0311,2.0964,2.118,2.1412,2.1709,2.235,2.2434,2.2232,2.2434,2.2653,2.2653,2.2653,2.309,2.3863,2.3763,0.0,0.0,0.0,0.0,0.0,0.0,0.0,0.0,0.0,0.0,0.0,0.0,0.0,0.0,0.0,0.0,0.0,0.0,0.0,0.0,0.0,0.0,0.0,0.0,0.0,0.0,0.0,0.0,0.0,0.0,0.0,0.0,0.0,0.0,0.0,0.0,0.0,0.0,0.0,0.0,0.0,0.0,0.0,0.0,0.0,0.0,0.0,0.0,0.0,0.0,0.0,0.0,0.0,0.0,0.0,0.0,0.0,0.0,0.0,0.0,0.0,0.0,0.0,4.2188,4.2449,4.2475,4.2971,4.344,4.3877,4.2305,4.256,4.4109,4.4014,0.0,0.0,0.0,0.0,0.0,0.0,0.0,0.0,0.0,0.0,0.0,0.0,0.0,0.0,0.0,0.0,0.0,0.0,0.0,1.8827,1.8827,1.8827,1.8955,1.9272,1.9352,1.9718,2.0605,2.0388,2.068,2.1541,2.1659,2.1777,2.203,2.2434,2.2552,2.2552,2.2552,2.2754,2.2955,2.2955,2.3331,2.3852,2.3648,2.387,2.4416,0.0,0.0,0.0,0.0,0.0,0.0,0.0,0.0,0.0,0.0,0.0,0.0,0.0,0.0,0.0,0.0,0.0,0.0,0.0,0.0,0.0,0.0,0.0,0.0,0.0,0.0,0.0,0.0,0.0,0.0,0.0,0.0,0.0,0.0,0.0,0.0,0.0,0.0,0.0,0.0,0.0,3.3899,3.3843,0.0,0.0,0.0,0.0,0.0,0.0,0.0,0.0,0.0,0.0,0.0,0.0,0.0,4.1324,4.1797,4.2396,4.2725,4.2802,4.2823,4.2966,4.2966,4.2562,4.2684,4.3063,4.2447,0.0,4.452,4.399,0.0,0.0,0.0,0.0,0.0,0.0,0.0,0.0,0.0,0.0,0.0,0.0,0.0,0.0,0.0,0.0,0.0,0.0,0.0,0.0,0.0,1.9002,1.9193,1.9352,1.9717,2.0165,2.0568,2.0676,2.0953,2.1725,2.1725,2.1928,2.2333,2.2859,2.3184,2.3184,2.2756,2.2756,2.3065,2.3065,2.3272,2.3739,2.3859,2.4158,2.4503,2.5213,0.0,0.0,0.0,0.0,0.0,0.0,0.0,0.0,0.0,0.0,0.0,0.0,0.0,0.0,0.0,0.0,0.0,0.0,0.0,0.0,0.0,0.0,0.0,0.0,0.0,0.0,0.0,0.0,0.0,0.0,0.0,0.0,0.0,0.0,0.0,0.0,0.0,0.0,0.0,3.3786,3.4233,3.5318,3.5545,3.626,0.0,0.0,0.0,0.0,0.0,0.0,0.0,0.0,0.0,3.9753,4.1029,4.1879,4.2153,4.2449,4.2747,4.2941,4.3299,4.3438,4.3438,4.3739,4.399,4.4189,4.3958,4.4427,4.5259,4.4253,4.4205,4.4911,0.0,0.0,0.0,0.0,4.6,4.6279,0.0,0.0,0.0,0.0,0.0,0.0,0.0,0.0,0.0,0.0,0.0,0.0,1.8827,1.9161,1.9415,1.9495,2.0149,2.0532,2.0527,2.0867,2.1216,2.1623,2.1725,2.203,2.2434,2.303,2.3443,2.3444,2.2928,2.2843,2.3117,2.3203,2.346,2.3819,2.4218,2.4506,2.4791,2.5718,2.6221,2.6561,0.0,0.0,0.0,0.0,0.0,0.0,0.0,0.0,0.0,0.0,0.0,0.0,0.0,0.0,0.0,0.0,0.0,0.0,0.0,0.0,0.0,0.0,0.0,0.0,0.0,0.0,0.0,0.0,0.0,0.0,0.0,0.0,0.0,0.0,0.0,0.0,0.0,3.4005,3.4532,3.6573,3.5949,3.615,0.0,0.0,0.0,0.0,0.0,0.0,4.0411,4.0976,4.0952,4.0588,4.161,4.2214,4.2359,4.2509,4.2785,4.3187,4.374,4.4016,4.4041,4.4673,4.4965,4.5081,4.5217,4.5494,4.5866,4.4756,4.4674,4.5326,4.5326,4.543,4.5635,4.584,4.6118,4.6459,0.0,0.0,0.0,0.0,0.0,0.0,0.0,0.0,0.0,0.0,0.0,1.8272,1.8735,1.9161,1.9495,1.9812,2.0474,2.0829,2.0877,2.142,2.1522,2.1318,2.1827,2.2131,2.2131,2.2451,2.2859,2.3117,2.31,2.31,2.3117,2.3477,2.3836,2.4213,2.4771,2.5201,2.5522,2.5919,2.6735,2.7814,2.7853,0.0,0.0,0.0,0.0,0.0,0.0,0.0,0.0,0.0,0.0,0.0,0.0,0.0,0.0,0.0,0.0,0.0,0.0,0.0,0.0,0.0,0.0,0.0,0.0,0.0,0.0,0.0,0.0,0.0,0.0,0.0,0.0,0.0,0.0,0.0,0.0,0.0,0.0,3.661,3.5978,0.0,0.0,0.0,0.0,3.9574,3.9802,4.0256,4.0732,4.1096,4.1155,4.0881,4.1728,4.2494,4.2936,4.3463,4.374,4.3765,4.4317,4.4593,4.4593,4.4618,4.4734,4.5106,4.5425,4.5768,4.5943,4.5656,4.5931,4.6402,4.6402,4.6402,4.6514,4.7264,4.7812,4.8137,0.0,0.0,0.0,1.7179,1.7537,1.7705,1.7427,1.7903,1.83,1.8334,1.8458,1.8737,1.9145,1.9479,1.9828,2.0178,2.0628,2.0883,2.0909,2.113,2.1318,2.1522,2.1725,2.2249,2.3014,2.3014,2.3203,2.3774,2.3582,2.3597,2.3836,2.3973,2.4339,2.481,2.5029,2.5575,2.6245,2.6608,2.7247,2.8019,2.7968,2.8281,0.0,0.0,0.0,0.0,0.0,0.0,0.0,0.0,0.0,0.0,0.0,0.0,0.0,0.0,0.0,0.0,0.0,0.0,0.0,0.0,0.0,0.0,0.0,0.0,0.0,0.0,0.0,0.0,0.0,0.0,0.0,0.0,0.0,0.0,0.0,0.0,0.0,3.7169,3.7053,0.0,3.8168,3.8834,3.9457,3.9989,4.0063,4.0343,4.1064,4.1873,4.2374,4.2215,4.325,4.384,4.4041,4.4242,4.4317,4.4342,4.4895,4.5171,4.5196,4.5547,4.5842,4.6172,4.6167,4.654,4.7056,4.683,4.663,4.6473,4.6473,4.6586,4.681,4.7118,4.734,4.7752,1.7483,1.734,0.0,1.6901,1.7077,1.7231,1.715,1.7629,1.801,1.8056,1.8458,1.891,1.9352,1.9781,2.013,2.0369,2.082,2.1027,2.0925,2.1113,2.142,2.1522,2.1725,2.2366,2.3618,2.3289,2.3461,2.4173,2.396,2.399,2.423,2.4614,2.4965,2.543,2.5793,2.6363,2.7253,2.7345,2.7619,2.8038,2.7968,2.8281,2.8834,0.0,0.0,0.0,0.0,0.0,0.0,0.0,0.0,0.0,0.0,0.0,0.0,0.0,0.0,0.0,0.0,0.0,0.0,0.0,0.0,0.0,0.0,0.0,0.0,0.0,0.0,0.0,0.0,0.0,0.0,0.0,0.0,0.0,0.0,3.574,3.6424,3.7705,3.7553,3.7692,3.8824,3.9334,3.9794,4.044,4.0857,4.1384,4.2048,4.3037,4.3539,4.3539,4.4242,4.4618,4.4618,4.4819,4.492,4.492,4.5497,4.5773,4.5773,4.615,4.6421,4.678,4.6729,4.699,4.7652,4.778,4.7529,4.7302,4.7302,4.7389,4.7615,4.7615,4.7841,4.8342,1.6683,1.6588,1.649,1.6183,1.6378,1.6678,1.6824,1.7135,1.7527,1.8009,1.8392,1.8797,1.9399,2.0003,2.04,2.04,2.0921,2.1232,2.0925,2.164,2.1843,2.1334,2.186,2.2604,2.3631,2.3323,2.3511,2.423,2.4247,2.4247,2.4264,2.5353,2.5926,2.5944,2.69,2.7719,2.8297,2.8254,2.8087,2.7891,2.7872,2.8408,2.9026,0.0,0.0,0.0,0.0,0.0,0.0,0.0,0.0,0.0,0.0,0.0,0.0,0.0,0.0,0.0,0.0,0.0,0.0,0.0,0.0,0.0,0.0,0.0,0.0,0.0,0.0,0.0,0.0,0.0,0.0,0.0,0.0,0.0,3.689,3.6183,3.6364,3.8199,3.736,3.7016,3.8132,3.9054,3.9937,4.0916,4.2239,4.3237,4.379,4.4342,4.4644,4.4644,4.4669,4.4669,4.4669,4.5221,4.5522,4.5522,4.605,4.6301,4.6301,4.6301,4.6446,4.6806,4.7112,4.7442,4.7821,4.8431,4.8663,4.8663,4.8663,4.8895,4.9125,4.9125,4.9354,4.9897,1.6588,1.6305,1.6089,1.6383,1.6532,1.6655,1.6664,1.7375,1.8069,1.8502,1.8925,1.9558,2.0639,2.067,2.0696,2.075,2.1065,2.1216,2.1216,2.168,2.2034,2.2345,2.3116,2.3427,2.3271,2.3699,2.4025,2.423,2.4723,2.4954,2.4971,2.5529,2.5856,2.6077,2.6295,2.6788,2.749,2.7492,2.7716,2.8089,2.8229,2.8358,2.8495,0.0,0.0,0.0,0.0,0.0,0.0,0.0,0.0,0.0,0.0,0.0,0.0,0.0,0.0,0.0,0.0,0.0,0.0,0.0,0.0,0.0,0.0,0.0,0.0,0.0,0.0,0.0,0.0,0.0,0.0,0.0,3.6589,3.6805,3.6293,3.6627,3.7022,3.7273,3.8381,3.9082,3.8615,4.0691,4.2065,4.2037,4.3035,4.3815,4.4367,4.4945,4.5246,4.5246,4.5648,4.5849,4.5849,4.5999,4.6075,4.6075,4.6225,4.6301,4.6301,4.6301,4.6541,4.7112,4.7205,4.7703,4.8431,4.8663,4.901,4.9354,4.9125,4.924,4.9469,4.9469,4.9983,5.1072,1.6211,1.6021,1.5927,1.6386,1.6305,1.6305,1.6386,1.7153,1.7973,1.8808,1.927,1.9941,2.1329,2.1111,2.0905,2.0909,2.1027,2.1216,2.1318,2.1734,2.2225,2.2806,2.3427,2.3687,2.358,2.4132,2.4533,2.4579,2.5273,2.5599,2.5459,2.6016,2.6399,2.6623,2.6734,2.7176,2.7691,2.7787,2.805,2.8219,2.884,2.8881,2.8574,2.9095,2.9252,2.9434,2.9615,2.9682,2.9733,2.9946,0.0,0.0,0.0,0.0,0.0,0.0,0.0,0.0,0.0,0.0,0.0,0.0,0.0,0.0,0.0,0.0,0.0,0.0,0.0,0.0,0.0,0.0,0.0,0.0,3.705,3.711,3.6588,3.7118,3.7405,3.711,3.8551,3.9684,3.9679,4.1577,4.2856,4.3284,4.402,4.4644,4.497,4.5522,4.5824,4.5824,4.615,4.6301,4.6301,4.6301,4.6301,4.6301,4.6301,4.6301,4.6301,4.6301,4.678,4.7442,4.7442,4.7938,4.8895,4.901,4.924,4.9556,0.0,0.0,0.0,0.0,5.1072,5.238,1.5927,1.5832,1.5927,1.6103,1.5913,1.5913,1.6197,1.6711,1.7618,1.9182,1.9403,2.0079,2.1659,2.1334,2.0925,2.0925,2.0925,2.1146,2.1485,2.2028,2.2605,2.3169,2.322,2.3562,2.4213,2.4607,2.4924,2.529,2.5922,2.6145,2.5878,2.6798,2.7254,2.7254,2.7633,2.8003,2.8505,2.8719,2.8648,2.8501,2.9451,2.9427,2.9043,2.9656,2.9888,2.9808,3.0148,3.0008,2.9687,2.9951,0.0,0.0,0.0,0.0,0.0,0.0,0.0,0.0,0.0,0.0,0.0,0.0,0.0,0.0,0.0,0.0,0.0,0.0,0.0,0.0,0.0,0.0,0.0,0.0,3.7022,3.7374,3.7374,3.7418,3.7461,3.7461,3.8403,3.9538,4.0999,4.2014,4.3192,4.4552,4.5196,4.5522,4.5573,4.605,0.0,0.0,0.0,4.6401,4.6401,4.6401,4.6401,4.6401,4.6351,4.6301,4.6301,4.6301,4.6755,4.7703,4.7703,4.8289,4.924,4.9442,4.9556,4.967,4.967,4.9897,5.0235,5.11,5.238,5.3576,1.5832,1.5832,1.5832,1.5832,1.5832,1.5927,1.6494,1.6798,1.7659,1.9521,1.962,2.0163,2.1574,2.142,2.113,2.0925,2.1318,2.1755,2.2361,2.3497,2.3913,2.3545,2.4084,2.4416,2.4572,2.4977,2.5418,2.614,2.6131,2.6242,2.6493,2.6991,2.7176,2.7194,2.7618,2.81,2.8719,2.8834,2.91,2.9578,3.0121,2.9757,2.9119,2.9551,2.9623,2.9636,2.9251,2.9094,2.9085,2.8965,2.8893,2.894,2.9554,3.0011,0.0,0.0,0.0,0.0,0.0,0.0,0.0,0.0,0.0,0.0,0.0,0.0,0.0,0.0,0.0,0.0,0.0,0.0,0.0,3.7255,3.7361,3.7374,3.7374,3.7724,3.7964,3.7964,3.9499,4.088,4.1539,4.3135,4.4461,4.5271,4.5422,4.5673,4.6125,4.625,4.6301,4.6301,4.6753,4.6979,4.6979,4.6979,4.6979,4.6979,4.6527,0.0,4.6301,4.6301,4.6755,4.7703,4.7703,4.8405,4.9442,4.9556,4.967,4.9897,4.9897,5.032,5.1183,5.2085,5.2943,5.389,1.5832,1.5832,1.5737,1.5642,1.5737,1.5927,1.6292,1.6649,1.7692,1.9952,1.9675,2.0085,2.1821,2.1431,2.113,2.113,2.142,2.191,2.24,2.3186,2.3687,2.3859,2.4364,2.4876,2.5177,2.5657,2.6074,2.6185,2.6734,2.6846,2.6664,2.7288,2.7471,2.749,2.7673,2.8214,2.8816,2.8932,2.941,2.9871,3.0432,3.0393,3.0006,3.0234,3.0078,2.9883,2.9902,2.9629,2.9219,2.9113,2.9006,2.8829,2.9132,2.9755,3.0404,0.0,0.0,0.0,0.0,0.0,0.0,0.0,0.0,0.0,0.0,0.0,0.0,0.0,0.0,3.6337,3.6352,0.0,3.7044,3.7414,3.7659,3.7745,3.7745,3.816,3.8503,3.8853,4.0347,4.1779,4.2807,4.4196,4.5296,4.5849,4.5899,4.6024,4.6301,4.6577,4.6728,4.6728,4.723,4.7531,4.7531,4.7531,4.738,4.7129,4.6853,4.6577,4.6326,4.6421,4.7019,4.7703,4.8055,4.8753,4.9556,4.9783,4.9897,5.001,5.0432,5.11,5.1839,5.273,5.3576,5.4466,1.5832,1.5832,1.5737,1.5547,1.5642,1.594,1.6279,1.6553,1.7513,1.9797,1.9598,1.9857,2.1474,2.1242,2.1027,2.1318,2.1689,2.1893,2.2131,2.2654,2.3357,2.407,2.4471,2.5072,2.5789,2.6385,2.6587,2.6462,2.7267,2.7361,2.683,2.7471,2.7765,2.7765,2.793,2.8418,2.8946,2.916,2.9526,2.993,3.0509,3.0879,3.0898,3.0898,3.0605,3.0234,3.0625,3.0254,2.957,2.957,2.9336,2.9043,2.9043,2.9668,3.0449,3.1011,3.1601,0.0,0.0,0.0,0.0,0.0,0.0,0.0,0.0,3.5374,3.5983,3.5331,3.6121,3.6816,3.6741,3.6925,3.722,3.744,3.7855,3.8139,3.8226,3.8663,3.9316,4.0121,4.115,4.2445,4.3844,4.5027,4.5824,4.6276,4.6401,4.6476,4.6476,4.6979,4.728,4.728,4.7807,4.8083,4.8083,4.8083,4.7857,4.7456,4.733,4.7126,4.6572,4.6958,4.7359,4.7938,4.8743,4.9373,4.9859,5.0195,5.0476,5.059,5.1544,5.2205,5.2829,5.3348,5.4126,5.4905,1.5832,1.5832,1.5737,1.5547,1.5642,1.6103,1.6856,1.6867,1.7272,1.8731,1.9152,1.9347,1.9517,2.0342,2.113,2.1623,2.2006,2.2364,2.2569,2.341,2.393,2.4088,2.4471,2.5072,2.6008,2.6514,2.697,2.7636,2.7361,2.738,2.7636,2.7728,2.7765,2.7801,2.8517,2.9102,2.9375,2.9493,2.9846,3.0315,3.0372,3.0645,3.0898,3.0898,3.0605,3.0195,3.0254,2.998,2.957,2.957,2.9551,2.9492,2.9492,2.9785,3.0285,3.0782,3.1717,3.2746,3.3176,3.3642,3.4053,3.4011,3.3883,3.397,0.0,3.4795,3.5221,3.5606,3.6295,3.6902,3.6824,3.7188,3.7461,3.7942,3.8073,3.827,3.8685,3.9165,4.0189,4.1993,4.2409,4.2767,4.3387,4.5086,4.625,4.6301,4.6753,4.7054,4.7054,4.7531,4.7832,4.7832,4.8385,4.8686,4.8686,4.8686,4.8636,4.8586,4.8483,4.8049,4.7491,4.7758,4.8195,4.8548,4.9979,5.0682,5.0851,5.1394,5.196,5.2536,5.3416,5.428,5.4902,5.4118,5.4436,5.5179,1.5832,1.5737,1.5642,1.5547,1.587,1.6319,1.6926,1.6959,1.7305,1.8321,1.8658,1.883,1.892,1.9888,2.0601,2.1216,2.1227,2.1482,2.2063,2.2706,2.3567,2.4316,2.5004,2.5628,2.6354,2.6736,2.7139,2.7416,2.749,2.749,2.7435,2.7911,2.8003,2.7801,2.8627,2.9213,2.945,2.945,2.9686,3.0157,3.0157,3.0157,3.0294,3.0509,3.0354,3.0025,3.0508,3.0447,0.0,3.0054,3.0054,3.0187,3.0054,3.0348,3.1007,3.1491,3.2125,3.2697,3.3161,3.3679,3.4101,3.4196,3.4304,3.4569,3.5071,3.5579,3.5891,3.6082,3.6639,3.7219,3.7256,3.7566,3.7964,3.8444,3.8772,3.9012,3.9231,3.9668,4.036,4.1107,4.2349,4.3541,4.489,4.5793,4.6451,4.6753,4.7004,4.7255,4.7581,4.8109,4.841,4.841,4.8962,4.9264,4.9264,4.9264,4.9215,4.9014,4.9064,4.8782,4.8467,4.8685,4.9281,5.002,5.0612,5.1071,5.1448,5.1719,5.2178,5.2872,5.3951,5.4811,5.5409,5.5525,5.5872,5.6286,0.0,1.5642,1.5573,1.5747,1.6095,1.6491,1.6883,1.7123,1.7381,1.8067,1.8306,1.8547,1.895,1.9538,2.0189,2.0601,2.0716,2.1211,2.1874,2.2503,2.3345,2.4703,2.5324,2.5916,2.6464,2.6976,2.7233,2.7343,2.7618,2.7673,2.7526,2.8113,2.8223,2.7967,2.8663,2.9094,2.9331,2.9331,2.9568,2.9804,2.9804,2.9804,2.9922,3.0157,3.0083,3.0103,3.0762,3.0836,3.0576,3.0581,3.0734,3.0869,3.0734,3.1067,3.1576,3.2275,3.2621,3.2991,3.3538,3.3801,3.4022,3.4328,3.4571,3.4922,3.5665,3.6055,3.6423,3.6545,3.7119,3.7558,3.766,3.808,3.8466,3.8947,3.9318,3.9602,3.9733,4.0061,4.0409,4.0647,4.2153,4.3867,4.5894,4.6406,4.6753,4.7305,4.7481,4.7757,4.8134,4.8686,4.9012,4.9012,4.9389,4.959,4.959,4.9719,4.9645,4.952,4.9773,4.9592,4.9302,4.9611,5.0112,5.0857,5.1136,5.1573,5.2072,5.2262,5.2787,5.3601,5.4686,5.544,5.6238,5.7102,5.7212,5.7094,0.0,1.5832,1.5925,1.6206,1.65,1.67,1.68,1.7056,1.7257,1.7565,1.8137,1.8632,1.9257,1.9569,1.9776,2.0086,2.1113,2.1976,2.2635,2.3233,2.4067,2.5076,2.5466,2.5789,2.6136,2.6847,2.7361,2.7746,2.7765,2.7967,2.8352,2.8388,2.8388,2.8388,2.881,2.8993,2.8975,2.8975,2.9213,2.9568,2.9568,2.9686,2.9922,2.9922,3.0157,3.049,3.1092,3.0797,3.0368,3.1397,3.1536,3.1305,3.1652,3.1767,3.1868,3.2641,3.3443,3.4031,3.4407,3.4142,3.3739,3.4126,3.4348,3.4548,3.5294,3.5932,3.6545,3.681,3.7523,3.8095,3.8095,3.8488,3.8969,3.9449,3.9537,3.9711,4.0192,4.0279,4.0647,4.1678,4.2214,4.3391,4.5445,4.6464,4.733,4.7857,4.841,4.8736,4.8736,4.9264,4.9565,4.9565,4.959,4.959,4.959,4.9847,5.0104,5.0104,5.0715,5.0809,5.0214,5.028,5.0499,5.0883,5.1803,5.2311,5.2723,5.3293,5.4259,5.544,5.6107,5.702,5.8136,5.8822,5.8231,5.7094,0.0,0.0,1.5734,1.6219,1.6315,1.6579,1.6981,1.7248,1.7472,1.7387,1.7441,0.0,0.0,0.0,0.0,0.0,2.0498,2.1333,2.2166,2.283,2.3585,2.4464,2.5484,2.5789,2.5551,2.6372,2.6976,2.738,2.7636,2.7838,2.7985,2.8535,2.8645,2.8407,2.881,2.8975,2.8975,2.8975,2.9094,2.9213,2.9213,2.9213,2.9331,2.9804,2.9922,3.0195,0.0,3.16,3.1357,3.1727,3.2105,3.2286,3.1888,3.2307,3.3048,3.3309,3.3592,3.3755,3.37,3.3903,3.4146,3.4629,3.4899,3.5376,3.631,3.6389,3.663,3.7566,3.8108,3.8662,3.9324,3.9589,3.9853,4.0338,4.0146,4.0083,4.0257,4.0279,4.0519,4.1241,4.2678,4.4056,4.5562,4.6197,4.7131,4.8435,4.8661,4.8937,4.9289,4.949,4.959,4.959,4.959,4.9719,5.0001,5.0001,5.0359,5.0741,5.1497,5.1642,5.1459,5.1742,5.1907,5.2029,5.2608,5.2931,5.332,5.4204,5.4998,5.5817,5.6822,5.7751,5.8555,5.8991,5.883,5.8441,0.0,0.0,0.0,1.6353,1.6494,0.0,0.0,0.0,0.0,0.0,0.0,0.0,0.0,0.0,0.0,0.0,0.0,2.1399,2.2152,2.2901,2.3546,2.4234,2.5445,2.5789,2.5221,2.6136,2.6774,2.7178,2.7435,2.771,2.8003,2.8517,2.8718,2.8608,2.8865,2.8975,2.8975,2.8975,2.8975,2.8975,2.9094,2.9213,2.9213,2.9686,3.0016,0.0,3.1406,3.2018,3.227,3.2367,3.2464,3.2444,3.2484,3.2991,3.3719,3.3819,3.3821,3.376,3.3693,3.3877,3.4265,3.4705,3.5143,3.5749,3.6666,3.6873,3.7121,3.8189,3.8737,3.9316,3.9958,4.0479,4.0679,4.0839,4.0777,4.0539,4.0279,4.0432,4.0651,4.0956,4.2849,4.4487,4.5559,4.6405,4.7488,4.9038,4.9063,4.9213,4.9565,4.959,4.959,4.959,4.9719,4.9847,5.0129,5.0385,5.0741,5.1246,5.1747,5.1996,5.2121,5.2368,5.2615,5.2738,5.2983,5.347,5.3926,5.4616,5.5323,5.6164,5.7162,5.7974,5.8555,5.8991,5.9099,5.9099,0.0,0.0,0.0,0.0,0.0,0.0,0.0,0.0,0.0,0.0,0.0,0.0,0.0,0.0,0.0,0.0,0.0,0.0,2.2798,2.3503,2.3998,2.4368,2.5476,2.5789,2.5221,2.6026,2.6774,2.7141,2.716,2.7581,2.837,2.8388,2.8608,2.8975,2.8975,2.8975,2.8975,2.8975,2.8975,2.8975,2.9331,2.945,2.9568,2.9823,3.0424,3.1007,3.1443,3.2176,3.3095,3.3455,3.2788,3.2125,3.3252,3.37,3.3902,3.4167,3.4101,3.3922,3.4298,3.4173,3.4047,3.4318,3.5017,3.5828,3.6478,3.7192,3.7911,3.8608,3.9506,4.0091,4.0113,4.0979,4.155,4.0906,4.1035,4.1057,4.0431,4.0716,4.1022,4.1198,4.2929,4.4566,4.5653,4.7161,4.8502,4.9461,4.959,4.959,4.959,4.959,4.959,4.959,4.9976,5.0129,5.0104,5.0741,5.1372,5.1596,5.1596,5.1846,5.2121,5.2121,5.2492,5.3132,5.3132,5.3685,5.4497,5.4497,5.5323,5.6509,5.7078,5.7751,5.8305,5.8882,5.9099,5.9099,0.0,0.0,0.0,0.0,0.0,0.0,0.0,0.0,0.0,0.0,0.0,0.0,0.0,0.0,0.0,0.0,0.0,0.0,2.2172,2.3393,2.4011,2.368,2.5459,2.5898,2.4556,2.5459,2.619,2.6738,2.6569,2.6965,2.793,2.8242,2.8608,2.8975,2.8975,2.8975,2.8975,2.8975,2.8975,2.8975,2.9331,2.945,2.9605,3.0363,3.0792,3.1084,3.2105,3.2568,3.2734,3.3095,3.3074,3.2934,3.3922,3.4063,3.384,3.3913,3.3968,3.3922,3.367,3.3922,3.4378,3.4845,3.5143,3.5769,3.6855,3.7192,3.7591,3.87,3.9726,4.0561,4.0662,4.1075,4.1293,4.0906,4.0647,4.0671,4.0782,4.0935,4.1529,4.3018,4.4405,4.5771,4.7209,4.8453,4.9332,4.959,4.959,4.959,4.959,4.959,4.9719,4.9976,5.0129,5.0359,5.0867,5.122,5.1721,5.2342,5.2342,5.2492,5.2861,5.3105,5.3105,5.3132,5.3349,5.3806,5.4497,5.5205,5.6136,5.7191,5.8003,5.8555,5.8882,5.9315,5.9422,5.9422,0.0,0.0,0.0,0.0,0.0,0.0,0.0,0.0,0.0,0.0,0.0,0.0,0.0,0.0,0.0,0.0,0.0,0.0,0.0,2.3035,2.3552,2.3119,2.4795,2.5348,2.4556,2.5348,2.6026,2.6591,2.6462,2.6861,2.7765,2.8003,2.8425,2.8975,2.8975,2.8975,2.8975,2.8975,2.8975,0.0,0.0,2.945,2.9605,3.0615,3.1123,3.1392,3.2435,3.2878,3.2942,3.3311,3.3434,3.3494,3.3793,3.3729,3.3605,3.3842,3.3796,3.3709,3.4033,3.4452,3.4952,3.5651,3.6115,3.6601,3.7869,3.8189,3.8551,3.9733,4.0634,4.1084,4.0991,4.1421,4.155,4.0906,4.0954,4.1066,4.0956,4.1371,4.2078,4.315,4.448,4.5809,4.7136,4.824,4.9047,4.959,4.959,4.959,4.959,4.9719,4.9873,5.0104,5.0359,5.0741,5.1372,5.1471,5.1846,5.2218,5.2368,5.2492,5.2615,5.3105,5.3227,5.3132,5.347,5.4074,5.4998,5.5468,5.6394,5.7528,5.8225,5.8773,5.9099,5.9422,5.9636,5.9773,0.0,0.0,0.0,0.0,0.0,0.0,0.0,0.0,0.0,1.7582,1.7582,1.7687,1.8016,1.8422,0.0,0.0,0.0,0.0,0.0,0.0,2.299,2.2683,2.3999,2.4778,2.4667,2.5238,2.5806,2.6482,2.6373,2.6736,2.7578,2.7746,2.8168,2.8783,2.8957,2.8975,2.8993,2.8975,2.8993,2.8993,2.9331,2.945,2.9605,0.0,3.1334,3.1738,3.2591,3.3105,3.3418,3.3796,3.3796,3.3737,3.3361,3.3375,3.3418,3.3796,3.367,3.3642,3.4712,3.5087,3.5335,3.6424,3.7094,3.7666,3.8745,3.9282,3.9823,4.1013,4.1505,4.1588,4.1293,4.1851,4.1897,4.0995,4.1394,4.1749,4.1308,4.1896,4.2442,4.2645,4.4118,4.546,4.6493,4.7581,4.8657,4.959,4.959,4.959,4.959,4.9873,5.0129,5.0232,5.0867,5.1372,5.1596,5.1596,5.1596,5.1721,5.1996,5.2121,5.2245,5.2861,5.3132,5.3254,5.3592,5.4433,5.5496,5.5613,5.6537,5.7892,5.8225,5.8664,5.9207,5.9422,5.9773,6.0092,0.0,0.0,0.0,0.0,0.0,0.0,0.0,0.0,0.0,1.7582,1.7582,1.7687,1.8016,1.8318,0.0,0.0,0.0,0.0,0.0,0.0,0.0,2.2909,2.4111,2.4573,2.4033,2.4144,2.4795,2.5916,2.5348,2.5576,2.6596,2.7373,2.7791,2.7776,2.8592,2.8874,2.8636,2.8874,2.8874,2.8636,2.9213,2.945,2.9643,3.0755,3.1359,0.0,3.2922,3.3359,3.3418,3.3418,3.3544,3.3418,3.3466,3.3359,3.3418,3.3418,3.3418,3.3642,3.4457,3.4832,3.5335,3.6167,3.6609,3.727,3.8293,3.853,3.9042,4.06,4.1107,4.1203,4.0968,4.1499,4.179,4.1133,4.1396,4.1834,4.2114,4.2311,4.2848,4.4208,4.5391,4.6493,4.7581,4.8657,4.9461,4.959,4.959,4.959,4.959,4.9873,5.0359,5.0867,5.1372,5.1596,5.1596,5.1596,5.1721,5.1996,5.2121,5.2368,5.2861,5.301,5.3227,5.3592,5.4047,5.4762,5.5496,5.6308,5.722,5.8195,5.8445,5.8991,5.9422,5.9773,6.0092,6.0377,0.0,0.0,0.0,0.0,0.0,0.0,0.0,1.7488,1.7582,1.7582,1.7582,1.7687,1.7806,1.8003,1.8331,0.0,0.0,0.0,0.0,0.0,0.0,2.257,2.3231,2.368,2.3921,2.3921,2.4351,2.5238,0.0,2.5613,2.6565,2.6743,2.7034,2.7481,2.7955,2.8181,2.802,2.8737,2.8874,2.8755,2.9094,2.9213,2.9424,3.0728,3.1807,0.0,3.3155,3.3418,3.3418,3.3418,3.3574,3.375,3.375,3.3613,3.3476,3.3691,3.375,3.3975,3.4943,3.5481,3.6022,3.7012,3.7398,3.7832,3.9087,3.9347,3.9711,4.1332,4.1625,4.1661,4.1377,4.173,4.204,4.1522,4.1971,4.232,4.2591,4.2682,4.3163,4.3858,4.4914,4.5978,4.7051,4.8109,4.9047,4.959,4.9719,4.9847,4.9847,5.0359,5.0867,5.1346,5.1471,5.1596,5.1596,5.1596,5.1721,5.2121,5.2245,5.2492,5.2861,5.3227,5.3349,5.3349,5.3833,5.4643,5.5701,5.6077,5.7107,5.8445,5.8664,5.9099,5.9773,6.0092,6.0407,6.0586,0.0,0.0,0.0,0.0,0.0,0.0,1.7437,1.7582,1.7582,1.7477,1.7582,1.7582,1.7582,1.7898,1.8227,0.0,0.0,0.0,0.0,0.0,0.0,0.0,2.2456,2.2909,2.3697,0.0,0.0,2.4573,2.4862,0.0,0.0,0.0,0.0,0.0,2.741,2.7481,2.7521,2.8379,2.8737,0.0,0.0,2.8975,2.9186,0.0,0.0,0.0,0.0,3.3418,3.3418,3.3418,3.3652,3.3945,3.4171,3.4034,3.3877,3.4132,3.4269,3.4665,3.5541,3.6224,3.68,3.7934,3.8191,3.857,3.9866,4.017,4.0537,4.2061,4.2247,4.2074,4.1783,4.213,4.2326,4.1965,4.2592,4.3084,4.2839,4.32,4.3437,4.3206,4.4112,4.5187,4.6358,4.7316,4.8502,4.959,5.0104,5.0359,5.0359,5.0867,5.1246,5.1596,5.1596,5.1596,5.1596,5.1596,5.1721,5.2121,5.2368,5.2615,5.2738,5.3227,5.3349,5.3227,5.3592,5.4524,5.5817,5.5845,5.6964,5.8555,5.8773,5.9345,5.9986,6.0272,6.0586,6.0794,0.0,0.0,0.0,0.0,0.0,0.0,1.7239,1.749,1.7477,1.7279,1.749,1.7582,1.7582,1.8108,1.8422,0.0,0.0,0.0,0.0,0.0,0.0,0.0,0.0,0.0,0.0,0.0,0.0,2.4033,2.4066,0.0,0.0,0.0,0.0,0.0,0.0,2.7263,2.7521,2.7882,0.0,0.0,0.0,0.0,0.0,0.0,0.0,0.0,0.0,3.3418,3.3418,3.3418,3.3457,3.3555,3.4329,3.4834,3.5052,3.4695,3.5131,3.5711,3.5751,3.6355,3.7197,3.7934,3.8191,3.857,3.9866,3.9908,4.0096,4.197,4.1971,4.1662,4.1715,4.2426,4.2853,4.2486,4.3481,4.4164,4.3444,4.38,4.388,4.3324,4.4112,4.5187,4.6358,4.7316,4.8526,4.9976,5.0614,5.0994,5.0994,5.112,5.1246,5.1596,5.1596,5.1596,5.1596,5.1596,5.1721,5.2121,5.2121,5.2492,5.3105,5.3132,5.3227,5.3592,5.4166,5.488,5.5613,5.6737,5.7528,5.8305,5.9099,5.9667,5.9986,6.0272,6.0586,6.0794,0.0,0.0,0.0,0.0,0.0,0.0,1.7463,1.7477,1.7582,1.7477,1.7477,1.7582,1.7582,1.7898,1.8227,1.8422,0.0,0.0,0.0,0.0,0.0,0.0,0.0,0.0,0.0,0.0,2.2909,2.336,2.3569,0.0,0.0,0.0,0.0,0.0,0.0,2.6231,2.6415,2.7056,0.0,0.0,0.0,0.0,0.0,0.0,0.0,0.0,0.0,0.0,3.3418,3.3418,3.3594,3.3975,3.4664,3.528,3.5411,3.4843,3.5151,3.5771,3.5771,3.6537,3.7545,3.7996,3.8191,3.857,3.9866,4.0105,4.0427,4.2038,4.2178,4.2086,4.2397,4.2858,4.3345,4.3648,4.404,4.4222,4.4118,4.3914,4.3697,4.3324,4.4112,4.5187,4.6358,4.7316,4.8632,5.0232,5.0867,5.1246,5.1346,5.1346,5.1471,5.1596,5.1596,5.1596,5.1596,5.1596,5.1721,5.2121,5.2368,5.2615,5.3132,5.3349,5.347,5.3592,5.3833,5.4643,5.5817,5.6279,5.7416,5.8773,5.9315,5.9743,6.0272,6.0586,6.069,6.0794,0.0,0.0,0.0,0.0,0.0,1.7477,1.7265,1.7477,1.7582,1.7371,1.7477,1.7582,1.7582,1.7806,1.8122,1.8213,1.8996,0.0,0.0,0.0,0.0,0.0,0.0,0.0,0.0,0.0,2.2683,2.2683,2.3048,2.3562,0.0,0.0,2.4476,2.54,0.0,0.0,0.0,0.0,0.0,0.0,0.0,0.0,0.0,0.0,0.0,0.0,0.0,0.0,0.0,0.0,0.0,3.3995,3.4505,3.4979,3.5348,3.5051,3.561,3.6192,3.5941,3.6811,3.7863,3.8005,3.8221,3.8702,3.9997,4.0388,4.0799,4.2084,4.2339,4.2339,4.257,4.2949,4.3443,4.4049,4.415,4.4271,4.4371,4.4278,4.3907,4.3658,4.4436,4.5595,4.6784,4.8084,4.9411,5.0614,5.112,5.1346,5.1596,5.1596,5.1596,5.1596,5.1596,5.1596,5.1596,5.1596,5.1846,5.2245,5.2465,5.2861,5.3227,5.347,5.3592,5.3592,5.3954,5.4762,5.5933,5.6251,5.7528,5.9099,5.9529,5.9955,6.0481,6.069,6.0794,6.0794,0.0,0.0,0.0,0.0,0.0,1.7265,1.643,1.7054,1.7371,1.6842,1.7265,1.7582,1.7582,1.7806,1.8016,1.8016,1.9104,0.0,0.0,0.0,0.0,0.0,0.0,0.0,0.0,0.0,2.2456,2.2116,2.2456,2.2642,2.2635,2.3309,2.4111,2.506,0.0,0.0,0.0,0.0,0.0,0.0,0.0,0.0,2.8763,0.0,0.0,0.0,0.0,0.0,0.0,0.0,0.0,0.0,0.0,3.4173,3.4604,3.5489,3.6595,3.7253,3.6152,3.6942,3.8067,3.7612,3.8082,3.8946,4.0018,4.0517,4.1035,4.2084,4.2339,4.2339,4.2339,4.2593,4.2949,4.32,4.3811,4.4193,4.4068,4.4781,4.514,4.4501,4.5295,4.6405,4.7846,4.9797,5.112,5.112,5.1346,5.1596,5.1596,5.1596,5.1596,5.1596,5.1596,5.1596,5.1596,5.1596,5.197,5.2588,5.2588,5.2983,5.3592,5.3592,5.3592,5.3592,5.4643,5.5323,5.6049,5.7162,5.8195,5.9207,5.9773,6.0197,6.0481,6.069,6.0794,6.0794,0.0,0.0,0.0,0.0,0.0,0.0,1.6961,1.7173,1.7279,1.7067,1.7371,1.7582,1.7582,1.7687,1.7806,1.8016,1.8888,0.0,0.0,0.0,0.0,0.0,0.0,0.0,0.0,2.1888,2.2002,2.2116,2.223,2.2398,2.2635,2.3058,2.3515,2.4096,2.4577,2.4857,0.0,0.0,0.0,0.0,2.7659,2.8129,2.8026,0.0,0.0,0.0,0.0,0.0,0.0,0.0,0.0,0.0,0.0,0.0,0.0,3.5127,3.6275,3.7186,3.6198,3.7348,3.8708,3.8245,3.8608,3.9341,4.0388,4.0777,4.1035,4.2084,4.2339,4.2339,4.2593,4.2696,4.3055,4.3881,4.3845,4.3993,4.4741,4.4483,4.4157,4.4474,4.4909,4.5805,4.7074,4.8738,5.0053,5.0994,5.1346,5.1596,5.1596,5.1596,5.1596,5.1596,5.1596,5.1596,5.1596,5.1872,5.1996,5.2245,5.2738,5.2983,5.3227,5.347,5.3592,5.3592,5.4643,5.5323,5.6049,5.7162,5.8415,5.9422,5.988,6.0302,6.069,6.0794,6.0794,6.0794,0.0,0.0,0.0,0.0,0.0,0.0,1.6855,1.7067,1.7173,1.7173,1.7477,1.7582,1.7582,1.7582,1.7741,1.7968,1.8741,0.0,0.0,0.0,0.0,0.0,0.0,0.0,2.1546,2.1675,2.166,2.1774,2.1888,2.188,2.1844,2.2406,2.2736,2.3067,2.3902,2.4363,0.0,0.0,0.0,0.0,2.6935,2.7557,2.7432,0.0,0.0,0.0,0.0,0.0,0.0,0.0,0.0,0.0,0.0,0.0,0.0,0.0,3.591,3.7108,3.631,3.7632,3.9061,3.8401,3.8872,3.9604,4.0647,4.0906,4.1293,4.2084,4.2339,4.2339,4.257,4.257,4.2905,4.3811,4.3563,4.3516,4.4746,4.4276,4.4191,4.504,4.5481,4.6241,4.7762,4.8868,4.9925,5.122,5.1471,5.1596,5.1596,5.1596,5.1596,5.1596,5.1596,5.1596,5.1596,5.1996,5.2121,5.2245,5.2861,5.3132,5.3227,5.347,5.3592,5.3713,5.4998,5.5701,0.0,5.7611,5.8852,5.9773,5.988,6.0302,6.0794,6.0794,6.0794,6.0794,0.0,0.0,0.0,0.0,0.0,0.0,0.0,1.6749,1.7173,1.7173,1.7371,1.7582,1.7582,1.7582,1.7702,1.8023,1.8523,0.0,0.0,0.0,0.0,0.0,0.0,0.0,2.1203,2.1432,2.1432,2.1203,2.1432,2.1318,2.073,2.1307,2.1862,2.2169,2.3248,2.407,0.0,0.0,0.0,0.0,2.6449,2.6935,0.0,0.0,0.0,0.0,0.0,0.0,0.0,0.0,0.0,0.0,0.0,0.0,0.0,0.0,0.0,0.0,0.0,3.759,3.8954,3.8146,3.8766,3.9888,4.0647,4.1035,0.0,4.2212,4.2339,4.2339,4.2339,4.2339,4.2466,4.3121,4.2906,4.3038,4.4032,4.4368,4.485,4.6174,4.6563,4.7464,4.9252,4.9694,5.0436,5.1471,5.1596,5.1596,5.1596,5.1596,5.1596,5.1596,5.1596,5.1596,5.1596,5.1996,5.2368,5.2588,5.2983,5.3227,5.3592,5.3592,5.3592,5.3713,5.5584,5.6394,5.6509,5.8415,5.9452,6.0016,6.0016,6.0302,6.0794,6.0794,6.0794,6.0794,0.0,0.0,0.0,0.0,0.0,0.0,0.0,0.0,0.0,0.0,1.7067,1.7384,1.7582,1.7582,1.7702,0.0,0.0,0.0,0.0,0.0,0.0,0.0,0.0,0.0,2.1203,2.1074,2.096,2.0845,2.073,2.05,2.0399,2.1067,2.1364,2.1449,2.2985,2.4163,0.0,0.0,0.0,0.0,2.5961,2.6571,0.0,0.0,0.0,0.0,3.0447,3.1665,0.0,0.0,0.0,0.0,0.0,0.0,0.0,0.0,3.5853,3.7018,3.6431,0.0,3.9324,3.8716,3.943,4.0279,0.0,4.1293,4.1444,4.2212,4.2339,4.2339,4.2339,4.2339,4.2454,4.2949,4.2872,4.3152,4.4437,4.4531,4.4398,4.4025,4.4383,4.5415,4.7738,4.8216,4.9257,5.1471,5.1596,5.1596,5.1596,5.1596,5.1596,5.1596,5.1596,5.1721,5.1996,5.2368,5.2615,5.2983,5.3349,5.347,5.3592,5.3592,5.3592,5.3713,5.5584,5.6394,5.6509,5.8525,5.9667,6.0016,6.0197,6.0481,6.0794,6.0794,6.0794,6.0794,0.0,0.0,0.0,0.0,0.0,0.0,0.0,0.0,0.0,0.0,1.6961,1.7279,1.7384,1.7477,1.7769,0.0,0.0,0.0,0.0,0.0,0.0,0.0,0.0,2.0385,2.0744,2.0615,2.0601,2.0716,2.0385,2.027,2.0284,2.0489,2.0676,2.1101,2.2828,2.41,0.0,0.0,2.5472,2.5103,2.5472,0.0,0.0,0.0,0.0,0.0,3.0195,3.1332,0.0,3.1875,3.2246,3.3066,0.0,0.0,0.0,0.0,3.5583,3.6473,3.6486,3.7946,3.9427,3.8947,3.9558,4.0539,4.1187,4.1315,4.1444,4.2212,4.2339,4.2339,4.2339,4.265,4.3008,4.3391,4.3481,4.3507,4.4066,4.4376,4.4386,4.3927,4.4003,4.5022,4.7606,4.8084,4.9127,5.1471,5.1596,5.1596,5.1596,5.1596,5.1596,5.1596,5.1596,5.1721,5.1846,5.2342,5.2588,5.2615,5.3227,5.347,5.3349,5.347,5.3592,5.3713,5.5116,5.6049,5.6509,5.8195,5.9315,6.0016,6.0302,6.0586,6.0794,6.0794,6.0794,6.0794,0.0,0.0,0.0,0.0,0.0,0.0,0.0,0.0,0.0,0.0,0.0,0.0,0.0,0.0,0.0,0.0,0.0,0.0,0.0,0.0,0.0,0.0,1.9809,2.004,2.027,2.027,2.0385,2.0601,2.027,2.0155,2.0169,1.9863,2.0178,2.0981,2.2704,2.3837,2.4532,2.4841,2.5103,2.5103,2.5103,0.0,0.0,0.0,0.0,0.0,0.0,0.0,0.0,3.1914,3.2187,3.2812,3.2525,0.0,0.0,0.0,0.0,0.0,3.63,3.782,3.93,3.8969,3.9558,4.0539,4.1187,4.1315,4.1444,4.2212,4.2339,4.2339,4.2339,4.2985,4.3718,4.395,4.407,4.3985,4.3392,4.3997,4.4277,4.4242,4.4339,4.5369,4.8133,4.8502,4.9411,5.1471,5.1596,5.1596,5.1596,5.1596,5.1596,5.1596,5.1596,5.1596,5.1596,5.2218,5.2465,5.2245,5.3227,5.347,5.3132,5.347,5.3592,5.3592,5.4643,5.5556,5.6509,5.7751,5.8991,6.0092,6.0407,6.0586,6.0794,6.0794,6.0794,6.0794,0.0,0.0,0.0,0.0,0.0,0.0,0.0,0.0,0.0,0.0,0.0,0.0,0.0,0.0,0.0,0.0,0.0,0.0,0.0,0.0,0.0,1.9475,1.9938,2.027,2.027,2.004,1.9924,1.9924,1.9707,1.9591,1.9488,1.973,2.0383,2.1583,2.2334,2.3331,2.419,2.4486,2.4857,2.5103,2.5103,0.0,0.0,0.0,0.0,0.0,0.0,0.0,0.0,3.2363,3.2637,3.3242,3.3203,0.0,0.0,0.0,0.0,0.0,3.63,3.757,3.8659,3.8821,3.9558,4.0539,4.1187,4.1315,4.1444,4.2212,4.2339,4.2339,4.2696,4.3241,4.3589,4.3566,4.3645,4.3603,4.3219,4.3447,4.3512,4.3735,4.4108,4.5279,4.7689,4.8347,4.9411,5.1471,5.1596,5.1596,5.1596,5.1596,5.1596,5.1596,5.1596,5.1596,5.1596,5.2218,5.2738,5.2983,5.3349,5.347,5.3132,5.347,5.3592,5.3592,5.4643,5.5644,5.6793,5.8026,5.9255,6.0377,6.0586,6.0794,6.0794,6.0794,6.0794,6.0794,0.0,0.0,0.0,0.0,0.0,0.0,0.0,0.0,0.0,0.0,0.0,0.0,0.0,0.0,0.0,0.0,0.0,0.0,0.0,0.0,1.9372,1.9372,1.9707,1.9822,1.9822,1.9707,1.9707,1.9809,1.9475,1.9475,1.9604,1.9945,2.055,2.146,2.2281,2.3032,2.3886,2.4409,2.4734,2.5103,0.0,0.0,0.0,0.0,0.0,0.0,0.0,0.0,0.0,0.0,3.2754,3.3047,3.3223,0.0,0.0,0.0,0.0,0.0,3.63,3.7377,3.8465,3.8503,3.9563,4.0645,4.1044,4.1176,4.1353,4.2023,4.2108,4.2275,4.2766,4.3345,4.3739,4.4006,4.4233,4.4179,4.3371,4.3771,4.408,4.4019,4.4388,4.5595,4.7953,4.8371,4.9411,5.1471,5.1596,5.1596,5.1596,5.1596,5.1596,5.1596,5.1596,5.1721,5.1872,5.2342,5.2615,5.2615,5.3105,5.3227,5.3132,5.347,5.3592,5.3592,5.4047,5.4998,5.6136,5.7328,5.8575,5.9743,6.0481,6.0794,6.0794,6.0794,6.0794,6.0794,0.0,0.0,0.0,0.0,0.0,0.0,0.0,0.0,0.0,0.0,0.0,0.0,0.0,0.0,0.0,0.0,0.0,0.0,0.0,1.9372,1.9372,1.9372,1.9372,1.9372,1.9372,1.9372,1.9475,1.9707,1.9475,1.9515,1.9815,2.0107,2.0443,2.0971,2.2032,2.2783,2.3271,2.4039,2.461,2.4857,0.0,0.0,0.0,0.0,0.0,0.0,0.0,0.0,0.0,0.0,0.0,0.0,0.0,0.0,0.0,3.4797,3.5418,3.5932,3.63,3.7228,3.8229,3.8336,3.9408,4.043,4.0678,4.0813,4.1129,4.155,4.1834,4.2028,4.2535,4.3249,4.3868,4.4564,4.4751,4.4501,4.336,4.408,4.4526,4.4273,4.4663,4.5731,4.7846,4.8371,4.9282,5.1094,5.1471,5.1596,5.1596,5.1596,5.1596,5.1596,5.1596,5.1721,5.1996,5.2368,5.2368,5.2245,5.2861,5.3132,5.3132,5.347,5.3592,5.3592,5.3592,5.4314,5.5584,5.6764,5.7915,5.9177,6.0377,6.0794,6.0794,6.0794,6.0794,6.0794,0.0,0.0,0.0,0.0,0.0,0.0,0.0,0.0,0.0,0.0,0.0,0.0,0.0,0.0,0.0,0.0,0.0,0.0,0.0,1.9372,1.9372,1.9372,1.9372,1.9372,1.9372,1.9372,1.9372,1.9488,1.9372,1.9506,1.9773,2.008,2.0214,2.0369,2.1589,2.2044,2.1896,2.3103,2.3852,2.4239,2.4487,0.0,0.0,0.0,0.0,0.0,0.0,0.0,0.0,0.0,0.0,0.0,0.0,0.0,3.4423,3.4797,3.5418,3.5932,3.63,3.7103,3.7954,3.838,3.9173,3.9711,3.9821,4.0105,4.0497,4.0843,4.1197,4.1745,4.2257,4.286,4.3754,4.5073,4.4135,4.3324,4.3228,4.3603,4.3858,4.4273,4.4663,4.5324,4.6941,4.7977,4.9023,5.0078,5.1094,5.1596,5.1596,5.1596,5.1596,5.1596,5.1596,5.1596,5.1596,5.1996,5.2245,5.2588,5.3227,5.3349,5.3132,5.347,5.3592,5.3592,5.3592,5.4286,5.5528,5.6736,5.7886,5.9117,6.0346,6.0794,6.0794,6.0794,6.0794,6.0794,0.0,0.0,0.0,0.0,0.0,0.0,0.0,0.0,0.0,0.0,0.0,0.0,0.0,0.0,0.0,0.0,0.0,0.0,0.0,1.9372,1.9372,1.9372,1.9372,1.9372,1.9372,1.9372,1.9372,1.9372,1.9372,1.9519,1.9813,2.0094,2.0389,2.0848,2.1742,2.2228,2.2646,2.3251,2.3852,2.4363,2.461,2.4857,0.0,0.0,0.0,0.0,0.0,0.0,0.0,0.0,3.2411,3.3027,3.3401,3.3953,3.4423,3.4797,3.5541,3.63,3.6423,3.7441,3.8488,3.8146,3.876,3.9453,3.9614,3.9677,3.9862,4.0496,4.0693,4.1177,4.2305,4.2812,4.3332,4.3985,4.3658,4.3184,4.3184,4.3719,4.4135,4.4273,4.4823,4.5619,4.6808,4.734,4.824,4.995,5.0461,5.0968,5.1596,5.1596,5.1596,5.1596,5.1596,5.1721,5.1872,5.2218,5.2615,5.2861,5.3105,5.3349,5.347,5.3592,5.3592,5.3592,5.3592,5.3926,5.4734,5.6308,5.744,5.8356,6.0136,6.0794,6.0794,6.0794,6.0794,6.0794,0.0,0.0,0.0,0.0,0.0,0.0,0.0,0.0,0.0,0.0,0.0,0.0,0.0,0.0,0.0,0.0,0.0,0.0,1.9127,1.9256,1.9372,1.9372,1.9372,1.9372,1.9372,1.9372,1.9372,1.9372,1.9372,1.9519,1.9813,2.0094,2.0456,2.0917,2.1686,2.2187,2.2477,2.3062,2.3604,2.41,2.4363,2.461,0.0,0.0,0.0,0.0,0.0,0.0,0.0,0.0,3.1818,3.2793,3.2917,3.3689,3.4423,3.4797,3.5418,3.5932,3.6055,3.6979,3.7996,3.7762,3.8266,3.8933,3.928,3.9206,3.9406,3.9742,4.0077,4.0825,4.2189,4.2527,4.2904,4.3331,4.325,4.3184,4.3302,4.3858,4.4411,4.4388,4.5074,4.5619,4.6405,4.6674,4.7473,4.9023,4.9668,5.0461,5.1094,5.1471,5.1596,5.1596,5.1596,5.1721,5.1996,5.2218,5.2615,5.2983,5.2983,5.3227,5.3592,5.3592,5.3592,5.3592,5.3592,5.3713,5.4074,5.5761,5.7216,5.8466,6.0136,6.0794,6.0794,6.0794,6.0794,6.0794,0.0,0.0,0.0,0.0,0.0,0.0,0.0,0.0,0.0,0.0,0.0,0.0,0.0,0.0,0.0,0.0,0.0,0.0,1.8415,1.901,1.9372,1.9372,1.9372,1.9372,1.9372,1.9372,1.9372,1.9372,1.9372,1.9519,1.9813,2.0094,2.0241,2.0267,2.1216,2.145,2.1314,2.2228,2.2856,2.3106,2.3852,2.4363,2.461,0.0,0.0,0.0,0.0,0.0,0.0,0.0,3.0709,3.2793,3.2382,3.3296,3.4423,3.4797,3.4922,3.5046,3.5294,3.5665,3.6226,3.7265,3.7674,3.7974,3.8678,3.8749,3.8681,3.8681,3.9604,4.0694,4.2016,4.2215,4.2526,4.3399,4.3388,4.3302,4.3719,4.3997,4.4411,4.48,4.521,4.5347,4.5347,4.6271,4.6941,4.6941,4.8893,5.0078,5.0078,5.1094,5.1596,5.1596,5.1596,5.1596,5.1596,5.1996,5.2245,5.2588,5.2983,5.3227,5.3592,5.3592,5.3592,5.3592,5.3592,5.3592,5.3713,5.5295,5.7328,5.9576,6.0451,6.0794,6.0794,6.0794,6.0794,6.0794,0.0,0.0,0.0,0.0,0.0,0.0,0.0,0.0,0.0,0.0,0.0,0.0,0.0,0.0,0.0,0.0,0.0,0.0,1.8415,1.8532,1.8894,1.9372,1.9372,1.9372,1.9372,1.9372,1.9372,1.9372,1.9573,1.972,1.9813,2.0307,2.0671,2.0931,2.1436,2.1811,2.2228,2.2438,2.2981,2.3479,2.3604,2.41,2.461,0.0,0.0,0.0,0.0,0.0,0.0,0.0,0.0,0.0,3.1834,3.306,3.4423,3.4797,3.5418,3.5932,3.6055,3.6664,3.7255,3.7678,3.7926,3.8145,3.8295,3.8408,3.8437,3.8946,3.9619,4.0363,4.135,4.1507,4.1743,4.2817,4.2606,4.2514,4.3258,4.3441,4.3558,4.3974,4.4526,4.4937,4.4937,4.5483,4.616,4.6808,4.824,4.9282,5.0078,5.1094,5.1596,5.1596,5.1596,5.1721,5.1996,5.1996,5.2368,5.2983,5.2983,5.3227,5.3592,5.3592,5.3592,5.3592,5.3592,5.3592,5.3713,5.4942,5.6451,5.8055,5.9117,5.9683,5.9925,6.0586,6.0794,6.0794,0.0,0.0,0.0,0.0,0.0,0.0,0.0,0.0,0.0,0.0,1.5498,1.6051,0.0,0.0,0.0,0.0,0.0,0.0,1.7596,1.8064,1.8544,1.901,1.9243,1.9372,1.9372,1.9479,1.9479,1.9372,1.9653,1.9853,1.9987,2.0454,2.0805,2.1053,2.1227,2.1727,2.2355,2.223,2.2606,2.323,2.3355,2.3728,2.4255,0.0,0.0,0.0,0.0,0.0,0.0,0.0,0.0,0.0,3.0907,3.2343,3.4047,3.4047,3.4528,3.5025,3.5046,3.556,3.6243,3.6929,3.7494,3.7868,3.8109,3.8191,3.8304,3.8946,3.9178,3.9683,4.0323,4.0493,4.0878,4.1527,4.1575,4.1977,4.2835,4.3032,4.3419,4.4112,4.4526,4.48,4.5074,4.521,4.5619,4.6271,4.7316,4.8371,4.9411,5.0436,5.122,5.1596,5.1596,5.1721,5.1872,5.1996,5.2368,5.2861,5.2983,5.3227,5.3592,5.3592,5.3592,5.3592,5.3592,5.3713,5.3833,5.4942,5.5992,5.7078,5.8136,5.8684,5.9069,5.9925,6.0241,6.0346,0.0,0.0,1.2436,1.2436,0.0,0.0,0.0,0.0,0.0,0.0,1.5233,1.5591,0.0,0.0,0.0,0.0,0.0,0.0,0.0,1.7596,1.8298,1.8415,1.901,1.9372,1.9372,1.9626,1.9639,1.9412,1.9693,1.9973,2.0241,2.0561,2.0722,2.0722,2.0989,2.1488,2.2104,2.1727,2.1978,2.2606,2.301,2.3399,2.3818,2.4779,0.0,0.0,0.0,0.0,0.0,0.0,0.0,0.0,2.985,3.1383,3.3292,3.3038,3.2892,3.3019,3.3038,3.3272,3.3926,3.5599,3.6595,3.7482,3.8117,3.8191,3.8304,3.8681,3.8681,3.8814,3.9078,3.9571,3.9869,3.9912,4.0635,4.1486,4.2304,4.2813,4.3514,4.4526,4.48,4.4937,4.5347,4.5347,4.537,4.537,4.6271,4.734,4.824,4.9411,5.0588,5.1471,5.1596,5.1596,5.1596,5.1996,5.2245,5.2588,5.2983,5.3227,5.3592,5.3592,5.3592,5.3592,5.3592,5.3713,5.4074,5.497,5.5673,5.6279,5.7245,5.7722,5.8195,5.9147,5.9469,5.9576,0.0,0.0,1.2436,1.2436,0.0,0.0,0.0,0.0,0.0,0.0,0.0,0.0,0.0,0.0,0.0,0.0,0.0,0.0,0.0,1.6773,1.7361,1.8415,1.901,1.9372,1.9372,1.9426,1.9546,1.9706,2.0,2.0174,2.0241,2.0775,2.1015,2.1015,2.1082,2.1488,2.2104,2.1978,2.2355,2.301,2.3384,2.3866,2.4417,2.4879,2.5747,0.0,0.0,0.0,0.0,0.0,0.0,0.0,3.0032,3.1608,3.3292,3.3019,3.3505,3.4007,3.3796,3.3902,3.4418,3.5463,3.6609,3.7618,3.8067,3.8191,3.8304,3.8681,3.8681,3.8814,3.9078,3.9295,3.9486,3.9869,4.0082,4.0622,4.1921,4.2391,4.2864,4.3791,4.4388,4.48,4.4937,4.521,4.537,4.537,4.6271,4.6941,4.7208,4.9023,5.0206,5.0461,5.122,5.1596,5.1596,5.1996,5.2245,5.2588,5.2983,5.3227,5.3592,5.3592,5.3592,5.3592,5.3592,5.3592,5.3713,5.3954,5.4433,5.5054,5.5905,5.6566,5.7274,5.8931,5.9469,5.9576,0.0,0.0,0.0,0.0,0.0,0.0,0.0,0.0,0.0,0.0,0.0,0.0,0.0,0.0,0.0,0.0,0.0,0.0,0.0,1.6301,1.6891,1.7948,1.9024,1.9389,1.8894,1.9522,1.9786,1.98,2.0227,2.0441,2.0454,2.0762,2.0975,2.1109,2.1109,2.1488,2.2104,2.1978,2.2314,2.3102,2.3276,2.3819,2.4638,2.51,2.5758,2.6503,2.6771,0.0,0.0,0.0,0.0,0.0,0.0,0.0,3.2892,3.2638,3.3505,3.4258,3.3418,3.3776,3.4669,3.5886,3.7006,3.7881,3.8129,3.8191,3.8325,3.8437,3.8437,3.857,3.8702,3.8702,3.8919,3.9284,3.9382,3.9833,4.1001,4.1395,4.1993,4.3414,4.3892,4.4392,4.5051,4.521,4.537,4.537,4.589,4.6405,4.6941,4.7977,4.9023,5.0078,5.0588,5.1094,5.1596,5.2094,5.2492,5.2588,5.3105,5.3349,5.3349,5.347,5.3592,5.3592,5.3592,5.3592,5.3592,5.3592,5.3981,5.4607,5.5144,5.5701,5.6394,5.7722,5.8246,5.8386,0.0,0.0,0.0,0.0,0.0,0.0,0.0,0.0,0.0,0.0,0.0,0.0,0.0,0.0,0.0,0.0,0.0,0.0,0.0,0.0,0.0,1.7433,1.8707,1.9233,1.8568,1.9494,1.9986,1.988,2.0361,2.0628,2.0681,2.0722,2.0882,2.1109,2.1109,2.1488,2.2104,2.1866,2.2286,2.3092,2.3278,2.3881,2.4725,2.5464,2.5897,2.636,2.6889,2.7095,2.714,2.752,0.0,0.0,0.0,0.0,3.2384,3.2275,3.3272,3.4007,3.2912,3.3583,3.4831,3.6449,3.7446,3.8088,3.8171,3.8191,3.8191,3.8191,3.8191,3.8191,3.8191,3.8191,3.8304,3.8549,3.8749,3.9155,4.018,4.0522,4.1358,4.3174,4.3377,4.3985,4.5186,4.5232,4.5278,4.5347,4.537,4.5754,4.654,4.6808,4.7846,4.9797,4.995,5.0588,5.1596,5.2218,5.2588,5.2588,5.3227,5.3349,5.2983,5.3349,5.347,5.347,5.347,5.347,5.3592,5.3592,5.3981,5.4607,5.4607,5.4936,5.5613,5.6509,5.6822,5.7162,0.0,0.0,0.0,0.0,0.0,0.0,0.0,0.0,0.0,0.0,1.4124,1.4381,0.0,0.0,0.0,0.0,0.0,0.0,0.0,0.0,0.0,1.6966,1.7721,1.8443,1.9127,1.9203,1.9594,2.0174,2.0254,2.0428,2.0681,2.0935,2.1069,2.1109,2.1109,2.1488,2.2104,2.2104,2.2413,2.3107,2.3767,2.4348,2.5069,2.5814,2.6253,2.6727,2.7003,2.6923,2.6824,2.747,2.8006,0.0,0.0,0.0,3.2256,3.1763,3.2638,3.3922,3.3418,3.4073,3.5255,3.6531,3.7198,3.7695,3.8088,3.8191,3.8191,3.8191,3.8191,3.8191,3.8191,3.8191,3.8191,3.8304,3.8479,3.9045,3.9869,4.049,4.1374,4.2683,4.3128,4.3731,4.4658,4.4704,4.4887,4.5324,4.537,4.5483,4.5619,4.6405,4.7473,4.8632,4.9668,5.0588,5.1596,5.2218,5.2588,5.2588,5.2983,5.2983,5.2738,5.2711,5.2861,5.3132,5.2861,5.3105,5.3592,5.3227,5.374,5.4607,5.4607,5.4936,5.5613,5.6509,5.6936,5.7303,0.0,0.0,0.0,0.0,0.0,0.0,0.0,0.0,0.0,0.0,0.0,1.4291,0.0,0.0,0.0,0.0,0.0,0.0,0.0,0.0,0.0,1.642,1.7416,1.8277,1.8753,1.9148,1.9594,1.9853,2.0394,2.0539,2.0407,2.0916,2.1109,2.1109,2.1109,2.1362,2.1853,2.1853,2.2398,2.3364,2.3768,2.4247,2.5115,2.5816,2.6065,2.6152,2.6937,2.7101,2.6987,2.7522,2.811,2.8572,2.9134,0.0,0.0,0.0,3.3038,3.4173,3.4423,3.4745,3.5335,3.6552,3.7156,3.7612,3.8088,3.8191,3.8191,3.8191,3.8191,3.8191,3.8191,3.8191,3.8304,3.8437,3.8549,3.8877,3.964,4.0322,4.1023,4.2301,4.2632,4.3231,4.4107,4.4153,4.4382,4.4887,4.4933,4.5048,4.5347,4.589,4.654,4.7581,4.8632,4.9668,5.0715,5.1846,5.2368,5.2588,5.2738,5.2615,5.2368,5.2368,5.2492,5.2861,5.2588,5.2711,5.3105,5.3105,5.3498,5.4101,5.446,5.4817,5.5261,5.6049,5.6308,5.6394,0.0,0.0,0.0,0.0,0.0,0.0,0.0,0.0,0.0,0.0,0.0,0.0,0.0,0.0,0.0,0.0,0.0,0.0,0.0,0.0,0.0,1.5946,1.7165,1.7819,1.8125,1.8875,1.9261,1.9512,2.0358,2.0589,2.0081,2.0843,2.1109,2.1109,2.1109,2.1276,2.1724,2.185,2.2465,2.3417,2.3679,2.4185,2.4882,2.5622,0.0,2.5764,2.6672,0.0,0.0,2.7426,2.8031,2.8774,2.9179,3.0183,0.0,0.0,0.0,3.4673,3.517,3.5374,3.5865,3.6825,3.7369,3.7785,3.8233,3.8253,3.8191,3.8191,3.8191,3.8191,3.8191,3.8191,3.8304,3.8549,3.8681,3.8946,3.9494,3.9888,4.0541,4.1678,4.1983,4.2447,4.3448,4.3493,4.3722,4.4359,4.452,4.4704,4.4956,4.5094,4.5634,4.6537,4.7448,4.8411,4.9467,5.1016,5.197,5.2465,5.2465,5.2368,5.1996,5.1996,5.2121,5.2342,5.2342,5.2465,5.2588,5.2861,5.3227,5.3713,5.4341,5.4817,5.5026,5.5613,5.5729,5.5845,0.0,0.0,0.0,0.0,0.0,0.0,0.0,0.0,0.0,0.0,0.0,0.0,0.0,0.0,1.4291,1.465,1.4411,1.4291,1.465,1.466,1.5121,1.5935,1.6306,0.0,1.7771,1.8012,1.8407,1.9188,1.9826,2.0081,2.0081,2.0843,2.1109,2.1109,2.1109,2.1524,2.2038,2.2424,2.2641,2.3061,2.3728,2.4111,2.4496,0.0,0.0,0.0,0.0,0.0,0.0,0.0,0.0,2.8328,2.798,2.9153,3.0809,0.0,0.0,0.0,3.4922,3.5894,3.7107,3.7758,3.801,3.813,3.8605,3.8481,3.8191,3.8191,3.8191,3.8191,3.8191,3.8191,3.8191,3.8191,3.8437,3.8814,3.921,3.9494,4.0018,4.0821,4.0928,4.141,4.2577,4.2623,4.2958,4.3808,4.4313,4.4405,4.39,4.4359,4.4937,4.5467,4.6049,4.681,4.7819,4.9672,5.122,5.2121,5.2121,5.1996,5.1596,5.1596,5.1596,5.1596,5.1596,5.197,5.2588,5.2588,5.2983,5.3713,5.4341,5.4817,5.5026,5.5379,5.5729,5.599,0.0,0.0,0.0,0.0,0.0,0.0,0.0,0.0,0.0,0.0,0.0,0.0,0.0,1.4411,1.453,1.453,1.453,1.471,1.5104,1.5237,1.5669,1.6398,1.6635,1.7052,1.7908,1.7988,1.8162,1.8419,1.9571,1.9826,1.9456,2.0602,2.1216,2.139,2.1189,2.1524,2.2066,2.2194,2.28,2.3651,2.3849,2.4172,0.0,0.0,0.0,0.0,0.0,0.0,0.0,0.0,0.0,0.0,2.836,2.9093,3.0001,3.0901,3.2143,3.3524,3.4298,3.5293,3.6206,3.7213,3.7697,3.8115,3.8298,3.8449,3.8523,3.8253,3.8191,3.8191,3.8191,3.8191,3.8191,3.8191,3.8702,3.9078,3.921,3.9866,4.0517,4.0777,4.1035,4.1254,4.1691,4.1714,4.2176,4.2935,4.3271,4.3431,4.3808,4.3992,4.4124,4.4333,4.5279,4.6706,4.8711,4.9444,5.0481,5.1721,5.1721,5.1721,5.1596,5.1596,5.1596,5.1596,5.1596,5.1721,5.197,5.2245,5.2615,5.3105,5.3954,5.446,5.4817,5.5496,5.5729,5.5729,0.0,0.0,0.0,1.3286,0.0,1.3986,1.4055,1.4193,1.4172,1.4291,0.0,0.0,0.0,0.0,1.4411,1.4411,1.448,1.4821,1.5471,1.5679,1.6003,1.6538,1.6764,1.7139,1.7524,1.7602,1.7647,1.7647,1.906,1.9584,1.9072,2.0475,2.1269,2.155,2.1349,2.1598,2.2236,2.2497,2.305,2.382,2.413,0.0,2.4554,0.0,0.0,0.0,0.0,0.0,0.0,0.0,0.0,0.0,0.0,0.0,2.9371,3.0534,3.1633,3.2638,3.3524,3.4528,3.5687,3.6687,3.7318,3.7803,3.8157,3.8333,3.8491,3.8212,3.8191,3.8191,3.8191,3.8191,3.8191,3.8191,3.8702,3.921,3.921,3.9997,4.0647,4.0647,4.0799,4.1057,4.1164,4.1164,4.145,4.2305,4.2486,4.2776,4.3303,4.3464,4.3556,4.3556,4.4207,4.583,4.8203,4.833,4.9166,5.0407,5.0558,5.0809,5.0935,5.0935,5.1164,5.1596,5.1596,5.1596,5.1596,5.2094,5.2368,5.2711,5.3833,5.4341,5.4726,5.5524,5.5729,5.5613,0.0,1.3163,1.349,1.347,1.3732,1.3918,1.3775,1.4052,1.4291,1.454,0.0,0.0,0.0,0.0,0.0,1.4191,1.4367,1.4861,1.5491,1.57,1.595,1.6334,1.6549,1.6678,1.6678,1.6894,1.7001,1.7001,1.8431,1.9084,1.9084,2.0488,2.1283,2.1577,2.1577,2.1897,2.2432,2.3223,2.3537,2.3434,0.0,2.4596,2.4834,0.0,0.0,0.0,2.5422,2.568,0.0,0.0,0.0,0.0,0.0,0.0,0.0,2.952,3.1066,3.2384,0.0,0.0,0.0,3.6494,3.6939,3.7382,3.8366,3.8345,3.8047,3.8221,3.8191,3.8191,3.8191,3.8191,3.8191,3.8191,3.8835,3.921,3.921,3.9888,4.0279,4.0279,4.0279,4.0409,4.0777,4.0777,4.1035,4.1678,4.2282,4.248,4.2234,4.2798,4.3074,4.3074,4.3074,4.4054,4.6109,4.6501,4.7175,4.8203,4.8634,4.9141,4.9742,4.9742,5.04,5.157,5.157,5.157,5.1721,5.2342,5.2588,5.2711,5.4101,5.4607,5.4726,5.5261,5.5496,5.5496,1.2984,1.327,1.3548,1.3723,1.3976,1.4222,1.4282,1.4411,1.459,0.0,0.0,0.0,0.0,1.462,1.4661,1.534,1.5523,1.5718,1.593,1.6276,1.6509,1.6807,1.6872,1.6915,1.6915,1.6969,1.7001,1.7001,1.7905,1.8653,1.9362,2.027,2.1176,2.2178,2.2178,2.2392,2.2726,2.3319,2.3806,2.428,2.4526,2.4525,0.0,0.0,0.0,0.0,0.0,2.3736,2.4801,0.0,2.55,2.663,0.0,0.0,0.0,0.0,0.0,3.112,3.2128,0.0,0.0,0.0,0.0,0.0,3.7461,3.7722,3.7893,3.8395,3.8437,3.8191,3.8191,3.8191,3.8304,3.8549,3.8946,3.921,3.921,3.9888,4.0279,4.0279,4.0279,4.0279,4.0409,4.0409,4.0647,4.1035,4.1427,4.1708,4.1934,4.2326,4.2545,4.2545,4.2545,4.352,4.5562,4.5974,4.681,4.8203,4.8634,4.8938,4.9276,4.9276,4.9832,5.1021,5.1021,5.138,5.1996,5.2121,5.2615,5.3349,5.3954,5.4552,5.4936,5.5379,5.5496,5.5496,1.3202,1.3489,1.375,1.3858,1.4084,1.4441,1.453,1.454,1.4741,0.0,0.0,0.0,0.0,1.5003,1.5268,1.5535,1.5887,1.6106,1.6382,1.6626,1.6861,1.7001,1.7001,1.7001,1.7001,1.7001,1.7001,1.7001,1.8136,1.8924,1.947,2.0628,2.1582,2.2418,2.2418,2.2579,2.2983,2.3486,2.3798,0.0,2.4484,0.0,0.0,2.3337,2.3235,0.0,0.0,0.0,2.4524,2.4066,2.4969,0.0,0.0,0.0,0.0,0.0,0.0,0.0,0.0,0.0,3.3,3.365,0.0,0.0,3.6261,3.6537,3.6809,3.7489,3.7631,3.7705,3.7811,3.8202,3.8398,3.8458,3.8946,3.921,3.9363,3.9888,4.0279,4.0279,4.0279,4.0279,4.0279,4.0279,4.0409,4.0777,4.1035,4.1293,4.1806,4.1934,4.2212,4.2339,4.2466,4.309,4.4396,4.5063,4.5718,4.6543,4.7051,4.7408,4.7828,4.8055,4.8982,5.0416,5.0773,5.1433,5.2368,5.2615,5.3105,5.3713,5.4194,5.4671,5.5026,5.5379,5.5496,5.5496,0.0,1.3808,1.4062,1.3842,1.4211,1.4641,1.4607,1.4646,1.4838,0.0,1.5337,1.5347,1.5377,1.5587,1.5701,1.5503,1.5918,1.6414,1.67,1.6915,1.7044,1.7044,1.7044,1.7044,1.7044,1.7044,1.7033,1.713,1.8711,1.9507,1.965,2.124,2.2058,2.2472,2.2472,2.2619,2.2996,2.3543,2.3679,2.3324,2.4049,2.409,0.0,0.0,2.3527,2.3539,2.2966,2.3598,2.4691,2.4095,2.4939,0.0,0.0,0.0,0.0,0.0,2.9464,0.0,0.0,0.0,0.0,3.2256,3.3272,0.0,3.5014,3.5126,3.5205,3.5879,3.672,3.7188,3.7213,3.8057,3.8647,3.8387,3.8702,3.921,3.9625,4.0018,4.0279,4.0279,4.0279,4.0279,4.0279,4.0279,4.0409,4.0777,4.0777,4.1035,4.1806,4.1806,4.1934,4.2339,4.2593,4.2847,4.3295,4.4125,4.438,4.4219,4.4785,4.5518,4.6266,4.6634,4.7933,4.9794,5.0558,5.1419,5.2342,5.3105,5.3592,5.3833,5.4671,5.5026,5.5144,5.5379,5.5496,5.5496,1.3627,1.3904,1.4231,1.4275,1.4669,1.4993,1.5206,1.537,1.5576,1.5676,1.558,1.565,0.0,1.5772,1.5961,1.6198,1.6488,1.6615,1.655,1.7043,1.7303,1.7303,1.7303,1.7303,1.7303,1.7303,1.7467,1.7776,1.8502,1.953,2.0737,2.127,2.1958,2.2779,2.2779,2.2806,2.2859,2.2996,2.2859,2.2611,2.3525,0.0,2.2566,2.2154,2.2089,2.2141,2.1723,2.2215,2.3399,2.4134,2.4905,2.5766,0.0,0.0,0.0,0.0,0.0,0.0,0.0,0.0,0.0,0.0,3.2403,0.0,3.4527,3.4754,3.5131,3.6404,3.6831,3.7055,3.7369,3.7872,3.8408,3.8967,3.8416,3.8283,3.921,3.9888,4.0279,4.0279,4.0279,4.0279,4.0279,4.0279,4.0279,4.0409,4.0647,4.1035,4.1806,4.1806,4.1934,4.2339,4.2339,4.3032,4.4193,4.4161,4.4569,4.5124,4.5079,4.5518,4.6142,4.624,4.7183,4.8863,4.909,4.9647,5.0715,5.1944,5.32,5.446,5.479,5.5144,5.5379,5.5496,5.5496,5.5496,1.4172,1.4291,1.4451,1.455,1.4912,1.5299,1.5525,1.5659,1.5813,1.6039,1.607,1.6111,0.0,0.0,1.6413,1.6629,1.6827,1.7077,1.6933,1.7182,1.7378,1.7378,1.726,1.7303,1.754,1.7443,1.7763,1.8422,1.8799,1.9792,2.1149,2.1429,2.1906,2.231,2.2722,2.2722,2.2448,2.2859,2.2953,2.2823,2.3247,0.0,2.1785,2.1657,2.1542,2.1406,2.1257,2.1849,2.3086,2.4327,2.5013,0.0,0.0,2.7289,2.7489,0.0,2.8793,2.8843,0.0,0.0,0.0,3.0879,0.0,0.0,0.0,3.3551,3.3869,3.5014,3.5726,3.6222,3.6395,3.7135,3.7971,3.8477,3.7798,3.7616,3.8507,3.866,3.866,3.866,3.8793,3.8925,3.8925,3.9473,3.9888,4.0279,4.0409,4.0777,4.155,4.155,4.1806,4.2339,4.257,4.3078,4.3589,4.397,4.4349,4.4611,4.4601,4.5001,4.5643,4.591,4.6826,4.8228,4.8629,4.9289,5.0206,5.132,5.2588,5.3926,5.4671,5.5144,5.5496,5.5496,5.5496,5.5496,1.4771,1.4781,1.4791,1.4952,1.5359,1.5803,1.6024,1.597,1.6028,1.6473,1.6504,0.0,0.0,0.0,0.0,0.0,1.6573,1.6838,1.7113,1.7145,1.7156,1.7378,1.7184,1.7281,1.7712,1.754,1.794,1.8799,1.9095,2.0042,2.1353,2.1632,2.1897,2.2035,2.2362,2.2362,2.2048,2.2638,2.2796,2.2754,0.0,2.2357,2.1659,2.1695,2.162,2.142,2.137,2.2074,2.3117,2.4412,2.507,2.5437,2.6526,2.6878,0.0,0.0,0.0,0.0,0.0,0.0,0.0,0.0,0.0,3.1967,0.0,0.0,0.0,3.3367,3.4356,3.5244,3.5281,3.6384,3.7452,3.7737,3.726,3.7053,3.7798,3.7197,3.6857,3.7038,3.7307,3.7575,3.7575,3.8395,3.9341,4.0018,4.0149,4.0409,4.1187,4.1315,4.1572,4.2339,4.2949,4.3247,4.3088,4.3897,4.4123,4.4094,4.4271,4.4683,4.5309,4.5718,4.6504,4.7758,4.846,4.9023,4.9694,5.0715,5.1695,5.2535,5.4166,5.5144,5.5496,5.5496,5.5496,5.5496,1.5443,1.5484,1.5794,1.5993,1.6308,1.6657,1.6894,1.6818,1.6721,1.6494,1.6234,0.0,0.0,0.0,0.0,0.0,0.0,0.0,1.5776,0.0,1.651,1.7389,1.7356,1.7453,1.7712,1.769,1.7959,1.8664,1.9267,2.0071,2.1353,2.1632,2.2173,2.2735,2.157,2.1685,2.2735,2.1583,2.0991,0.0,2.2167,2.3012,0.0,2.2127,2.1885,2.2103,2.1849,2.2341,2.3346,0.0,2.5186,2.5952,0.0,2.6418,2.6788,2.7518,0.0,0.0,0.0,0.0,0.0,0.0,3.1156,0.0,3.1912,0.0,3.2644,3.3231,0.0,3.4843,3.5422,0.0,0.0,3.7233,3.6725,3.648,3.7273,3.6371,3.6022,3.6958,3.7307,3.7575,3.7575,3.7975,3.8528,3.921,3.9341,3.9735,4.0777,4.1164,4.155,4.2293,4.2696,4.3285,4.4365,4.404,4.4189,4.4918,4.4563,4.4876,4.5838,4.591,4.6463,4.7533,4.7606,4.7762,4.7894,4.9332,5.0078,5.0537,5.3146,5.4643,5.5496,5.5496,5.5496,5.5496,1.5918,1.5947,1.6049,1.617,1.6444,1.67,1.6786,1.6915,1.6882,1.6494,1.6619,0.0,0.0,0.0,0.0,0.0,0.0,1.4967,0.0,0.0,0.0,1.7181,1.7321,1.7615,1.8121,1.8003,1.8276,1.9221,1.9022,1.9634,2.0909,2.1158,2.1358,2.1634,2.1187,2.0871,2.0918,2.0895,2.0816,0.0,0.0,2.3156,0.0,2.2203,2.1798,2.1925,2.2074,2.2908,2.3942,2.42,2.4933,0.0,0.0,0.0,0.0,0.0,0.0,0.0,0.0,0.0,0.0,0.0,0.0,0.0,3.1709,0.0,3.2294,3.2912,0.0,0.0,0.0,0.0,0.0,0.0,3.614,3.5814,3.6465,3.584,3.5691,3.6463,3.6831,3.7135,3.7514,3.728,3.7692,3.8791,3.9094,3.9604,4.0777,4.1164,4.155,4.2293,4.2799,4.342,4.4135,4.407,4.4319,4.4683,4.4443,4.4732,4.5477,4.579,4.6343,4.7064,4.7377,4.7497,4.7497,4.8289,4.9177,5.0155,5.1544,5.3052,5.4643,5.5261,5.5496,5.5496,1.6495,1.6355,1.6291,1.6474,1.6646,1.6754,1.6754,1.6894,1.6904,1.6718,0.0,0.0,1.7065,1.6471,0.0,0.0,0.0,1.4182,0.0,0.0,1.5673,1.645,1.7057,0.0,1.7851,1.8069,1.8473,1.9262,1.8714,1.9133,2.0388,2.0388,2.0665,2.0955,2.0485,2.0204,1.9901,2.0014,1.9946,1.996,2.1363,2.238,2.2841,2.2086,2.1735,2.1622,2.2035,2.3046,2.4095,2.4064,2.4573,2.5382,2.5418,2.5721,2.6466,0.0,0.0,0.0,2.8742,0.0,0.0,0.0,0.0,0.0,0.0,0.0,0.0,0.0,3.3038,0.0,0.0,0.0,3.5107,3.5956,0.0,3.5513,3.6095,3.5881,3.5699,3.6002,3.6302,3.6753,3.7278,3.6978,3.7334,3.8398,3.866,3.9323,4.0495,4.0777,4.1421,4.2293,4.2925,4.3451,4.3802,4.4075,4.4347,4.4347,4.4347,4.4635,4.5164,4.5694,4.6223,4.6752,4.7281,4.7497,4.7497,4.7894,4.8657,4.9668,5.0334,5.1695,5.3416,5.4643,5.5116,5.5144,1.6937,1.698,1.6969,1.698,1.699,1.699,1.699,1.7001,1.7087,1.7335,0.0,0.0,0.0,0.0,0.0,0.0,0.0,1.1553,1.2658,0.0,1.4113,0.0,0.0,1.6981,0.0,1.7642,1.8207,1.8433,1.8433,1.8843,1.9529,1.9529,2.0376,2.1634,1.9662,1.9611,2.0733,1.8693,1.7653,1.7517,1.9112,2.0283,2.1006,2.187,2.1722,2.1207,2.1622,2.2493,2.3386,2.379,2.4436,2.5063,2.5018,2.5271,2.5599,2.6087,0.0,0.0,2.7531,2.8246,2.8922,2.9691,0.0,0.0,0.0,0.0,3.1635,0.0,0.0,3.3165,3.3796,3.4423,3.4902,3.4716,3.5394,0.0,0.0,3.6588,3.6413,3.5241,3.597,3.6763,3.721,3.7466,3.7762,3.7947,3.7989,3.8439,3.9692,4.0105,4.0884,4.2293,4.2925,4.3451,4.3802,4.4075,4.4347,4.4347,4.4347,4.4635,4.5164,4.5694,4.6223,4.6752,4.7281,4.7497,4.7497,4.7894,4.8289,4.8706,5.0104,5.0842,5.1445,5.3295,5.4019,5.4166,1.6958,1.7001,1.6872,0.0,0.0,1.7001,1.7001,1.7141,1.7018,0.0,0.0,0.0,0.0,0.0,1.3609,0.0,0.0,1.1818,1.2391,1.3352,0.0,0.0,0.0,1.7005,0.0,1.7508,1.8068,1.8433,1.8433,1.8573,1.8843,1.9262,2.0098,2.0955,1.9547,1.9051,1.9337,1.8435,1.7575,1.6991,1.8759,1.9983,2.1006,2.2557,2.2716,2.219,2.2897,2.3647,2.4263,2.4258,2.4637,2.5215,2.4968,2.5295,2.5873,2.6072,2.646,2.7075,2.7366,2.7518,2.8028,2.9155,2.9676,3.0032,3.1099,0.0,0.0,0.0,0.0,0.0,3.2892,3.3776,3.4612,3.4841,3.5191,3.5665,0.0,3.6178,3.6529,3.6331,3.639,3.6742,3.7382,3.6628,3.6384,3.7179,3.6798,3.7465,3.9235,3.9747,4.0651,4.257,4.3075,4.3576,4.4099,4.4223,4.4347,4.4347,4.4347,4.4635,4.5164,4.5694,4.6223,4.6752,4.7281,4.7497,4.7497,4.763,4.805,4.86,4.9097,4.959,5.0334,5.2315,5.3078,5.32,1.698,1.7001,1.6872,0.0,0.0,1.7033,1.712,1.6876,0.0,0.0,1.5815,0.0,1.4866,0.0,1.3465,0.0,1.2224,1.1761,1.2066,1.3035,0.0,1.3665,1.5447,0.0,0.0,1.7176,1.7986,1.8128,1.841,1.8519,1.8433,1.8843,1.9598,2.0403,1.9437,1.8715,1.8446,1.809,1.7161,1.6205,1.813,1.937,2.0286,2.2313,2.3075,2.3041,2.3483,2.4031,2.4439,2.4263,2.446,2.4957,2.4708,2.514,2.579,2.5844,2.6254,2.6583,2.6718,2.6799,2.7059,2.8229,2.8593,2.8942,3.0188,3.0473,3.0473,0.0,0.0,0.0,0.0,3.3398,3.4423,3.4673,3.5046,3.5418,0.0,3.6178,3.6545,3.7032,3.7036,3.7129,3.7339,3.6828,3.6656,3.7119,3.6622,3.7152,3.8791,3.9206,4.0077,4.1775,4.2766,4.3451,4.395,4.4223,4.4347,4.4347,4.4539,4.4804,4.5164,4.5886,4.6391,4.6752,4.7281,4.7497,4.7497,4.7497,4.7918,4.86,4.86,4.8967,4.9847,5.1471,5.2342,5.2834,1.7001,1.7001,0.0,0.0,1.7012,0.0,0.0,0.0,1.5798,0.0,1.5283,1.4605,1.4605,1.3628,1.2998,1.2842,1.1862,0.0,1.1959,1.2662,0.0,0.0,1.4702,1.5354,1.499,1.6711,1.7622,1.7632,1.8338,1.8659,1.8455,1.8444,1.8986,1.9929,1.9085,1.8612,1.8289,1.7625,1.6554,1.5479,1.7114,1.816,1.9223,2.1233,2.279,2.3781,2.3366,2.3522,2.3808,2.3808,2.4093,2.4378,2.4364,2.4762,2.5455,2.544,2.5505,2.5549,2.5977,2.6148,2.628,2.7067,2.7467,2.7865,2.8642,2.8774,2.9036,2.9543,3.0602,3.1396,0.0,3.3165,3.4318,3.4423,3.4922,3.5665,3.63,3.6401,3.6646,3.7253,3.7616,3.758,3.7086,3.8043,3.8331,3.767,3.7274,3.7501,3.8109,3.8388,3.9,4.0051,4.2139,4.3224,4.32,4.3974,4.4247,4.4395,4.49,4.5164,4.5237,4.6247,4.6728,4.6776,4.7281,4.7497,4.7497,4.7497,4.7918,4.86,4.86,4.8967,4.9719,5.0689,5.1819,5.2956,1.7001,1.7001,1.7066,0.0,1.6739,1.6385,0.0,0.0,0.0,0.0,1.3932,1.3397,1.2551,1.2016,1.1839,1.1917,1.1537,0.0,0.0,0.0,0.0,1.2812,1.4357,1.4945,1.4601,1.5855,1.6901,1.7632,1.8039,1.829,1.8692,1.8519,1.8986,1.9941,1.926,1.9062,1.9033,1.8522,1.7683,1.6876,1.7635,1.8532,1.9586,2.0263,2.1692,2.3503,2.4116,2.4263,2.4409,2.4409,2.4409,2.4515,2.4589,2.4939,2.5313,2.5371,2.5664,2.5886,2.604,2.5967,2.625,2.6951,2.716,2.7502,2.8147,2.8625,2.8642,2.8362,2.924,3.0268,3.0638,3.2078,3.3475,3.4213,3.4922,3.5541,3.5932,3.5982,3.6161,3.6989,3.697,3.7232,3.7945,3.7848,3.7509,3.683,3.7156,3.7104,3.6559,3.749,3.8418,3.9382,4.0606,4.1714,4.2546,4.3428,4.4266,4.4948,4.5068,4.5549,4.6319,4.6583,4.692,4.7305,4.7449,4.7497,4.7497,4.7497,4.7762,4.8182,4.8445,4.8967,4.9719,5.0232,5.0715,5.1346,1.6613,0.0,0.0,1.7335,0.0,0.0,1.6378,1.5798,0.0,1.3997,1.3208,0.0,1.2094,1.1789,1.1782,1.1945,1.2066,0.0,1.261,0.0,0.0,1.3325,1.4047,1.4508,1.4297,1.531,0.0,1.7201,1.7653,1.8028,1.8627,1.8605,1.8855,1.9537,1.9344,1.9128,1.9041,1.8064,1.7549,1.7549,1.7241,1.7798,0.0,1.9077,2.0285,2.2073,2.3277,2.4179,2.4636,2.4636,2.4636,2.4609,2.4582,2.5112,2.5506,2.5611,2.5898,2.6222,2.6222,2.612,2.6114,2.6478,2.6571,2.6786,2.7406,2.7765,2.7987,2.7573,2.8626,2.9594,2.9613,3.1006,3.263,3.3942,3.4922,3.5541,3.5788,3.5435,3.5617,3.6767,3.6431,3.6729,3.8096,3.7955,3.7738,3.7363,3.7666,3.7715,3.7421,3.7766,3.8264,3.8687,3.9773,4.0585,4.1377,4.212,4.2905,4.3694,4.4441,4.5266,4.6049,4.6681,4.7209,4.7497,4.7497,4.7497,4.7497,4.7497,4.7762,4.8026,4.8551,4.9072,4.9461,5.0104,5.0487,5.0715,1.5974,0.0,0.0,0.0,0.0,0.0,0.0,1.5441,0.0,1.3847,0.0,1.2287,1.2425,1.2394,1.228,1.2559,0.0,1.2896,1.3325,1.3348,1.3491,1.3904,1.3928,1.4002,1.414,1.4864,1.5587,0.0,1.7171,1.7948,1.853,1.8702,1.8928,1.9208,1.9413,1.919,1.8521,1.7306,1.708,1.7573,1.6467,1.6507,1.7426,1.8168,1.8926,1.9984,2.1924,2.3426,2.4488,2.4488,2.4636,2.4636,2.4636,2.5212,2.58,2.58,2.6199,2.6574,2.6574,2.6325,2.6076,2.6076,2.6047,2.6158,2.6453,2.6858,2.7169,2.7152,2.8228,2.9093,2.8992,3.0206,3.1746,3.3223,3.4273,3.4814,3.5189,3.4398,3.4378,3.6118,3.5438,0.0,3.734,3.8043,3.8277,3.81,3.8309,3.8477,3.8633,3.8308,3.8067,3.7996,3.8814,3.9583,3.9932,4.0452,4.1106,4.2077,4.3602,4.4658,4.5239,4.6751,4.7497,4.7497,4.7497,4.7497,4.7497,4.7497,4.7762,4.8158,4.8812,4.9072,4.9332,5.0232,5.0588,5.0588,1.6104,0.0,0.0,0.0,0.0,1.5552,1.4938,1.3717,1.2803,1.2692,1.2394,1.2187,1.2302,1.2459,1.2745,1.2716,1.2738,0.0,0.0,0.0,0.0,1.3904,1.405,1.4075,1.3953,1.4382,1.531,1.6481,1.6739,1.7531,1.9025,1.8864,1.9015,1.9445,1.9478,1.9285,1.8896,1.8439,1.8019,1.7709,1.6925,1.6996,1.7426,1.7264,1.8016,1.952,2.0876,2.2235,2.3748,2.4341,2.4636,2.4636,2.4636,2.5212,2.58,2.58,2.6357,2.691,2.691,2.6661,2.6413,2.6413,2.6208,2.6158,2.6564,2.6843,2.7246,2.7478,2.7974,2.8627,2.9493,3.0324,3.0972,3.1574,3.1511,3.1443,3.1407,3.0839,3.1114,3.2819,3.206,3.2448,3.4886,3.7083,3.7797,3.6636,3.7949,3.772,3.5425,3.6367,3.6773,3.607,3.7015,3.7922,3.8882,3.9801,4.1022,4.257,4.3762,4.4844,4.575,4.6917,4.7497,4.7497,4.7497,4.7497,4.7497,4.7497,4.7918,4.8445,4.8576,4.9097,4.959,4.9976,5.0359,5.0715,0.0,0.0,0.0,0.0,0.0,0.0,1.4006,1.2978,1.2357,1.2641,1.2565,1.2617,1.3047,1.3047,1.3182,1.3325,1.3325,1.3468,1.3611,1.3786,1.3994,1.405,1.4213,1.427,1.418,1.4326,1.5095,1.635,1.6434,1.7355,1.8842,1.8881,1.9165,1.951,1.9306,1.9008,1.8642,1.799,1.7362,1.6943,1.6181,1.6291,1.6815,1.651,1.7416,1.8774,1.9671,2.0876,2.2085,2.4031,2.4341,2.4044,2.4044,2.4179,2.4301,2.4757,2.5492,2.6093,2.6546,2.6721,2.6749,2.6749,2.6632,2.6515,2.6214,2.65,2.6599,2.6281,2.6937,2.7802,2.8574,2.8985,2.9293,2.9323,2.9885,2.9969,2.9478,2.8691,2.8841,3.0681,2.9953,3.0606,3.3965,3.5394,3.629,3.6562,3.7946,3.8014,3.6589,3.691,3.691,3.6479,3.6445,3.6853,3.7575,3.8242,3.9263,4.0479,4.1948,4.313,4.3847,4.5186,4.6136,4.6697,4.6697,4.6965,4.7497,4.7497,4.7762,4.805,4.8445,4.8837,4.9227,4.9873,5.0359,5.0715,0.0,1.5593,0.0,0.0,1.4492,1.3734,1.3302,1.276,1.2474,1.2617,1.2753,1.3182,1.3753,1.3611,1.3626,1.3953,1.3961,1.3977,1.401,1.4188,1.4278,1.4237,1.4399,1.4473,1.4432,1.4432,1.5024,1.6057,1.6186,1.7059,1.8404,1.8905,1.9201,1.9287,1.9039,1.8508,1.8104,1.7006,1.6338,1.5949,1.5449,1.5562,1.6203,1.6203,1.6968,1.8025,1.8916,1.9671,2.0586,2.3129,2.3587,2.3141,2.3141,2.298,2.2967,2.3561,2.4301,2.4904,2.5653,2.5946,2.6239,2.6239,2.6239,2.6239,2.5653,2.58,2.5876,2.5029,2.584,2.6899,2.729,2.7447,2.7431,2.7599,2.8316,2.8611,2.7983,2.7141,2.7212,2.8553,2.8412,2.9478,3.2615,3.3714,3.4823,3.6261,3.7529,3.7967,3.7848,3.7363,3.7065,3.7065,3.636,3.6132,3.6519,3.6789,3.7435,3.831,4.0223,4.1374,4.2007,4.357,4.4755,4.5595,4.5754,4.6563,4.7497,4.7497,4.7497,4.763,4.8313,4.8576,4.8837,4.9615,5.0104,5.0487,0.0,0.0,0.0,1.3899,1.3617,1.3309,1.3325,1.3039,1.2617,1.2338,1.2904,1.3325,1.3325,1.3611,1.3969,1.414,1.4156,1.4221,1.4375,1.4554,1.4586,1.4416,1.4586,1.4603,1.4432,1.4432,1.4876,1.5606,1.6039,1.6774,1.7976,1.8632,1.8839,1.8744,1.8633,1.7836,1.676,1.63,1.5863,1.5351,1.5049,1.5445,1.6203,1.6203,1.6662,1.7578,1.8774,1.9531,1.9984,2.1475,2.2085,2.2247,2.2247,2.2533,2.2819,2.2819,2.3264,2.3561,2.3709,2.3709,2.3709,2.3709,2.4005,2.4301,2.4609,2.5051,2.5332,2.5583,2.5862,2.6068,2.6471,2.5912,2.5866,2.6929,2.6258,2.573,2.6064,2.6143,2.6038,2.5437,2.7127,2.8516,2.8764,3.189,3.4081,3.4308,3.583,3.6424,3.5277,3.5782,3.6093,3.6093,3.5996,3.6132,3.6519,3.6519,3.7144,3.831,3.993,4.1079,4.2007,4.357,4.4321,4.4481,4.546,4.6563,4.7497,4.7497,4.763,4.7894,4.8026,4.842,4.9072,4.9202,4.959,5.0104,1.3949,1.4173,1.4215,1.3507,1.3563,1.3468,1.3039,1.3039,1.3077,1.3039,1.3344,1.3625,1.3778,1.4011,1.4245,1.4326,1.4326,1.4359,1.4424,1.4603,1.4676,1.4603,1.4765,1.483,1.4757,1.4749,1.5051,1.5656,1.6151,1.6899,1.7921,1.816,1.8158,1.8058,1.7596,1.6961,1.6309,1.5726,1.5416,1.5065,1.4992,1.5429,1.6203,1.6203,1.6815,1.7721,1.8025,1.8633,1.9542,1.9693,2.0586,2.1487,2.1487,2.1337,2.1187,2.1625,2.2073,2.2372,2.2967,2.3264,2.3413,2.3709,2.3857,2.4018,2.387,2.4031,2.4031,2.3722,2.3722,2.4127,2.5472,2.5112,2.4647,2.4861,2.4688,2.4329,2.3928,2.3907,2.4305,2.5185,2.6168,2.7127,2.8473,3.1407,3.3162,3.3038,3.586,3.7255,3.6587,3.6469,3.6515,3.6809,3.6113,3.5858,3.6132,3.6384,3.7009,3.8037,3.9151,4.0021,4.092,4.1784,4.2538,4.3236,4.4343,4.5165,4.5572,4.5731,4.6294,4.6831,4.7208,4.7894,4.8837,4.9072,4.9461,5.0129,1.3729,1.3904,1.3904,1.3325,1.3468,1.3611,1.3039,1.3182,1.3531,1.3712,1.3783,1.3961,1.4253,1.4359,1.4456,1.4505,1.4513,1.4538,1.4586,1.4708,1.4781,1.4781,1.4903,1.4968,1.4968,1.4968,1.5122,1.5429,1.5911,1.6642,1.7322,1.7625,1.7588,1.7171,1.6707,1.6163,1.5888,1.5416,1.5082,1.4968,1.5122,1.5582,1.6203,1.6357,1.6959,1.7721,1.7426,1.8025,1.8785,1.8643,1.939,2.0436,2.0586,2.0296,1.9995,2.0586,2.0887,2.1187,2.1775,2.2223,2.2372,2.267,2.298,2.3129,2.2843,2.2843,2.3005,2.2408,2.2259,2.2682,2.4209,2.409,2.3904,2.3888,2.3891,2.3891,2.3391,2.3366,2.3883,2.5157,2.6097,2.7053,2.8059,3.048,3.1953,3.1773,3.4824,3.6701,3.6965,3.6821,3.6797,3.6777,3.6054,3.5758,3.6016,3.6268,3.6757,3.7625,3.8482,3.9208,4.01,4.0675,4.1431,4.2538,4.3375,4.393,4.4343,4.464,4.521,4.5731,4.6271,4.6941,4.7918,4.8289,4.8918,4.959,1.3325,1.3325,1.3182,1.2896,1.3039,1.3325,1.3325,1.3611,1.3969,1.4156,1.4326,1.4432,1.4432,1.4432,1.4505,1.4692,1.4708,1.4773,1.4952,1.496,1.496,1.496,1.496,1.4968,1.4968,1.4968,1.4968,1.4968,1.5429,1.5641,1.5905,1.6655,1.6766,1.6186,1.6186,1.5727,1.4968,1.4968,1.4968,1.4968,1.5429,1.5897,1.6203,1.6653,1.7111,1.7426,1.7426,1.7721,1.8025,1.8491,1.8946,1.9239,1.9693,1.9844,1.9844,1.9844,1.9844,1.9844,1.9995,1.9995,1.9995,1.9995,2.0609,2.1071,2.1071,2.166,2.2259,2.2259,2.2259,2.2335,2.2509,2.2965,2.3645,2.4671,2.4485,2.4485,2.5208,2.5356,2.5385,2.5116,2.7666,2.8567,2.6857,2.8956,3.0409,3.0099,3.2193,3.4072,3.5256,3.6216,3.6395,3.5489,3.5819,3.6016,3.6016,3.6016,3.6367,3.7233,3.8066,3.8928,3.9657,4.0513,4.1431,4.2538,4.2538,4.3375,4.48,4.48,4.5051,4.5324,4.5324,4.5595,4.6025,4.6674,4.7316,4.8109,1.3039,1.3182,1.3325,1.3182,1.3468,1.3753,1.3753,1.3866,1.4156,1.4326,1.4505,1.4667,1.4781,1.4797,1.4822,1.4879,1.4887,1.4911,1.496,1.4968,1.4968,1.4968,1.4968,1.4968,1.4968,1.4968,1.4968,1.4968,1.5429,1.5624,1.5846,1.6312,1.6203,1.5449,1.5479,1.5267,1.4968,1.4968,1.4968,1.4968,1.5429,1.5897,1.6203,1.6653,1.7264,1.7721,1.7426,1.8035,1.8785,1.8643,1.9098,1.9693,1.9844,1.9844,1.9844,1.9844,1.9844,1.9844,1.9844,1.9844,1.9995,2.0296,2.0759,2.1222,2.151,2.196,2.2259,2.2259,2.2259,2.2323,2.2509,2.2818,2.3151,2.3694,2.3615,2.3758,2.4188,2.4391,2.4662,2.5541,2.6668,2.6934,2.5982,2.8286,2.9781,2.952,3.2673,3.4824,3.5258,3.5782,3.6152,3.6425,3.5363,3.5205,3.5606,3.5606,3.6249,3.723,3.8067,3.9231,4.0513,4.08,4.1147,4.1431,4.1431,4.1714,4.2138,4.27,4.3258,4.3791,4.4366,4.5051,4.589,4.6405,4.7208,4.8109,1.3182,1.3325,1.3468,1.3468,1.3753,1.3904,1.3904,1.4058,1.4237,1.4408,1.4594,1.4773,1.4944,1.4968,1.4968,1.4968,1.4968,1.4968,1.4968,1.4968,1.4968,1.4968,1.4968,1.4968,1.4968,1.4968,1.4968,1.4968,1.5275,1.5496,1.5604,1.5633,1.5487,1.513,1.5017,1.4968,1.4968,1.4968,1.4968,1.5122,1.5582,1.605,1.6203,1.6806,1.7264,1.7721,1.7426,1.8025,1.8785,1.8643,1.9098,1.9693,1.9844,1.9844,1.9844,1.9844,1.9844,1.9844,1.9844,1.9844,1.9995,2.0145,2.0759,2.1222,2.181,2.2109,2.2259,2.2259,2.2259,2.2335,2.2215,2.267,2.2868,2.2998,2.3209,2.3497,2.3641,2.3834,2.4364,2.5711,2.604,2.6143,2.5862,2.7191,2.8033,2.8,3.0872,3.2939,3.3336,3.5158,3.6073,3.5898,3.5086,3.489,3.5489,3.5624,3.6186,3.7305,3.8467,3.9617,4.074,4.0882,4.0882,4.0882,4.0882,4.1025,4.1167,4.1735,4.2419,4.2979,4.3558,4.425,4.4937,4.5595,4.6271,4.7051,1.3904,1.3904,1.3904,1.3904,1.3904,1.3904,1.392,1.4075,1.4253,1.4424,1.4611,1.4789,1.4952,1.4968,1.4968,1.4968,1.4968,1.4968,1.4968,1.4968,1.4968,1.4968,1.4968,1.4968,1.4968,1.4968,1.4968,1.4968,1.4968,1.4968,1.4968,1.4968,1.4968,1.4968,1.4968,1.4968,1.4968,1.4968,1.4968,1.5122,1.5897,1.6203,1.6203,1.7121,1.7426,1.7426,1.7426,1.7721,1.8025,1.8491,1.8946,1.939,1.9693,1.9844,1.9844,1.9844,1.9844,1.9844,1.9844,1.9844,1.9844,1.9844,2.0458,2.1372,2.2109,2.2259,2.2259,2.2259,2.2259,2.2174,2.1921,2.2386,2.2769,2.2496,2.3031,2.3614,2.3614,2.3681,2.4317,2.5569,2.5755,2.5883,2.6182,2.5728,2.5459,2.5772,2.7463,2.8954,3.0203,3.441,3.605,3.4508,3.4714,3.5059,3.547,3.5893,3.6456,3.7344,3.9026,3.9858,4.031,4.074,4.0882,4.0882,4.0882,4.1167,4.1473,4.1877,4.2159,4.2581,4.3023,4.3184,4.3324,4.4388,4.4914,4.546,1.3904,1.3904,1.3904,1.3904,1.3904,1.3945,1.4091,1.4261,1.444,1.4619,1.4797,1.4919,1.496,1.4968,1.4968,1.4968,1.4968,1.4968,1.4968,1.4968,1.4968,1.4968,1.4968,1.4968,1.4968,1.4968,1.4968,1.4968,1.4968,1.4968,1.4968,1.4968,1.4968,1.4968,1.4968,1.4968,1.4968,1.4968,1.4968,1.4968,1.5582,1.5897,1.6203,1.6806,1.7111,1.7426,1.7721,1.8177,1.8491,1.8946,1.939,1.9693,1.9844,1.9844,1.9844,1.9844,1.9844,1.9844,1.9844,1.9844,1.9844,1.9844,2.0458,2.1372,2.2109,2.2259,2.2259,2.2259,2.2259,2.2174,2.1921,2.2238,2.2472,2.2496,2.2885,2.3177,2.3614,2.3852,2.4273,2.4616,2.482,2.4983,2.5065,2.4837,2.5308,2.6471,2.7977,2.9123,2.9889,3.2755,3.435,3.4367,3.4158,3.4232,3.4646,3.5338,3.6611,3.822,3.9166,3.9858,4.031,4.074,4.0882,4.0882,4.0882,4.1025,4.1025,4.1735,4.2018,4.2159,4.2883,4.3184,4.3324,4.3719,4.4388,4.5074,1.3904,1.3904,1.3904,1.3904,1.3904,1.3961,1.4148,1.4318,1.4497,1.4684,1.4862,1.4968,1.4968,1.4968,1.4968,1.4968,1.4968,1.4968,1.4968,1.4968,1.4968,1.4968,1.4968,1.4968,1.4968,1.4968,1.4968,1.4968,1.4968,1.4968,1.4968,1.4968,1.4968,1.4968,1.4968,1.4968,1.4968,1.4968,1.4968,1.4968,1.5429,1.5744,1.5897,1.6357,1.6662,1.6968,1.7264,1.7721,1.8187,1.8795,1.9249,1.9542,1.9844,1.9844,1.9844,1.9844,1.9844,1.9844,1.9844,1.9844,1.9995,2.0307,2.0759,2.1372,2.2109,2.2259,2.2259,2.2259,2.2259,2.2223,2.2078,2.2162,2.236,2.2362,2.278,2.3222,2.3516,2.3956,2.4396,2.4396,2.4543,2.4636,2.4636,2.4636,2.4918,2.5786,2.7167,2.8284,2.8788,3.0707,3.2349,3.3249,3.3648,3.3955,3.437,3.5527,3.6958,3.8531,3.9181,3.9734,4.0022,4.0453,4.074,4.0882,4.0882,4.0882,4.1025,4.1594,4.1735,4.1898,4.2462,4.2603,4.2743,4.3001,4.3558,4.4112,1.3904,1.3904,1.3904,1.3904,1.3928,1.4002,1.4188,1.4359,1.4538,1.4724,1.4879,1.4968,1.4968,1.4968,1.4968,1.4968,1.4968,1.4968,1.4968,1.4968,1.4968,1.4968,1.4968,1.4968,1.4968,1.4968,1.4968,1.4968,1.4968,1.4968,1.4968,1.4968,1.4968,1.4968,1.4968,1.4968,1.4968,1.4968,1.4968,1.4968,1.5429,1.5582,1.5582,1.605,1.6203,1.6203,1.6653,1.7121,1.7578,1.8339,1.8946,1.9239,1.9693,1.9844,1.9844,1.9844,1.9844,1.9844,1.9844,1.9844,2.0145,2.0759,2.1071,2.1222,2.2109,2.2259,2.2259,2.2259,2.2259,2.2259,2.2259,2.2259,2.2259,2.2259,2.2967,2.3536,2.3438,2.4153,2.473,2.4636,2.4636,2.4636,2.4636,2.4636,2.4636,2.4636,2.5932,2.6794,2.7215,2.866,3.0233,3.1542,3.2824,3.3557,3.4186,3.5557,3.7047,3.8331,3.8787,3.9241,3.9714,4.0166,4.0453,4.0882,4.0882,4.0882,4.0882,4.1331,4.1473,4.1473,4.1877,4.2018,4.2018,4.2419,4.2721,4.3001,1.3904,1.3904,1.3904,1.3904,1.4034,1.4196,1.4367,1.4546,1.4724,1.4903,1.4952,1.4968,1.4968,1.4968,1.4968,1.4968,1.4968,1.4968,1.4968,1.4968,1.4968,1.4968,1.4968,1.4968,1.4968,1.4968,1.4968,1.4968,1.4968,1.4968,1.4968,1.4968,1.4968,1.4968,1.4968,1.4968,1.4968,1.4968,1.4968,1.4968,1.5122,1.5275,1.559,1.5744,1.5897,1.6357,1.6968,1.7426,1.7578,1.8795,1.9098,1.9239,1.9693,1.9693,1.939,1.9844,1.9542,1.939,1.9844,1.9844,1.9995,2.0447,2.091,2.1222,2.166,2.2109,2.2259,2.2259,2.2259,2.2259,2.2259,2.2259,2.2259,2.2259,2.3529,2.417,2.3561,2.4688,2.5361,2.4757,2.4636,2.4636,2.4636,2.4636,2.4636,2.4636,2.5079,2.5653,2.6078,2.752,2.8676,2.9266,3.0676,3.1962,3.3003,3.4121,3.5451,3.6727,3.8027,3.8942,3.9714,4.0166,4.0453,4.0882,4.0882,4.0882,4.0882,4.1331,4.1473,4.1473,4.1877,4.2018,4.2018,4.2018,4.2159,4.23,1.3904,1.3904,1.3904,1.3904,1.4058,1.4237,1.4408,1.4586,1.4773,1.4944,1.4968,1.4968,1.4968,1.4968,1.4968,1.4968,1.4968,1.4968,1.4968,1.4968,1.4968,1.4968,1.4968,1.4968,1.4968,1.4968,1.4968,1.4968,1.4968,1.4968,1.4968,1.4968,1.4968,1.4968,1.4968,1.4968,1.4968,1.4968,1.4968,1.4968,1.4968,1.5122,1.5275,1.5275,1.5429,1.559,1.651,1.6815,1.6968,1.8177,1.8481,1.8633,1.9098,1.9098,1.8946,1.9098,1.9401,1.9542,1.9844,1.9844,1.9995,2.0447,2.0759,2.1222,2.166,2.196,2.2259,2.2259,2.2259,2.2259,2.2259,2.2259,2.2259,2.2259,2.3028,2.3581,2.3426,2.4209,2.4769,2.4623,2.4636,2.4636,2.4636,2.4636,2.4636,2.4636,2.4784,2.5079,2.552,2.6371,2.71,2.7695,2.9838,3.1429,3.236,3.3091,3.4341,3.6051,3.6632,3.7711,3.9136,3.9445,4.0022,4.0596,4.0882,4.0882,4.0882,4.1025,4.1167,4.1167,4.131,4.1452,4.1452,4.1452,4.1594,4.1756,1.3904,1.3904,1.3904,1.3904,1.4091,1.4278,1.4416,1.4627,1.4814,1.4952,1.4968,1.4968,1.4968,1.4968,1.4968,1.4968,1.4968,1.4968,1.4968,1.4968,1.4968,1.4968,1.4968,1.4968,1.4968,1.4968,1.4968,1.4968,1.4968,1.4968,1.4968,1.4968,1.4968,1.4968,1.4968,1.4968,1.4968,1.4968,1.4968,1.4968,1.4968,1.4968,1.4968,1.4968,1.4968,1.5122,1.5744,1.605,1.6357,1.7416,1.7873,1.8025,1.8491,1.8491,1.8491,1.8643,1.9098,1.9693,1.9844,1.9844,1.9995,2.0296,2.0597,2.106,2.151,2.181,2.2259,2.2259,2.2211,2.2186,2.2247,2.2211,2.2186,2.2247,2.2794,2.3214,2.3438,2.3979,2.4409,2.4623,2.4636,2.4636,2.4636,2.4636,2.4636,2.4636,2.4636,2.4784,2.5239,2.5506,2.6093,2.6983,2.9266,3.081,3.138,3.2039,3.33,3.4866,3.5248,3.6237,3.797,3.8117,3.87,3.957,4.0146,4.0433,4.0433,4.0719,4.0882,4.0882,4.0882,4.0882,4.0882,4.0882,4.1025,4.1473,1.3904,1.3904,1.3904,1.3904,1.4188,1.4416,1.4432,1.4724,1.4952,1.496,1.4968,1.4968,1.4968,1.4968,1.4968,1.4968,1.4968,1.4968,1.4968,1.4968,1.4968,1.4968,1.4968,1.4968,1.4968,1.4968,1.4968,1.4968,1.4968,1.4968,1.4968,1.4968,1.4968,1.4968,1.4968,1.4968,1.4968,1.4968,1.4968,1.4968,1.4968,1.4968,1.4968,1.4968,1.4968,1.5122,1.5429,1.5897,1.6357,1.7121,1.7721,1.8025,1.8491,1.8339,1.8177,1.8491,1.8643,1.8795,1.9693,1.9844,1.9844,1.9995,2.0296,2.0597,2.106,2.151,2.181,2.2259,2.2066,2.1969,2.2211,2.2066,2.1981,2.2223,2.3209,2.3851,2.34,2.4382,2.5029,2.4596,2.4636,2.4636,2.4636,2.4636,2.4636,2.4636,2.4636,2.4784,2.5239,2.5506,2.6093,2.6983,2.8274,2.8851,2.9026,3.0772,3.1861,3.2397,3.3769,3.4877,3.5867,3.5867,3.6312,3.7032,3.8205,3.8951,3.9261,4.0433,4.0882,4.0882,4.0882,4.0882,4.0882,4.0882,4.0882,4.1025,1.3904,1.3904,1.3904,1.3904,1.4196,1.4432,1.4432,1.4589,1.4661,1.4968,1.4814,1.4661,1.4968,1.4968,1.4968,1.4968,1.4968,1.4968,1.4968,1.4968,1.4968,1.4968,1.4968,1.4968,1.4968,1.4968,1.4968,1.4968,1.4968,1.4968,1.4968,1.4968,1.4968,1.4968,1.4968,1.4968,1.4968,1.4968,1.4968,1.4968,1.4968,1.4968,1.4968,1.4968,1.4968,1.5122,1.5429,1.5744,1.5897,1.6806,1.7111,1.7264,1.7731,1.7731,1.7721,1.8177,1.8177,1.8329,1.8946,1.9098,1.9098,1.939,1.9844,2.0145,2.0597,2.121,2.166,2.196,2.2037,2.2138,2.2247,2.2174,2.2138,2.2247,2.2608,2.3016,2.3426,2.3793,2.4195,2.4623,2.4636,2.4636,2.4636,2.4636,2.4636,2.4636,2.4636,2.4636,2.4784,2.5506,2.6093,2.6983,2.7695,2.813,2.8274,2.947,3.0697,3.1809,3.2605,3.3558,3.4839,3.5121,3.5718,3.646,3.7032,3.7639,3.8097,3.8535,3.8681,3.8826,3.955,3.9838,3.9838,4.0576,4.0882,4.1025,1.3904,1.3904,1.3904,1.3904,1.4196,1.4432,1.4292,1.4294,1.4515,1.4814,1.4515,1.4515,1.4968,1.4968,1.4968,1.4968,1.4968,1.4968,1.4968,1.4968,1.4968,1.4968,1.4968,1.4968,1.4968,1.4968,1.4968,1.4968,1.4968,1.4968,1.4968,1.4968,1.4968,1.4968,1.4968,1.4968,1.4968,1.4968,1.4968,1.4968,1.4968,1.4968,1.4968,1.4968,1.4968,1.4968,1.5275,1.5429,1.5735,1.6195,1.6653,1.6806,1.7121,1.7273,1.7426,1.7721,1.7873,1.7873,1.8187,1.8187,1.8339,1.9098,1.939,1.9844,2.0296,2.106,2.151,2.166,2.19,2.2162,2.2247,2.2198,2.2162,2.2247,2.2259,2.2558,2.3302,2.3438,2.3748,2.4488,2.4636,2.4636,2.4636,2.4636,2.4636,2.4636,2.4636,2.4636,2.4784,2.5373,2.5946,2.6838,2.7274,2.755,2.7985,2.8866,2.9945,3.1088,3.156,3.2508,3.35,3.3785,3.4221,3.4971,3.5718,3.6164,3.6627,3.7217,3.7364,3.7511,3.8243,3.8535,3.8681,3.9838,4.0289,4.0433,1.3904,1.3904,1.3904,1.3904,1.4196,1.4284,1.3854,1.4143,1.4368,1.4368,1.4368,1.4515,1.4968,1.4968,1.4968,1.4968,1.4968,1.4968,1.4968,1.4968,1.4968,1.4968,1.4968,1.4968,1.4968,1.4968,1.4968,1.4968,1.4968,1.4968,1.4968,1.4968,1.4968,1.4968,1.4968,1.4968,1.4968,1.4968,1.4968,1.4968,1.4968,1.4968,1.4968,1.4968,1.4968,1.4968,1.4968,1.5275,1.5582,1.5582,1.6195,1.6806,1.6806,1.7111,1.7426,1.7426,1.7426,1.7426,1.7426,1.7426,1.7731,1.8946,1.9239,1.939,2.0296,2.0759,2.121,2.166,2.1757,2.1957,2.2211,2.2054,2.1957,2.2223,2.2259,2.2558,2.329,2.3438,2.3735,2.4488,2.4636,2.4636,2.4636,2.4636,2.4636,2.4636,2.4636,2.4784,2.5239,2.5226,2.552,2.6399,2.6838,2.7129,2.755,2.9097,2.975,2.9766,3.0909,3.1395,3.1395,3.1395,3.1686,3.2146,3.3617,3.4672,3.5157,3.6775,3.7364,3.7364,3.7364,3.7364,3.7511,3.8681,3.9116,3.9261,1.3904,1.3904,1.3904,1.3904,1.3905,1.3995,1.3854,1.3687,1.359,1.3898,1.359,1.359,1.4045,1.4045,1.4045,1.4045,1.4045,1.4045,1.4045,1.4361,1.4515,1.4515,1.4814,1.4968,1.4968,1.4968,1.4968,1.4968,1.4968,1.4968,1.4968,1.4968,1.4968,1.4968,1.4968,1.4814,1.4669,1.4814,1.4661,1.4045,1.4515,1.4515,1.4515,1.4199,1.4507,1.4968,1.4669,1.4822,1.5275,1.5429,1.5735,1.5888,1.5267,1.542,1.5582,1.4645,1.4645,1.4798,1.4798,1.496,1.5727,1.7873,1.8329,1.8481,1.9098,1.9693,2.0296,2.0748,2.1291,2.1876,2.2247,2.2198,2.2174,2.2247,2.2259,2.2408,2.3005,2.3005,2.3302,2.4044,2.4193,2.4341,2.4636,2.4636,2.4636,2.4636,2.4636,2.4784,2.5239,2.5226,2.5373,2.5946,2.6399,2.6838,2.7129,2.8964,2.975,2.9766,3.0909,3.1395,3.1395,3.1395,3.1686,3.1993,3.2435,3.3044,3.3802,3.4238,3.4556,3.5025,3.5754,3.6201,3.6349,3.7511,3.7951,3.7951,1.3468,1.3468,1.3468,1.3468,1.3475,1.3557,1.3408,1.3224,1.312,1.3428,1.3274,1.3274,1.359,1.3744,1.3744,1.3744,1.3744,1.3744,1.3744,1.3898,1.4207,1.4368,1.4669,1.4814,1.4968,1.4968,1.4968,1.4968,1.4968,1.4968,1.4968,1.4968,1.4968,1.4968,1.4814,1.4669,1.4368,1.4507,1.4199,1.3744,1.4053,1.4053,1.4053,1.3744,1.4207,1.4661,1.4207,1.4515,1.4968,1.4507,1.4191,1.4037,1.3722,1.3722,1.3876,1.3105,1.3105,1.3414,1.3414,1.3722,1.4491,1.5871,1.6644,1.7102,1.7569,1.8471,1.9229,1.9682,2.0447,2.136,2.181,2.181,2.181,2.181,2.181,2.196,2.2558,2.2558,2.2856,2.3735,2.3896,2.4044,2.4341,2.4488,2.4636,2.4636,2.4636,2.4784,2.4931,2.4931,2.5079,2.5506,2.5946,2.6385,2.6692,2.8532,2.9462,2.975,3.0767,3.1252,3.1395,3.1395,3.1533,3.184,3.1993,3.2299,3.274,3.3044,3.3281,3.3464,3.4346,3.4645,3.4759,3.5926,3.6402,3.6532,1.2753,1.2753,1.2753,1.2753,1.3021,1.294,1.2657,1.2913,1.3105,1.2965,1.312,1.312,1.3583,1.359,1.359,1.359,1.359,1.359,1.359,1.3737,1.3898,1.4361,1.4361,1.4669,1.4968,1.4968,1.4968,1.4968,1.4968,1.4968,1.4968,1.4968,1.4968,1.4968,1.4515,1.4368,1.4207,1.3898,1.359,1.359,1.3583,1.359,1.359,1.359,1.3898,1.4207,1.3744,1.4045,1.4499,1.2965,1.2185,1.1863,1.2172,1.2172,1.2333,1.2179,1.2333,1.2797,1.2797,1.3105,1.3414,1.3414,1.4337,1.5412,1.588,1.6788,1.7844,1.8158,1.9218,2.0135,2.0759,2.091,2.091,2.106,2.106,2.136,2.2109,2.2259,2.2545,2.329,2.3748,2.3896,2.3896,2.4341,2.4488,2.4488,2.4488,2.4488,2.4636,2.4636,2.4784,2.5079,2.5506,2.5946,2.6399,2.7849,2.9066,2.975,3.0545,3.1045,3.1395,3.1395,3.1395,3.1395,3.1807,3.1944,3.1944,3.2809,3.291,3.2625,3.3072,3.322,3.3317,3.4124,3.4504,3.5084,1.2753,1.2753,1.2753,1.2753,1.2634,1.2514,1.2635,1.2519,1.2525,1.2642,1.2656,1.2656,1.2811,1.2811,1.2811,1.2811,1.2811,1.2965,1.3274,1.359,1.3898,1.4361,1.4669,1.4968,1.4968,1.4968,1.4968,1.4968,1.4968,1.4968,1.4968,1.4968,1.4814,1.4515,1.4368,1.4053,1.3428,1.359,1.3274,1.2811,1.312,1.3274,1.3274,1.2811,1.2811,1.2811,1.2501,1.2185,1.2024,1.1714,1.156,1.1244,1.0319,1.0319,1.0325,0.9397,0.9397,0.9864,1.0175,1.048,1.0946,1.1256,1.1721,1.2649,1.3876,1.4637,1.5242,1.5557,1.616,1.7065,1.8441,1.8905,1.952,2.0436,2.106,2.166,2.181,2.2109,2.2408,2.3005,2.3154,2.3302,2.3451,2.3587,2.3748,2.4044,2.4193,2.4341,2.4636,2.4636,2.4636,2.4784,2.5359,2.5946,2.6399,2.7625,2.8542,2.9287,3.0395,3.1045,3.1395,3.1395,3.1395,3.1379,3.1245,3.1269,3.1555,3.1861,3.2009,3.2221,3.2662,3.2809,3.2792,3.2999,3.3162,3.343,1.2187,1.2187,1.2187,1.2187,1.217,1.2178,1.2338,1.234,1.2338,1.2481,1.2501,1.2501,1.2501,1.2501,1.2501,1.2501,1.2501,1.2656,1.2811,1.312,1.3583,1.3744,1.4361,1.4661,1.4353,1.4661,1.4814,1.4968,1.4968,1.4968,1.4968,1.4968,1.4814,1.4368,1.4207,1.3744,1.312,1.312,1.2811,1.2501,1.2347,1.2192,1.2192,1.1572,1.1417,1.1572,1.1107,1.0635,1.0169,1.0319,1.0008,0.9387,0.8769,0.8613,0.8618,0.7998,0.8154,0.8622,0.8778,0.9246,0.9708,1.0019,1.033,1.0952,1.234,1.2951,1.3568,1.4022,1.4475,1.5387,1.6617,1.7084,1.7388,1.8309,1.8774,1.9229,1.9531,1.9833,2.0091,2.0717,2.0957,2.1337,2.1924,2.1924,2.2073,2.2533,2.2533,2.2682,2.2831,2.2831,2.2831,2.2831,2.387,2.4609,2.5198,2.6677,2.7804,2.8744,2.9821,3.0498,3.0835,3.0662,3.0678,3.0498,3.0155,3.0244,3.0672,3.0921,3.1121,3.1397,3.1997,3.2287,3.2415,3.2415,3.2947,3.3664,1.1619,1.1619,1.1619,1.1619,1.1714,1.1843,1.1999,1.2155,1.2305,1.2447,1.2488,1.2347,1.2347,1.2347,1.2347,1.2347,1.2347,1.2347,1.2501,1.2811,1.2965,1.312,1.3744,1.4053,1.359,1.3898,1.4207,1.4814,1.4814,1.4814,1.4814,1.4814,1.4507,1.3898,1.3428,1.2965,1.2501,1.203,1.2037,1.2037,1.1262,1.0952,1.0952,1.0175,1.0019,1.0175,0.9864,0.9241,0.8622,0.8925,0.8301,0.7525,0.7525,0.7525,0.7525,0.7525,0.7842,0.8159,0.8159,0.8622,0.9246,0.9402,0.9708,1.0175,1.0952,1.1572,1.2192,1.2488,1.3098,1.3868,1.4952,1.5105,1.5412,1.6033,1.6186,1.6474,1.7198,1.7379,1.7625,1.8001,1.8621,1.9208,1.9962,2.0113,2.0414,2.0876,2.0876,2.0876,2.1026,2.1026,2.1026,2.1026,2.2073,2.2967,2.3561,2.5051,2.6234,2.7289,2.8263,2.9189,3.0171,2.9875,2.959,2.9534,2.9198,2.9213,2.9593,3.0001,3.0128,3.0308,3.1032,3.1608,3.1895,3.2039,3.2867,3.3921,1.1619,1.1619,1.1619,1.1619,1.1633,1.1694,1.1837,1.1993,1.2149,1.2298,1.2119,1.2037,1.2037,1.1727,1.1417,1.1417,1.1417,1.1727,1.2501,1.2501,1.2811,1.312,1.3274,1.3274,1.312,1.2501,1.2811,1.3891,1.3891,1.3891,1.3891,1.3891,1.3112,1.1714,1.1714,1.094,0.9853,0.9853,1.0014,1.033,0.9858,0.9858,1.0175,0.9703,0.9241,0.909,0.8934,0.8466,0.7681,0.7681,0.7681,0.7525,0.7525,0.7525,0.7525,0.7525,0.7525,0.7681,0.8159,0.8315,0.8471,0.9246,0.9397,0.9558,1.0019,1.033,1.033,1.0486,1.048,1.1101,1.2649,1.3259,1.3868,1.5412,1.633,1.6724,1.6692,1.7123,1.7454,1.7385,1.7859,1.8309,1.8764,1.9218,1.9671,2.0436,2.0436,2.0586,2.1037,2.1026,2.1026,2.1026,2.1475,2.1775,2.1924,2.2794,2.3527,2.3945,2.4136,2.6122,2.9348,2.9302,2.9302,2.9183,2.8862,2.8755,2.8918,2.8842,2.9105,2.9505,3.0206,3.0776,3.122,3.1503,3.1855,3.2118,1.1332,1.1332,1.1188,1.1038,1.1038,1.1083,1.1225,1.1366,1.1515,1.1663,1.1644,1.1572,1.1572,1.1417,1.1262,1.1262,1.1262,1.1417,1.1882,1.1411,1.1095,1.1095,1.0773,1.0463,1.0003,1.0158,1.0314,1.0624,1.156,1.1869,1.1708,1.1708,1.1089,1.0319,1.0319,0.9853,0.9075,0.9075,0.9236,0.9236,0.8613,0.8457,0.8462,0.7833,0.7681,0.7842,0.7998,0.7838,0.7525,0.7525,0.7525,0.7525,0.7525,0.7525,0.7525,0.7525,0.7525,0.7525,0.7686,0.7998,0.8315,0.8622,0.909,0.9402,0.9553,0.9864,1.0019,1.0019,1.0019,1.033,1.1262,1.1721,1.2313,1.3304,1.3976,1.4428,1.4557,1.4749,1.4916,1.5144,1.5354,1.5751,1.6168,1.6635,1.7245,1.8006,1.8319,1.8623,1.8926,1.8926,1.8864,1.8891,1.9758,2.0358,2.0374,2.1543,2.2259,2.2668,2.2682,2.3877,2.5951,2.6234,2.6262,2.6265,2.6877,2.7143,2.7437,2.783,2.8274,2.8707,2.9712,3.0684,3.1565,3.1769,3.21,3.2589]}]]